Wetterdaten: Sonntag, 26.06.2016
Datum Zeit Temp. A. Temp. A. max Feuchte A. Luftdruck Regen Wind Richtung Richtung Sonnenschein ET UV Solar Taupunkt Windben
26.06.2016 00:00 15,2 C 15,2 C 92 % 1015,7 hPa 0,0 mm 1,4 km/h (1 Bft) SW 220 0 min 0,000 mm 0,0 UV-I 0 W/m 13,9 C 1,6 km/h (1 Bft)
26.06.2016 00:01 15,2 C 15,2 C 92 % 1015,7 hPa 0,0 mm 0,2 km/h (0 Bft) SW 220 0 min 0,000 mm 0,0 UV-I 0 W/m 13,9 C 1,6 km/h (1 Bft)
26.06.2016 00:02 15,2 C 15,2 C 92 % 1015,7 hPa 0,0 mm 0,7 km/h (0 Bft) SW 220 0 min 0,000 mm 0,0 UV-I 0 W/m 13,9 C 1,6 km/h (1 Bft)
26.06.2016 00:03 15,2 C 15,2 C 91 % 1015,7 hPa 0,0 mm 0,0 km/h (0 Bft) SW 220 0 min 0,000 mm 0,0 UV-I 0 W/m 13,7 C 0,0 km/h (0 Bft)
26.06.2016 00:04 15,2 C 15,2 C 91 % 1015,8 hPa 0,0 mm 0,0 km/h (0 Bft) SW 220 0 min 0,000 mm 0,0 UV-I 0 W/m 13,7 C 0,0 km/h (0 Bft)
26.06.2016 00:05 15,2 C 15,2 C 92 % 1015,8 hPa 0,0 mm 0,0 km/h (0 Bft) SW 220 0 min 0,000 mm 0,0 UV-I 0 W/m 13,9 C 0,0 km/h (0 Bft)
26.06.2016 00:06 15,2 C 15,2 C 92 % 1015,8 hPa 0,0 mm 0,0 km/h (0 Bft) SW 220 0 min 0,000 mm 0,0 UV-I 0 W/m 13,9 C 0,0 km/h (0 Bft)
26.06.2016 00:07 15,1 C 15,2 C 91 % 1015,8 hPa 0,0 mm 0,1 km/h (0 Bft) SW 220 0 min 0,000 mm 0,0 UV-I 0 W/m 13,6 C 1,6 km/h (1 Bft)
26.06.2016 00:08 15,1 C 15,1 C 92 % 1015,8 hPa 0,0 mm 0,0 km/h (0 Bft) SW 220 0 min 0,000 mm 0,0 UV-I 0 W/m 13,8 C 0,0 km/h (0 Bft)
26.06.2016 00:09 15,1 C 15,1 C 92 % 1015,8 hPa 0,0 mm 0,0 km/h (0 Bft) SW 220 0 min 0,000 mm 0,0 UV-I 0 W/m 13,8 C 0,0 km/h (0 Bft)
26.06.2016 00:10 15,1 C 15,1 C 93 % 1015,8 hPa 0,0 mm 0,0 km/h (0 Bft) SW 220 0 min 0,000 mm 0,0 UV-I 0 W/m 14,0 C 0,0 km/h (0 Bft)
26.06.2016 00:11 15,1 C 15,1 C 93 % 1015,8 hPa 0,0 mm 0,0 km/h (0 Bft) SW 220 0 min 0,000 mm 0,0 UV-I 0 W/m 14,0 C 0,0 km/h (0 Bft)
26.06.2016 00:12 15,1 C 15,1 C 92 % 1015,7 hPa 0,0 mm 0,0 km/h (0 Bft) SW 220 0 min 0,000 mm 0,0 UV-I 0 W/m 13,8 C 0,0 km/h (0 Bft)
26.06.2016 00:13 15,1 C 15,1 C 92 % 1015,7 hPa 0,0 mm 0,0 km/h (0 Bft) SW 220 0 min 0,000 mm 0,0 UV-I 0 W/m 13,8 C 0,0 km/h (0 Bft)
26.06.2016 00:14 15,1 C 15,1 C 92 % 1015,7 hPa 0,0 mm 0,0 km/h (0 Bft) SW 220 0 min 0,000 mm 0,0 UV-I 0 W/m 13,8 C 0,0 km/h (0 Bft)
26.06.2016 00:15 15,1 C 15,1 C 92 % 1015,8 hPa 0,0 mm 0,0 km/h (0 Bft) SW 220 0 min 0,000 mm 0,0 UV-I 0 W/m 13,8 C 0,0 km/h (0 Bft)
26.06.2016 00:16 15,1 C 15,1 C 92 % 1015,7 hPa 0,0 mm 0,0 km/h (0 Bft) SW 220 0 min 0,000 mm 0,0 UV-I 0 W/m 13,8 C 0,0 km/h (0 Bft)
26.06.2016 00:17 15,1 C 15,1 C 91 % 1015,8 hPa 0,0 mm 0,6 km/h (0 Bft) SW 220 0 min 0,000 mm 0,0 UV-I 0 W/m 13,6 C 1,6 km/h (1 Bft)
26.06.2016 00:18 15,2 C 15,2 C 91 % 1015,8 hPa 0,0 mm 0,3 km/h (0 Bft) SW 220 0 min 0,000 mm 0,0 UV-I 0 W/m 13,7 C 1,6 km/h (1 Bft)
26.06.2016 00:19 15,2 C 15,2 C 91 % 1015,8 hPa 0,0 mm 0,0 km/h (0 Bft) SW 220 0 min 0,000 mm 0,0 UV-I 0 W/m 13,7 C 0,0 km/h (0 Bft)
26.06.2016 00:20 15,2 C 15,2 C 91 % 1015,8 hPa 0,0 mm 0,3 km/h (0 Bft) SW 220 0 min 0,000 mm 0,0 UV-I 0 W/m 13,7 C 1,6 km/h (1 Bft)
26.06.2016 00:21 15,2 C 15,2 C 91 % 1015,8 hPa 0,0 mm 0,2 km/h (0 Bft) SW 220 0 min 0,000 mm 0,0 UV-I 0 W/m 13,7 C 1,6 km/h (1 Bft)
26.06.2016 00:22 15,2 C 15,2 C 91 % 1015,8 hPa 0,0 mm 0,0 km/h (0 Bft) SW 220 0 min 0,000 mm 0,0 UV-I 0 W/m 13,7 C 0,0 km/h (0 Bft)
26.06.2016 00:23 15,2 C 15,2 C 92 % 1015,7 hPa 0,0 mm 0,4 km/h (0 Bft) SW 220 0 min 0,000 mm 0,0 UV-I 0 W/m 13,9 C 1,6 km/h (1 Bft)
26.06.2016 00:24 15,2 C 15,2 C 91 % 1015,7 hPa 0,0 mm 1,1 km/h (1 Bft) SW 220 0 min 0,000 mm 0,0 UV-I 0 W/m 13,7 C 3,2 km/h (1 Bft)
26.06.2016 00:25 15,2 C 15,2 C 92 % 1015,8 hPa 0,0 mm 1,2 km/h (1 Bft) SW 234 0 min 0,000 mm 0,0 UV-I 0 W/m 13,9 C 3,2 km/h (1 Bft)
26.06.2016 00:26 15,2 C 15,2 C 91 % 1015,8 hPa 0,0 mm 1,9 km/h (1 Bft) W-SW 256 0 min 0,000 mm 0,0 UV-I 0 W/m 13,7 C 3,2 km/h (1 Bft)
26.06.2016 00:27 15,2 C 15,2 C 92 % 1015,8 hPa 0,0 mm 1,2 km/h (1 Bft) W-SW 256 0 min 0,000 mm 0,0 UV-I 0 W/m 13,9 C 3,2 km/h (1 Bft)
26.06.2016 00:28 15,2 C 15,2 C 91 % 1015,7 hPa 0,0 mm 0,8 km/h (0 Bft) W-SW 256 0 min 0,000 mm 0,0 UV-I 0 W/m 13,7 C 1,6 km/h (1 Bft)
26.06.2016 00:29 15,2 C 15,2 C 91 % 1015,7 hPa 0,0 mm 0,9 km/h (0 Bft) W-SW 256 0 min 0,000 mm 0,0 UV-I 0 W/m 13,7 C 1,6 km/h (1 Bft)
26.06.2016 00:30 15,2 C 15,2 C 91 % 1015,7 hPa 0,0 mm 1,1 km/h (1 Bft) W-SW 256 0 min 0,000 mm 0,0 UV-I 0 W/m 13,7 C 1,6 km/h (1 Bft)
26.06.2016 00:31 15,2 C 15,2 C 92 % 1015,7 hPa 0,0 mm 1,2 km/h (1 Bft) W-SW 256 0 min 0,000 mm 0,0 UV-I 0 W/m 13,9 C 1,6 km/h (1 Bft)
26.06.2016 00:32 15,2 C 15,2 C 92 % 1015,7 hPa 0,0 mm 1,4 km/h (1 Bft) W-NW 286 0 min 0,000 mm 0,0 UV-I 0 W/m 13,9 C 3,2 km/h (1 Bft)
26.06.2016 00:33 15,2 C 15,2 C 93 % 1015,7 hPa 0,0 mm 1,7 km/h (1 Bft) W-NW 286 0 min 0,000 mm 0,0 UV-I 0 W/m 14,1 C 3,2 km/h (1 Bft)
26.06.2016 00:34 15,1 C 15,2 C 93 % 1015,7 hPa 0,0 mm 1,5 km/h (1 Bft) W-NW 287 0 min 0,000 mm 0,0 UV-I 0 W/m 14,0 C 3,2 km/h (1 Bft)
26.06.2016 00:35 15,1 C 15,2 C 93 % 1015,7 hPa 0,0 mm 0,5 km/h (0 Bft) W-NW 287 0 min 0,000 mm 0,0 UV-I 0 W/m 14,0 C 1,6 km/h (1 Bft)
26.06.2016 00:36 15,1 C 15,1 C 93 % 1015,7 hPa 0,0 mm 0,0 km/h (0 Bft) W-NW 287 0 min 0,000 mm 0,0 UV-I 0 W/m 14,0 C 0,0 km/h (0 Bft)
26.06.2016 00:37 15,1 C 15,1 C 93 % 1015,7 hPa 0,0 mm 0,0 km/h (0 Bft) W-NW 287 0 min 0,000 mm 0,0 UV-I 0 W/m 14,0 C 0,0 km/h (0 Bft)
26.06.2016 00:38 15,1 C 15,1 C 93 % 1015,7 hPa 0,0 mm 0,1 km/h (0 Bft) W-NW 287 0 min 0,000 mm 0,0 UV-I 0 W/m 14,0 C 1,6 km/h (1 Bft)
26.06.2016 00:39 15,0 C 15,1 C 93 % 1015,7 hPa 0,0 mm 1,1 km/h (1 Bft) W-NW 287 0 min 0,000 mm 0,0 UV-I 0 W/m 13,9 C 3,2 km/h (1 Bft)
26.06.2016 00:40 15,0 C 15,0 C 93 % 1015,7 hPa 0,0 mm 0,1 km/h (0 Bft) W-NW 287 0 min 0,000 mm 0,0 UV-I 0 W/m 13,9 C 1,6 km/h (1 Bft)
26.06.2016 00:41 15,0 C 15,0 C 93 % 1015,8 hPa 0,0 mm 0,7 km/h (0 Bft) W-NW 287 0 min 0,000 mm 0,0 UV-I 0 W/m 13,9 C 1,6 km/h (1 Bft)
26.06.2016 00:42 15,0 C 15,0 C 93 % 1015,7 hPa 0,0 mm 0,5 km/h (0 Bft) W-NW 287 0 min 0,000 mm 0,0 UV-I 0 W/m 13,9 C 1,6 km/h (1 Bft)
26.06.2016 00:43 15,0 C 15,0 C 94 % 1015,7 hPa 0,0 mm 0,2 km/h (0 Bft) W-NW 287 0 min 0,000 mm 0,0 UV-I 0 W/m 14,0 C 1,6 km/h (1 Bft)
26.06.2016 00:44 14,9 C 15,0 C 94 % 1015,7 hPa 0,0 mm 0,1 km/h (0 Bft) W-NW 287 0 min 0,000 mm 0,0 UV-I 0 W/m 13,9 C 1,6 km/h (1 Bft)
26.06.2016 00:45 14,9 C 15,0 C 93 % 1015,7 hPa 0,0 mm 0,0 km/h (0 Bft) W-NW 287 0 min 0,000 mm 0,0 UV-I 0 W/m 13,8 C 0,0 km/h (0 Bft)
26.06.2016 00:46 14,9 C 14,9 C 93 % 1015,7 hPa 0,0 mm 0,0 km/h (0 Bft) W-NW 287 0 min 0,000 mm 0,0 UV-I 0 W/m 13,8 C 0,0 km/h (0 Bft)
26.06.2016 00:47 14,9 C 14,9 C 93 % 1015,7 hPa 0,0 mm 0,5 km/h (0 Bft) W-NW 287 0 min 0,000 mm 0,0 UV-I 0 W/m 13,8 C 1,6 km/h (1 Bft)
26.06.2016 00:48 14,9 C 14,9 C 93 % 1015,7 hPa 0,0 mm 4,3 km/h (1 Bft) SW 232 0 min 0,000 mm 0,0 UV-I 0 W/m 13,8 C 8,0 km/h (2 Bft)
26.06.2016 00:49 14,9 C 14,9 C 92 % 1015,7 hPa 0,0 mm 4,2 km/h (1 Bft) S-SW 197 0 min 0,000 mm 0,0 UV-I 0 W/m 13,6 C 6,4 km/h (2 Bft)
26.06.2016 00:50 14,9 C 14,9 C 92 % 1015,8 hPa 0,0 mm 1,1 km/h (1 Bft) S-SW 197 0 min 0,000 mm 0,0 UV-I 0 W/m 13,6 C 3,2 km/h (1 Bft)
26.06.2016 00:51 14,9 C 14,9 C 92 % 1015,7 hPa 0,0 mm 0,7 km/h (0 Bft) S-SW 197 0 min 0,000 mm 0,0 UV-I 0 W/m 13,6 C 1,6 km/h (1 Bft)
26.06.2016 00:52 14,9 C 14,9 C 92 % 1015,7 hPa 0,0 mm 0,4 km/h (0 Bft) S-SW 197 0 min 0,000 mm 0,0 UV-I 0 W/m 13,6 C 1,6 km/h (1 Bft)
26.06.2016 00:53 14,8 C 14,9 C 92 % 1015,7 hPa 0,0 mm 2,3 km/h (1 Bft) S-SW 197 0 min 0,000 mm 0,0 UV-I 0 W/m 13,5 C 4,8 km/h (1 Bft)
26.06.2016 00:54 14,8 C 14,9 C 92 % 1015,7 hPa 0,0 mm 1,4 km/h (1 Bft) W-SW 237 0 min 0,000 mm 0,0 UV-I 0 W/m 13,5 C 1,6 km/h (1 Bft)
26.06.2016 00:55 14,8 C 14,8 C 92 % 1015,7 hPa 0,0 mm 2,9 km/h (1 Bft) W 259 0 min 0,000 mm 0,0 UV-I 0 W/m 13,5 C 4,8 km/h (1 Bft)
26.06.2016 00:56 14,8 C 14,8 C 92 % 1015,7 hPa 0,0 mm 0,8 km/h (0 Bft) W 259 0 min 0,000 mm 0,0 UV-I 0 W/m 13,5 C 1,6 km/h (1 Bft)
26.06.2016 00:57 14,8 C 14,8 C 92 % 1015,7 hPa 0,0 mm 0,9 km/h (0 Bft) W-SW 254 0 min 0,000 mm 0,0 UV-I 0 W/m 13,5 C 1,6 km/h (1 Bft)
26.06.2016 00:58 14,8 C 14,8 C 91 % 1015,7 hPa 0,0 mm 0,9 km/h (0 Bft) W-SW 254 0 min 0,000 mm 0,0 UV-I 0 W/m 13,3 C 1,6 km/h (1 Bft)
26.06.2016 00:59 14,8 C 14,8 C 92 % 1015,7 hPa 0,0 mm 0,0 km/h (0 Bft) W-SW 254 0 min 0,000 mm 0,0 UV-I 0 W/m 13,5 C 0,0 km/h (0 Bft)
26.06.2016 01:00 14,8 C 14,8 C 92 % 1015,7 hPa 0,0 mm 0,7 km/h (0 Bft) W-SW 254 0 min 0,000 mm 0,0 UV-I 0 W/m 13,5 C 1,6 km/h (1 Bft)
26.06.2016 01:01 14,7 C 14,8 C 92 % 1015,7 hPa 0,0 mm 1,0 km/h (0 Bft) W-SW 254 0 min 0,000 mm 0,0 UV-I 0 W/m 13,4 C 3,2 km/h (1 Bft)
26.06.2016 01:02 14,7 C 14,7 C 92 % 1015,7 hPa 0,0 mm 1,2 km/h (1 Bft) W-SW 254 0 min 0,000 mm 0,0 UV-I 0 W/m 13,4 C 3,2 km/h (1 Bft)
26.06.2016 01:03 14,7 C 14,7 C 92 % 1015,7 hPa 0,0 mm 1,4 km/h (1 Bft) W-SW 254 0 min 0,000 mm 0,0 UV-I 0 W/m 13,4 C 1,6 km/h (1 Bft)
26.06.2016 01:04 14,6 C 14,7 C 93 % 1015,7 hPa 0,0 mm 1,1 km/h (1 Bft) W-SW 250 0 min 0,000 mm 0,0 UV-I 0 W/m 13,5 C 1,6 km/h (1 Bft)
26.06.2016 01:05 14,6 C 14,7 C 93 % 1015,7 hPa 0,0 mm 1,6 km/h (1 Bft) SW 225 0 min 0,000 mm 0,0 UV-I 0 W/m 13,5 C 3,2 km/h (1 Bft)
26.06.2016 01:06 14,6 C 14,6 C 93 % 1015,7 hPa 0,0 mm 0,9 km/h (0 Bft) SW 225 0 min 0,000 mm 0,0 UV-I 0 W/m 13,5 C 3,2 km/h (1 Bft)
26.06.2016 01:07 14,6 C 14,6 C 93 % 1015,7 hPa 0,0 mm 2,8 km/h (1 Bft) S-SO 167 0 min 0,000 mm 0,0 UV-I 0 W/m 13,5 C 4,8 km/h (1 Bft)
26.06.2016 01:08 14,6 C 14,6 C 92 % 1015,7 hPa 0,0 mm 1,7 km/h (1 Bft) S-SO 168 0 min 0,000 mm 0,0 UV-I 0 W/m 13,3 C 3,2 km/h (1 Bft)
26.06.2016 01:09 14,6 C 14,6 C 92 % 1015,7 hPa 0,0 mm 1,4 km/h (1 Bft) S-SO 168 0 min 0,000 mm 0,0 UV-I 0 W/m 13,3 C 1,6 km/h (1 Bft)
26.06.2016 01:10 14,6 C 14,6 C 92 % 1015,7 hPa 0,0 mm 1,1 km/h (1 Bft) S-SO 168 0 min 0,000 mm 0,0 UV-I 0 W/m 13,3 C 1,6 km/h (1 Bft)
26.06.2016 01:11 14,7 C 14,7 C 92 % 1015,8 hPa 0,0 mm 1,0 km/h (0 Bft) S-SO 168 0 min 0,000 mm 0,0 UV-I 0 W/m 13,4 C 3,2 km/h (1 Bft)
26.06.2016 01:12 14,6 C 14,7 C 93 % 1015,7 hPa 0,0 mm 0,2 km/h (0 Bft) S-SO 168 0 min 0,000 mm 0,0 UV-I 0 W/m 13,5 C 1,6 km/h (1 Bft)
26.06.2016 01:13 14,7 C 14,7 C 93 % 1015,8 hPa 0,0 mm 0,4 km/h (0 Bft) S-SO 168 0 min 0,000 mm 0,0 UV-I 0 W/m 13,6 C 1,6 km/h (1 Bft)
26.06.2016 01:14 14,7 C 14,7 C 93 % 1015,7 hPa 0,0 mm 0,2 km/h (0 Bft) S-SO 168 0 min 0,000 mm 0,0 UV-I 0 W/m 13,6 C 1,6 km/h (1 Bft)
26.06.2016 01:15 14,7 C 14,7 C 93 % 1015,7 hPa 0,0 mm 0,0 km/h (0 Bft) S-SO 168 0 min 0,000 mm 0,0 UV-I 0 W/m 13,6 C 0,0 km/h (0 Bft)
26.06.2016 01:16 14,7 C 14,7 C 93 % 1015,8 hPa 0,0 mm 0,0 km/h (0 Bft) S-SO 168 0 min 0,000 mm 0,0 UV-I 0 W/m 13,6 C 0,0 km/h (0 Bft)
26.06.2016 01:17 14,7 C 14,7 C 93 % 1015,7 hPa 0,0 mm 0,1 km/h (0 Bft) S-SO 168 0 min 0,000 mm 0,0 UV-I 0 W/m 13,6 C 1,6 km/h (1 Bft)
26.06.2016 01:18 14,7 C 14,7 C 93 % 1015,7 hPa 0,0 mm 0,2 km/h (0 Bft) S-SO 168 0 min 0,000 mm 0,0 UV-I 0 W/m 13,6 C 1,6 km/h (1 Bft)
26.06.2016 01:19 14,6 C 14,7 C 93 % 1015,7 hPa 0,0 mm 1,3 km/h (1 Bft) S-SO 168 0 min 0,000 mm 0,0 UV-I 0 W/m 13,5 C 3,2 km/h (1 Bft)
26.06.2016 01:20 14,6 C 14,6 C 94 % 1015,7 hPa 0,0 mm 1,1 km/h (1 Bft) S-SO 168 0 min 0,000 mm 0,0 UV-I 0 W/m 13,6 C 1,6 km/h (1 Bft)
26.06.2016 01:21 14,5 C 14,6 C 94 % 1015,8 hPa 0,0 mm 1,7 km/h (1 Bft) S-SO 168 0 min 0,000 mm 0,0 UV-I 0 W/m 13,5 C 3,2 km/h (1 Bft)
26.06.2016 01:22 14,5 C 14,6 C 94 % 1015,8 hPa 0,0 mm 1,6 km/h (1 Bft) S-SO 168 0 min 0,000 mm 0,0 UV-I 0 W/m 13,5 C 1,6 km/h (1 Bft)
26.06.2016 01:23 14,6 C 14,6 C 93 % 1015,8 hPa 0,0 mm 2,5 km/h (1 Bft) S 191 0 min 0,000 mm 0,0 UV-I 0 W/m 13,5 C 4,8 km/h (1 Bft)
26.06.2016 01:24 14,6 C 14,6 C 94 % 1015,8 hPa 0,0 mm 1,1 km/h (1 Bft) S 191 0 min 0,000 mm 0,0 UV-I 0 W/m 13,6 C 1,6 km/h (1 Bft)
26.06.2016 01:25 14,6 C 14,6 C 94 % 1015,7 hPa 0,0 mm 0,0 km/h (0 Bft) S 191 0 min 0,000 mm 0,0 UV-I 0 W/m 13,6 C 0,0 km/h (0 Bft)
26.06.2016 01:26 14,6 C 14,6 C 94 % 1015,7 hPa 0,0 mm 0,0 km/h (0 Bft) S 191 0 min 0,000 mm 0,0 UV-I 0 W/m 13,6 C 0,0 km/h (0 Bft)
26.06.2016 01:27 14,6 C 14,6 C 94 % 1015,7 hPa 0,0 mm 0,0 km/h (0 Bft) S 191 0 min 0,000 mm 0,0 UV-I 0 W/m 13,6 C 0,0 km/h (0 Bft)
26.06.2016 01:28 14,6 C 14,6 C 94 % 1015,7 hPa 0,0 mm 0,0 km/h (0 Bft) S 191 0 min 0,000 mm 0,0 UV-I 0 W/m 13,6 C 0,0 km/h (0 Bft)
26.06.2016 01:29 14,6 C 14,6 C 94 % 1015,6 hPa 0,0 mm 0,0 km/h (0 Bft) S 191 0 min 0,000 mm 0,0 UV-I 0 W/m 13,6 C 0,0 km/h (0 Bft)
26.06.2016 01:30 14,6 C 14,6 C 93 % 1015,6 hPa 0,0 mm 0,0 km/h (0 Bft) S 191 0 min 0,000 mm 0,0 UV-I 0 W/m 13,5 C 0,0 km/h (0 Bft)
26.06.2016 01:31 14,6 C 14,6 C 94 % 1015,5 hPa 0,0 mm 0,0 km/h (0 Bft) S 191 0 min 0,000 mm 0,0 UV-I 0 W/m 13,6 C 0,0 km/h (0 Bft)
26.06.2016 01:32 14,6 C 14,6 C 94 % 1015,5 hPa 0,0 mm 0,1 km/h (0 Bft) S 191 0 min 0,000 mm 0,0 UV-I 0 W/m 13,6 C 1,6 km/h (1 Bft)
26.06.2016 01:33 14,6 C 14,6 C 94 % 1015,5 hPa 0,0 mm 1,1 km/h (1 Bft) S 191 0 min 0,000 mm 0,0 UV-I 0 W/m 13,6 C 1,6 km/h (1 Bft)
26.06.2016 01:34 14,6 C 14,6 C 94 % 1015,6 hPa 0,0 mm 0,1 km/h (0 Bft) S 191 0 min 0,000 mm 0,0 UV-I 0 W/m 13,6 C 1,6 km/h (1 Bft)
26.06.2016 01:35 14,6 C 14,6 C 94 % 1015,6 hPa 0,0 mm 0,4 km/h (0 Bft) S 191 0 min 0,000 mm 0,0 UV-I 0 W/m 13,6 C 1,6 km/h (1 Bft)
26.06.2016 01:36 14,6 C 14,6 C 94 % 1015,7 hPa 0,0 mm 0,8 km/h (0 Bft) S 191 0 min 0,000 mm 0,0 UV-I 0 W/m 13,6 C 1,6 km/h (1 Bft)
26.06.2016 01:37 14,6 C 14,6 C 94 % 1015,6 hPa 0,0 mm 0,9 km/h (0 Bft) S-SW 192 0 min 0,000 mm 0,0 UV-I 0 W/m 13,6 C 1,6 km/h (1 Bft)
26.06.2016 01:38 14,5 C 14,6 C 94 % 1015,6 hPa 0,0 mm 0,7 km/h (0 Bft) S 191 0 min 0,000 mm 0,0 UV-I 0 W/m 13,5 C 1,6 km/h (1 Bft)
26.06.2016 01:39 14,5 C 14,5 C 94 % 1015,6 hPa 0,0 mm 0,0 km/h (0 Bft) S 191 0 min 0,000 mm 0,0 UV-I 0 W/m 13,5 C 0,0 km/h (0 Bft)
26.06.2016 01:40 14,5 C 14,6 C 94 % 1015,7 hPa 0,0 mm 1,3 km/h (1 Bft) S 191 0 min 0,000 mm 0,0 UV-I 0 W/m 13,5 C 3,2 km/h (1 Bft)
26.06.2016 01:41 14,5 C 14,5 C 93 % 1015,7 hPa 0,0 mm 1,2 km/h (1 Bft) S 191 0 min 0,000 mm 0,0 UV-I 0 W/m 13,4 C 1,6 km/h (1 Bft)
26.06.2016 01:42 14,5 C 14,6 C 93 % 1015,7 hPa 0,0 mm 0,2 km/h (0 Bft) S 191 0 min 0,000 mm 0,0 UV-I 0 W/m 13,4 C 1,6 km/h (1 Bft)
26.06.2016 01:43 14,6 C 14,6 C 93 % 1015,7 hPa 0,0 mm 0,3 km/h (0 Bft) S 191 0 min 0,000 mm 0,0 UV-I 0 W/m 13,5 C 1,6 km/h (1 Bft)
26.06.2016 01:44 14,6 C 14,6 C 93 % 1015,7 hPa 0,0 mm 0,7 km/h (0 Bft) S 191 0 min 0,000 mm 0,0 UV-I 0 W/m 13,5 C 1,6 km/h (1 Bft)
26.06.2016 01:45 14,6 C 14,6 C 94 % 1015,7 hPa 0,0 mm 0,6 km/h (0 Bft) S 191 0 min 0,000 mm 0,0 UV-I 0 W/m 13,6 C 1,6 km/h (1 Bft)
26.06.2016 01:46 14,5 C 14,6 C 93 % 1015,7 hPa 0,0 mm 0,3 km/h (0 Bft) S 191 0 min 0,000 mm 0,0 UV-I 0 W/m 13,4 C 1,6 km/h (1 Bft)
26.06.2016 01:47 14,5 C 14,6 C 93 % 1015,7 hPa 0,0 mm 0,4 km/h (0 Bft) S 191 0 min 0,000 mm 0,0 UV-I 0 W/m 13,4 C 1,6 km/h (1 Bft)
26.06.2016 01:48 14,6 C 14,6 C 92 % 1015,7 hPa 0,0 mm 0,3 km/h (0 Bft) S 191 0 min 0,000 mm 0,0 UV-I 0 W/m 13,3 C 1,6 km/h (1 Bft)
26.06.2016 01:49 14,6 C 14,6 C 93 % 1015,7 hPa 0,0 mm 0,5 km/h (0 Bft) S-SW 209 0 min 0,000 mm 0,0 UV-I 0 W/m 13,5 C 1,6 km/h (1 Bft)
26.06.2016 01:50 14,6 C 14,6 C 93 % 1015,7 hPa 0,0 mm 1,6 km/h (1 Bft) W-SW 247 0 min 0,000 mm 0,0 UV-I 0 W/m 13,5 C 3,2 km/h (1 Bft)
26.06.2016 01:54 14,6 C 14,6 C 93 % 1015,7 hPa 0,0 mm 0,5 km/h (0 Bft) W-SW 241 0 min 0,000 mm 0,0 UV-I 0 W/m 13,5 C 1,6 km/h (1 Bft)
26.06.2016 01:55 14,6 C 14,6 C 92 % 1015,7 hPa 0,0 mm 0,0 km/h (0 Bft) W-SW 241 0 min 0,000 mm 0,0 UV-I 0 W/m 13,3 C 0,0 km/h (0 Bft)
26.06.2016 01:56 14,6 C 14,6 C 92 % 1015,7 hPa 0,0 mm 0,0 km/h (0 Bft) W-SW 241 0 min 0,000 mm 0,0 UV-I 0 W/m 13,3 C 0,0 km/h (0 Bft)
26.06.2016 01:57 14,6 C 14,6 C 93 % 1015,7 hPa 0,0 mm 0,0 km/h (0 Bft) W-SW 241 0 min 0,000 mm 0,0 UV-I 0 W/m 13,5 C 0,0 km/h (0 Bft)
26.06.2016 01:58 14,5 C 14,6 C 92 % 1015,7 hPa 0,0 mm 0,0 km/h (0 Bft) W-SW 241 0 min 0,000 mm 0,0 UV-I 0 W/m 13,2 C 0,0 km/h (0 Bft)
26.06.2016 01:59 14,6 C 14,6 C 93 % 1015,7 hPa 0,0 mm 0,0 km/h (0 Bft) W-SW 241 0 min 0,000 mm 0,0 UV-I 0 W/m 13,5 C 0,0 km/h (0 Bft)
26.06.2016 02:00 14,6 C 14,6 C 93 % 1015,7 hPa 0,0 mm 0,1 km/h (0 Bft) W-SW 241 0 min 0,000 mm 0,0 UV-I 0 W/m 13,5 C 1,6 km/h (1 Bft)
26.06.2016 02:01 14,6 C 14,6 C 93 % 1015,7 hPa 0,0 mm 0,4 km/h (0 Bft) W-SW 241 0 min 0,000 mm 0,0 UV-I 0 W/m 13,5 C 1,6 km/h (1 Bft)
26.06.2016 02:02 14,6 C 14,6 C 93 % 1015,8 hPa 0,0 mm 1,1 km/h (1 Bft) W-SW 241 0 min 0,000 mm 0,0 UV-I 0 W/m 13,5 C 3,2 km/h (1 Bft)
26.06.2016 02:03 14,6 C 14,6 C 93 % 1015,8 hPa 0,0 mm 1,9 km/h (1 Bft) W-SW 247 0 min 0,000 mm 0,0 UV-I 0 W/m 13,5 C 3,2 km/h (1 Bft)
26.06.2016 02:04 14,5 C 14,6 C 93 % 1015,8 hPa 0,0 mm 2,1 km/h (1 Bft) W-SW 257 0 min 0,000 mm 0,0 UV-I 0 W/m 13,4 C 4,8 km/h (1 Bft)
26.06.2016 02:05 14,6 C 14,6 C 93 % 1015,8 hPa 0,0 mm 3,8 km/h (1 Bft) W-SW 252 0 min 0,000 mm 0,0 UV-I 0 W/m 13,5 C 4,8 km/h (1 Bft)
26.06.2016 02:06 14,5 C 14,6 C 92 % 1015,8 hPa 0,2 mm 3,0 km/h (1 Bft) W 271 0 min 0,000 mm 0,0 UV-I 0 W/m 13,2 C 4,8 km/h (1 Bft)
26.06.2016 02:07 14,5 C 14,5 C 93 % 1015,8 hPa 0,0 mm 1,7 km/h (1 Bft) W-SW 257 0 min 0,000 mm 0,0 UV-I 0 W/m 13,4 C 4,8 km/h (1 Bft)
26.06.2016 02:08 14,6 C 14,6 C 93 % 1015,8 hPa 0,0 mm 3,0 km/h (1 Bft) W-SW 248 0 min 0,000 mm 0,0 UV-I 0 W/m 13,5 C 4,8 km/h (1 Bft)
26.06.2016 02:09 14,4 C 14,6 C 93 % 1015,8 hPa 0,0 mm 2,2 km/h (1 Bft) W-SW 250 0 min 0,000 mm 0,0 UV-I 0 W/m 13,3 C 3,2 km/h (1 Bft)
26.06.2016 02:10 14,4 C 14,5 C 93 % 1015,8 hPa 0,0 mm 1,1 km/h (1 Bft) W-SW 250 0 min 0,000 mm 0,0 UV-I 0 W/m 13,3 C 1,6 km/h (1 Bft)
26.06.2016 02:11 14,4 C 14,4 C 93 % 1015,8 hPa 0,0 mm 0,5 km/h (0 Bft) W-SW 250 0 min 0,000 mm 0,0 UV-I 0 W/m 13,3 C 1,6 km/h (1 Bft)
26.06.2016 02:12 14,4 C 14,4 C 93 % 1015,8 hPa 0,0 mm 0,1 km/h (0 Bft) W-SW 250 0 min 0,000 mm 0,0 UV-I 0 W/m 13,3 C 1,6 km/h (1 Bft)
26.06.2016 02:13 14,4 C 14,4 C 93 % 1015,8 hPa 0,0 mm 1,4 km/h (1 Bft) SW 229 0 min 0,000 mm 0,0 UV-I 0 W/m 13,3 C 3,2 km/h (1 Bft)
26.06.2016 02:14 14,4 C 14,4 C 93 % 1015,8 hPa 0,0 mm 0,8 km/h (0 Bft) SW 229 0 min 0,000 mm 0,0 UV-I 0 W/m 13,3 C 1,6 km/h (1 Bft)
26.06.2016 02:15 14,4 C 14,4 C 93 % 1015,8 hPa 0,0 mm 0,6 km/h (0 Bft) SW 229 0 min 0,000 mm 0,0 UV-I 0 W/m 13,3 C 1,6 km/h (1 Bft)
26.06.2016 02:16 14,4 C 14,4 C 93 % 1015,8 hPa 0,0 mm 0,1 km/h (0 Bft) SW 229 0 min 0,000 mm 0,0 UV-I 0 W/m 13,3 C 1,6 km/h (1 Bft)
26.06.2016 02:17 14,4 C 14,4 C 93 % 1015,8 hPa 0,0 mm 1,9 km/h (1 Bft) SW 229 0 min 0,000 mm 0,0 UV-I 0 W/m 13,3 C 3,2 km/h (1 Bft)
26.06.2016 02:18 14,3 C 14,4 C 93 % 1015,7 hPa 0,0 mm 0,7 km/h (0 Bft) SW 229 0 min 0,000 mm 0,0 UV-I 0 W/m 13,2 C 1,6 km/h (1 Bft)
26.06.2016 02:19 14,3 C 14,4 C 93 % 1015,7 hPa 0,0 mm 0,5 km/h (0 Bft) SW 229 0 min 0,000 mm 0,0 UV-I 0 W/m 13,2 C 1,6 km/h (1 Bft)
26.06.2016 02:20 14,3 C 14,3 C 93 % 1015,8 hPa 0,0 mm 1,3 km/h (1 Bft) SW 229 0 min 0,000 mm 0,0 UV-I 0 W/m 13,2 C 1,6 km/h (1 Bft)
26.06.2016 02:21 14,3 C 14,3 C 93 % 1015,7 hPa 0,0 mm 1,1 km/h (1 Bft) SW 229 0 min 0,000 mm 0,0 UV-I 0 W/m 13,2 C 1,6 km/h (1 Bft)
26.06.2016 02:22 14,3 C 14,3 C 92 % 1015,8 hPa 0,0 mm 1,4 km/h (1 Bft) SW 229 0 min 0,000 mm 0,0 UV-I 0 W/m 13,0 C 1,6 km/h (1 Bft)
26.06.2016 02:23 14,2 C 14,3 C 92 % 1015,8 hPa 0,0 mm 0,5 km/h (0 Bft) SW 229 0 min 0,000 mm 0,0 UV-I 0 W/m 12,9 C 1,6 km/h (1 Bft)
26.06.2016 02:24 14,2 C 14,2 C 92 % 1015,8 hPa 0,0 mm 1,3 km/h (1 Bft) S-SW 209 0 min 0,000 mm 0,0 UV-I 0 W/m 12,9 C 1,6 km/h (1 Bft)
26.06.2016 02:25 14,2 C 14,2 C 92 % 1015,8 hPa 0,0 mm 1,4 km/h (1 Bft) S-SW 209 0 min 0,000 mm 0,0 UV-I 0 W/m 12,9 C 3,2 km/h (1 Bft)
26.06.2016 02:26 14,2 C 14,2 C 92 % 1015,8 hPa 0,0 mm 0,5 km/h (0 Bft) S-SW 209 0 min 0,000 mm 0,0 UV-I 0 W/m 12,9 C 1,6 km/h (1 Bft)
26.06.2016 02:27 14,2 C 14,2 C 92 % 1015,7 hPa 0,0 mm 0,4 km/h (0 Bft) S-SW 209 0 min 0,000 mm 0,0 UV-I 0 W/m 12,9 C 1,6 km/h (1 Bft)
26.06.2016 02:28 14,1 C 14,2 C 92 % 1015,7 hPa 0,0 mm 0,9 km/h (0 Bft) S-SW 209 0 min 0,000 mm 0,0 UV-I 0 W/m 12,8 C 1,6 km/h (1 Bft)
26.06.2016 02:29 14,1 C 14,1 C 92 % 1015,8 hPa 0,0 mm 1,5 km/h (1 Bft) S-SW 209 0 min 0,000 mm 0,0 UV-I 0 W/m 12,8 C 3,2 km/h (1 Bft)
26.06.2016 02:30 14,1 C 14,1 C 92 % 1015,7 hPa 0,0 mm 0,6 km/h (0 Bft) S-SW 209 0 min 0,000 mm 0,0 UV-I 0 W/m 12,8 C 1,6 km/h (1 Bft)
26.06.2016 02:31 14,1 C 14,1 C 92 % 1015,7 hPa 0,0 mm 0,4 km/h (0 Bft) S-SW 209 0 min 0,000 mm 0,0 UV-I 0 W/m 12,8 C 1,6 km/h (1 Bft)
26.06.2016 02:32 14,1 C 14,1 C 92 % 1015,7 hPa 0,0 mm 0,5 km/h (0 Bft) S-SW 209 0 min 0,000 mm 0,0 UV-I 0 W/m 12,8 C 1,6 km/h (1 Bft)
26.06.2016 02:33 14,1 C 14,1 C 92 % 1015,7 hPa 0,0 mm 0,5 km/h (0 Bft) S-SW 209 0 min 0,000 mm 0,0 UV-I 0 W/m 12,8 C 1,6 km/h (1 Bft)
26.06.2016 02:34 14,1 C 14,1 C 93 % 1015,7 hPa 0,0 mm 0,9 km/h (0 Bft) S-SW 205 0 min 0,000 mm 0,0 UV-I 0 W/m 13,0 C 1,6 km/h (1 Bft)
26.06.2016 02:35 14,0 C 14,1 C 93 % 1015,7 hPa 0,0 mm 0,2 km/h (0 Bft) S-SW 205 0 min 0,000 mm 0,0 UV-I 0 W/m 12,9 C 1,6 km/h (1 Bft)
26.06.2016 02:36 14,0 C 14,0 C 93 % 1015,7 hPa 0,0 mm 1,3 km/h (1 Bft) S-SW 202 0 min 0,000 mm 0,0 UV-I 0 W/m 12,9 C 3,2 km/h (1 Bft)
26.06.2016 02:37 14,0 C 14,0 C 93 % 1015,7 hPa 0,0 mm 1,3 km/h (1 Bft) S-SW 198 0 min 0,000 mm 0,0 UV-I 0 W/m 12,9 C 1,6 km/h (1 Bft)
26.06.2016 02:38 14,0 C 14,0 C 93 % 1015,6 hPa 0,0 mm 1,5 km/h (1 Bft) S-SW 198 0 min 0,000 mm 0,0 UV-I 0 W/m 12,9 C 1,6 km/h (1 Bft)
26.06.2016 02:39 13,9 C 14,0 C 93 % 1015,6 hPa 0,0 mm 1,5 km/h (1 Bft) S 189 0 min 0,000 mm 0,0 UV-I 0 W/m 12,8 C 3,2 km/h (1 Bft)
26.06.2016 02:40 13,9 C 14,0 C 94 % 1015,7 hPa 0,0 mm 0,9 km/h (0 Bft) S 175 0 min 0,000 mm 0,0 UV-I 0 W/m 12,9 C 1,6 km/h (1 Bft)
26.06.2016 02:41 13,9 C 13,9 C 94 % 1015,6 hPa 0,0 mm 1,3 km/h (1 Bft) S 175 0 min 0,000 mm 0,0 UV-I 0 W/m 12,9 C 1,6 km/h (1 Bft)
26.06.2016 02:42 13,8 C 13,9 C 94 % 1015,6 hPa 0,0 mm 0,8 km/h (0 Bft) S 175 0 min 0,000 mm 0,0 UV-I 0 W/m 12,9 C 1,6 km/h (1 Bft)
26.06.2016 02:43 13,8 C 13,8 C 95 % 1015,6 hPa 0,0 mm 0,0 km/h (0 Bft) S 175 0 min 0,000 mm 0,0 UV-I 0 W/m 13,0 C 0,0 km/h (0 Bft)
26.06.2016 02:44 13,8 C 13,8 C 95 % 1015,6 hPa 0,0 mm 0,2 km/h (0 Bft) S 175 0 min 0,000 mm 0,0 UV-I 0 W/m 13,0 C 1,6 km/h (1 Bft)
26.06.2016 02:45 13,8 C 13,8 C 95 % 1015,7 hPa 0,0 mm 0,4 km/h (0 Bft) S 175 0 min 0,000 mm 0,0 UV-I 0 W/m 13,0 C 1,6 km/h (1 Bft)
26.06.2016 02:46 13,8 C 13,8 C 95 % 1015,6 hPa 0,0 mm 0,5 km/h (0 Bft) S 175 0 min 0,000 mm 0,0 UV-I 0 W/m 13,0 C 1,6 km/h (1 Bft)
26.06.2016 02:47 13,8 C 13,8 C 95 % 1015,6 hPa 0,2 mm 1,2 km/h (1 Bft) S 175 0 min 0,000 mm 0,0 UV-I 0 W/m 13,0 C 1,6 km/h (1 Bft)
26.06.2016 02:48 13,8 C 13,8 C 95 % 1015,6 hPa 0,0 mm 1,6 km/h (1 Bft) S 175 0 min 0,000 mm 0,0 UV-I 0 W/m 13,0 C 3,2 km/h (1 Bft)
26.06.2016 02:49 13,8 C 13,8 C 95 % 1015,6 hPa 0,0 mm 1,9 km/h (1 Bft) S 174 0 min 0,000 mm 0,0 UV-I 0 W/m 13,0 C 3,2 km/h (1 Bft)
26.06.2016 02:50 13,8 C 13,8 C 95 % 1015,6 hPa 0,0 mm 2,2 km/h (1 Bft) S 174 0 min 0,000 mm 0,0 UV-I 0 W/m 13,0 C 3,2 km/h (1 Bft)
26.06.2016 02:51 13,8 C 13,8 C 94 % 1015,5 hPa 0,0 mm 1,5 km/h (1 Bft) S 174 0 min 0,000 mm 0,0 UV-I 0 W/m 12,9 C 3,2 km/h (1 Bft)
26.06.2016 02:52 13,8 C 13,8 C 95 % 1015,5 hPa 0,0 mm 1,6 km/h (1 Bft) S 174 0 min 0,000 mm 0,0 UV-I 0 W/m 13,0 C 1,6 km/h (1 Bft)
26.06.2016 02:53 13,8 C 13,8 C 95 % 1015,5 hPa 0,0 mm 0,7 km/h (0 Bft) S 174 0 min 0,000 mm 0,0 UV-I 0 W/m 13,0 C 1,6 km/h (1 Bft)
26.06.2016 02:54 13,8 C 13,8 C 95 % 1015,5 hPa 0,0 mm 0,4 km/h (0 Bft) S 174 0 min 0,000 mm 0,0 UV-I 0 W/m 13,0 C 1,6 km/h (1 Bft)
26.06.2016 02:55 13,8 C 13,8 C 95 % 1015,6 hPa 0,0 mm 0,0 km/h (0 Bft) S 174 0 min 0,000 mm 0,0 UV-I 0 W/m 13,0 C 0,0 km/h (0 Bft)
26.06.2016 02:56 13,8 C 13,8 C 95 % 1015,6 hPa 0,0 mm 0,0 km/h (0 Bft) S 174 0 min 0,000 mm 0,0 UV-I 0 W/m 13,0 C 0,0 km/h (0 Bft)
26.06.2016 02:57 13,8 C 13,8 C 95 % 1015,6 hPa 0,0 mm 0,3 km/h (0 Bft) S 174 0 min 0,000 mm 0,0 UV-I 0 W/m 13,0 C 1,6 km/h (1 Bft)
26.06.2016 02:58 13,8 C 13,8 C 95 % 1015,6 hPa 0,0 mm 0,7 km/h (0 Bft) S 174 0 min 0,000 mm 0,0 UV-I 0 W/m 13,0 C 1,6 km/h (1 Bft)
26.06.2016 02:59 13,7 C 13,8 C 95 % 1015,6 hPa 0,0 mm 1,1 km/h (1 Bft) S 174 0 min 0,000 mm 0,0 UV-I 0 W/m 12,9 C 1,6 km/h (1 Bft)
26.06.2016 03:00 13,8 C 13,8 C 95 % 1015,6 hPa 0,0 mm 0,2 km/h (0 Bft) S 174 0 min 0,000 mm 0,0 UV-I 0 W/m 13,0 C 1,6 km/h (1 Bft)
26.06.2016 03:01 13,8 C 13,8 C 95 % 1015,6 hPa 0,0 mm 0,0 km/h (0 Bft) S 174 0 min 0,000 mm 0,0 UV-I 0 W/m 13,0 C 0,0 km/h (0 Bft)
26.06.2016 03:02 13,8 C 13,8 C 95 % 1015,6 hPa 0,0 mm 0,0 km/h (0 Bft) S 174 0 min 0,000 mm 0,0 UV-I 0 W/m 13,0 C 0,0 km/h (0 Bft)
26.06.2016 03:03 13,7 C 13,8 C 95 % 1015,5 hPa 0,0 mm 0,0 km/h (0 Bft) S 174 0 min 0,000 mm 0,0 UV-I 0 W/m 12,9 C 0,0 km/h (0 Bft)
26.06.2016 03:04 13,7 C 13,8 C 95 % 1015,5 hPa 0,0 mm 0,0 km/h (0 Bft) S 174 0 min 0,000 mm 0,0 UV-I 0 W/m 12,9 C 0,0 km/h (0 Bft)
26.06.2016 03:05 13,8 C 13,8 C 96 % 1015,6 hPa 0,0 mm 0,0 km/h (0 Bft) S 174 0 min 0,000 mm 0,0 UV-I 0 W/m 13,2 C 0,0 km/h (0 Bft)
26.06.2016 03:06 13,8 C 13,8 C 95 % 1015,6 hPa 0,0 mm 0,0 km/h (0 Bft) S 174 0 min 0,000 mm 0,0 UV-I 0 W/m 13,0 C 0,0 km/h (0 Bft)
26.06.2016 03:07 13,8 C 13,8 C 95 % 1015,6 hPa 0,0 mm 0,0 km/h (0 Bft) S 174 0 min 0,000 mm 0,0 UV-I 0 W/m 13,0 C 0,0 km/h (0 Bft)
26.06.2016 03:08 13,8 C 13,8 C 95 % 1015,6 hPa 0,0 mm 0,0 km/h (0 Bft) S 174 0 min 0,000 mm 0,0 UV-I 0 W/m 13,0 C 0,0 km/h (0 Bft)
26.06.2016 03:09 13,8 C 13,8 C 95 % 1015,5 hPa 0,0 mm 0,0 km/h (0 Bft) S 174 0 min 0,000 mm 0,0 UV-I 0 W/m 13,0 C 0,0 km/h (0 Bft)
26.06.2016 03:10 13,8 C 13,8 C 95 % 1015,5 hPa 0,0 mm 0,0 km/h (0 Bft) S 174 0 min 0,000 mm 0,0 UV-I 0 W/m 13,0 C 0,0 km/h (0 Bft)
26.06.2016 03:11 13,8 C 13,8 C 95 % 1015,5 hPa 0,0 mm 0,0 km/h (0 Bft) S 174 0 min 0,000 mm 0,0 UV-I 0 W/m 13,0 C 0,0 km/h (0 Bft)
26.06.2016 03:12 13,8 C 13,8 C 95 % 1015,5 hPa 0,0 mm 0,1 km/h (0 Bft) S 174 0 min 0,000 mm 0,0 UV-I 0 W/m 13,0 C 1,6 km/h (1 Bft)
26.06.2016 03:13 13,8 C 13,8 C 95 % 1015,5 hPa 0,0 mm 0,0 km/h (0 Bft) S 174 0 min 0,000 mm 0,0 UV-I 0 W/m 13,0 C 0,0 km/h (0 Bft)
26.06.2016 03:14 13,8 C 13,9 C 95 % 1015,4 hPa 0,0 mm 0,1 km/h (0 Bft) S 174 0 min 0,000 mm 0,0 UV-I 0 W/m 13,0 C 1,6 km/h (1 Bft)
26.06.2016 03:15 13,8 C 13,9 C 95 % 1015,5 hPa 0,0 mm 0,0 km/h (0 Bft) S 174 0 min 0,000 mm 0,0 UV-I 0 W/m 13,0 C 0,0 km/h (0 Bft)
26.06.2016 03:16 13,9 C 13,9 C 95 % 1015,5 hPa 0,0 mm 0,5 km/h (0 Bft) S 177 0 min 0,000 mm 0,0 UV-I 0 W/m 13,1 C 1,6 km/h (1 Bft)
26.06.2016 03:17 13,9 C 13,9 C 95 % 1015,5 hPa 0,0 mm 1,6 km/h (1 Bft) S-SW 210 0 min 0,000 mm 0,0 UV-I 0 W/m 13,1 C 3,2 km/h (1 Bft)
26.06.2016 03:18 13,9 C 13,9 C 95 % 1015,4 hPa 0,0 mm 1,5 km/h (1 Bft) SW 217 0 min 0,000 mm 0,0 UV-I 0 W/m 13,1 C 3,2 km/h (1 Bft)
26.06.2016 03:19 13,9 C 13,9 C 95 % 1015,5 hPa 0,0 mm 1,3 km/h (1 Bft) SW 219 0 min 0,000 mm 0,0 UV-I 0 W/m 13,1 C 3,2 km/h (1 Bft)
26.06.2016 03:20 13,9 C 13,9 C 95 % 1015,5 hPa 0,0 mm 1,1 km/h (1 Bft) SW 219 0 min 0,000 mm 0,0 UV-I 0 W/m 13,1 C 1,6 km/h (1 Bft)
26.06.2016 03:21 13,9 C 13,9 C 95 % 1015,4 hPa 0,0 mm 0,3 km/h (0 Bft) SW 219 0 min 0,000 mm 0,0 UV-I 0 W/m 13,1 C 1,6 km/h (1 Bft)
26.06.2016 03:22 13,9 C 13,9 C 95 % 1015,5 hPa 0,0 mm 0,1 km/h (0 Bft) SW 219 0 min 0,000 mm 0,0 UV-I 0 W/m 13,1 C 1,6 km/h (1 Bft)
26.06.2016 03:23 13,9 C 13,9 C 95 % 1015,5 hPa 0,0 mm 1,1 km/h (1 Bft) SW 219 0 min 0,000 mm 0,0 UV-I 0 W/m 13,1 C 1,6 km/h (1 Bft)
26.06.2016 03:24 13,9 C 13,9 C 95 % 1015,5 hPa 0,0 mm 0,1 km/h (0 Bft) SW 219 0 min 0,000 mm 0,0 UV-I 0 W/m 13,1 C 1,6 km/h (1 Bft)
26.06.2016 03:25 13,9 C 13,9 C 95 % 1015,5 hPa 0,0 mm 0,1 km/h (0 Bft) SW 219 0 min 0,000 mm 0,0 UV-I 0 W/m 13,1 C 1,6 km/h (1 Bft)
26.06.2016 03:26 13,9 C 13,9 C 95 % 1015,5 hPa 0,0 mm 1,5 km/h (1 Bft) SW 219 0 min 0,000 mm 0,0 UV-I 0 W/m 13,1 C 3,2 km/h (1 Bft)
26.06.2016 03:27 13,9 C 13,9 C 95 % 1015,4 hPa 0,0 mm 1,3 km/h (1 Bft) SW 219 0 min 0,000 mm 0,0 UV-I 0 W/m 13,1 C 1,6 km/h (1 Bft)
26.06.2016 03:28 13,9 C 13,9 C 95 % 1015,4 hPa 0,0 mm 0,9 km/h (0 Bft) SW 219 0 min 0,000 mm 0,0 UV-I 0 W/m 13,1 C 1,6 km/h (1 Bft)
26.06.2016 03:29 13,9 C 13,9 C 95 % 1015,4 hPa 0,0 mm 0,7 km/h (0 Bft) SW 219 0 min 0,000 mm 0,0 UV-I 0 W/m 13,1 C 1,6 km/h (1 Bft)
26.06.2016 03:30 13,8 C 13,9 C 95 % 1015,4 hPa 0,0 mm 0,5 km/h (0 Bft) SW 219 0 min 0,000 mm 0,0 UV-I 0 W/m 13,0 C 1,6 km/h (1 Bft)
26.06.2016 03:31 13,8 C 13,9 C 95 % 1015,4 hPa 0,0 mm 0,3 km/h (0 Bft) SW 219 0 min 0,000 mm 0,0 UV-I 0 W/m 13,0 C 1,6 km/h (1 Bft)
26.06.2016 03:32 13,8 C 13,8 C 95 % 1015,4 hPa 0,0 mm 0,1 km/h (0 Bft) SW 219 0 min 0,000 mm 0,0 UV-I 0 W/m 13,0 C 1,6 km/h (1 Bft)
26.06.2016 03:33 13,8 C 13,8 C 95 % 1015,4 hPa 0,0 mm 1,1 km/h (1 Bft) SW 219 0 min 0,000 mm 0,0 UV-I 0 W/m 13,0 C 1,6 km/h (1 Bft)
26.06.2016 03:34 13,8 C 13,8 C 95 % 1015,4 hPa 0,0 mm 2,5 km/h (1 Bft) SW 229 0 min 0,000 mm 0,0 UV-I 0 W/m 13,0 C 3,2 km/h (1 Bft)
26.06.2016 03:35 13,8 C 13,8 C 96 % 1015,4 hPa 0,0 mm 1,7 km/h (1 Bft) SW 229 0 min 0,000 mm 0,0 UV-I 0 W/m 13,2 C 3,2 km/h (1 Bft)
26.06.2016 03:36 13,8 C 13,8 C 95 % 1015,4 hPa 0,0 mm 1,9 km/h (1 Bft) SW 229 0 min 0,000 mm 0,0 UV-I 0 W/m 13,0 C 3,2 km/h (1 Bft)
26.06.2016 03:37 13,8 C 13,8 C 95 % 1015,4 hPa 0,0 mm 0,9 km/h (0 Bft) SW 229 0 min 0,000 mm 0,0 UV-I 0 W/m 13,0 C 1,6 km/h (1 Bft)
26.06.2016 03:38 13,8 C 13,8 C 95 % 1015,4 hPa 0,0 mm 0,1 km/h (0 Bft) SW 229 0 min 0,000 mm 0,0 UV-I 0 W/m 13,0 C 1,6 km/h (1 Bft)
26.06.2016 03:39 13,8 C 13,8 C 95 % 1015,4 hPa 0,0 mm 0,5 km/h (0 Bft) SW 229 0 min 0,000 mm 0,0 UV-I 0 W/m 13,0 C 1,6 km/h (1 Bft)
26.06.2016 03:40 13,8 C 13,8 C 95 % 1015,4 hPa 0,0 mm 0,4 km/h (0 Bft) SW 229 0 min 0,000 mm 0,0 UV-I 0 W/m 13,0 C 1,6 km/h (1 Bft)
26.06.2016 03:41 13,8 C 13,8 C 95 % 1015,4 hPa 0,0 mm 0,0 km/h (0 Bft) SW 229 0 min 0,000 mm 0,0 UV-I 0 W/m 13,0 C 0,0 km/h (0 Bft)
26.06.2016 03:42 13,8 C 13,8 C 95 % 1015,4 hPa 0,0 mm 1,3 km/h (1 Bft) SW 229 0 min 0,000 mm 0,0 UV-I 0 W/m 13,0 C 3,2 km/h (1 Bft)
26.06.2016 03:43 13,8 C 13,8 C 95 % 1015,4 hPa 0,0 mm 1,0 km/h (0 Bft) SW 229 0 min 0,000 mm 0,0 UV-I 0 W/m 13,0 C 3,2 km/h (1 Bft)
26.06.2016 03:44 13,8 C 13,8 C 95 % 1015,5 hPa 0,2 mm 0,1 km/h (0 Bft) SW 229 0 min 0,000 mm 0,0 UV-I 0 W/m 13,0 C 1,6 km/h (1 Bft)
26.06.2016 03:45 13,8 C 13,8 C 95 % 1015,5 hPa 0,0 mm 1,5 km/h (1 Bft) SW 229 0 min 0,000 mm 0,0 UV-I 0 W/m 13,0 C 3,2 km/h (1 Bft)
26.06.2016 03:46 13,8 C 13,8 C 95 % 1015,5 hPa 0,0 mm 1,5 km/h (1 Bft) SW 229 0 min 0,000 mm 0,0 UV-I 0 W/m 13,0 C 1,6 km/h (1 Bft)
26.06.2016 03:47 13,8 C 13,8 C 96 % 1015,5 hPa 0,2 mm 2,1 km/h (1 Bft) W-SW 238 0 min 0,000 mm 0,0 UV-I 0 W/m 13,2 C 3,2 km/h (1 Bft)
26.06.2016 03:48 13,8 C 13,9 C 95 % 1015,5 hPa 0,0 mm 2,3 km/h (1 Bft) W-SW 243 0 min 0,000 mm 0,0 UV-I 0 W/m 13,0 C 3,2 km/h (1 Bft)
26.06.2016 03:49 13,9 C 13,9 C 95 % 1015,4 hPa 0,0 mm 1,4 km/h (1 Bft) W-SW 243 0 min 0,000 mm 0,0 UV-I 0 W/m 13,1 C 3,2 km/h (1 Bft)
26.06.2016 03:50 13,8 C 13,9 C 95 % 1015,5 hPa 0,2 mm 0,8 km/h (0 Bft) W-SW 243 0 min 0,000 mm 0,0 UV-I 0 W/m 13,0 C 1,6 km/h (1 Bft)
26.06.2016 03:51 13,8 C 13,8 C 95 % 1015,5 hPa 0,0 mm 0,3 km/h (0 Bft) W-SW 243 0 min 0,000 mm 0,0 UV-I 0 W/m 13,0 C 1,6 km/h (1 Bft)
26.06.2016 03:52 13,8 C 13,8 C 95 % 1015,5 hPa 0,0 mm 0,0 km/h (0 Bft) W-SW 243 0 min 0,000 mm 0,0 UV-I 0 W/m 13,0 C 0,0 km/h (0 Bft)
26.06.2016 03:53 13,8 C 13,8 C 95 % 1015,5 hPa 0,0 mm 0,2 km/h (0 Bft) W-SW 243 0 min 0,000 mm 0,0 UV-I 0 W/m 13,0 C 1,6 km/h (1 Bft)
26.06.2016 03:54 13,8 C 13,8 C 95 % 1015,5 hPa 0,0 mm 0,9 km/h (0 Bft) W-SW 243 0 min 0,000 mm 0,0 UV-I 0 W/m 13,0 C 1,6 km/h (1 Bft)
26.06.2016 03:55 13,8 C 13,8 C 96 % 1015,5 hPa 0,2 mm 0,7 km/h (0 Bft) W-SW 243 0 min 0,000 mm 0,0 UV-I 0 W/m 13,2 C 1,6 km/h (1 Bft)
26.06.2016 03:56 13,8 C 13,8 C 95 % 1015,5 hPa 0,0 mm 1,2 km/h (1 Bft) W-SW 243 0 min 0,000 mm 0,0 UV-I 0 W/m 13,0 C 1,6 km/h (1 Bft)
26.06.2016 03:57 13,8 C 13,8 C 95 % 1015,5 hPa 0,2 mm 0,6 km/h (0 Bft) W-SW 243 0 min 0,000 mm 0,0 UV-I 0 W/m 13,0 C 1,6 km/h (1 Bft)
26.06.2016 03:58 13,8 C 13,8 C 96 % 1015,5 hPa 0,0 mm 1,0 km/h (0 Bft) W-SW 243 0 min 0,000 mm 0,0 UV-I 0 W/m 13,2 C 1,6 km/h (1 Bft)
26.06.2016 03:59 13,8 C 13,8 C 96 % 1015,6 hPa 0,0 mm 1,1 km/h (1 Bft) W-SW 243 0 min 0,000 mm 0,0 UV-I 0 W/m 13,2 C 1,6 km/h (1 Bft)
26.06.2016 04:00 13,8 C 13,8 C 96 % 1015,6 hPa 0,0 mm 0,5 km/h (0 Bft) W-SW 243 0 min 0,000 mm 0,0 UV-I 0 W/m 13,2 C 1,6 km/h (1 Bft)
26.06.2016 04:01 13,8 C 13,8 C 96 % 1015,5 hPa 0,0 mm 0,8 km/h (0 Bft) W-SW 243 0 min 0,000 mm 0,0 UV-I 0 W/m 13,2 C 1,6 km/h (1 Bft)
26.06.2016 04:02 13,8 C 13,8 C 96 % 1015,6 hPa 0,2 mm 0,8 km/h (0 Bft) W-SW 243 0 min 0,000 mm 0,0 UV-I 0 W/m 13,2 C 1,6 km/h (1 Bft)
26.06.2016 04:03 13,8 C 13,8 C 96 % 1015,6 hPa 0,0 mm 1,6 km/h (1 Bft) W-SW 243 0 min 0,000 mm 0,0 UV-I 0 W/m 13,2 C 3,2 km/h (1 Bft)
26.06.2016 04:04 13,8 C 13,8 C 96 % 1015,5 hPa 0,0 mm 2,1 km/h (1 Bft) W 259 0 min 0,000 mm 0,0 UV-I 0 W/m 13,2 C 4,8 km/h (1 Bft)
26.06.2016 04:05 13,8 C 13,8 C 96 % 1015,6 hPa 0,0 mm 2,7 km/h (1 Bft) W 261 0 min 0,000 mm 0,0 UV-I 0 W/m 13,2 C 3,2 km/h (1 Bft)
26.06.2016 04:06 13,8 C 13,8 C 96 % 1015,6 hPa 0,2 mm 2,5 km/h (1 Bft) SW 232 0 min 0,000 mm 0,0 UV-I 0 W/m 13,2 C 4,8 km/h (1 Bft)
26.06.2016 04:07 13,8 C 13,8 C 95 % 1015,6 hPa 0,0 mm 3,2 km/h (1 Bft) W 271 0 min 0,000 mm 0,0 UV-I 0 W/m 13,0 C 4,8 km/h (1 Bft)
26.06.2016 04:08 13,8 C 13,8 C 95 % 1015,6 hPa 0,0 mm 2,1 km/h (1 Bft) W-SW 252 0 min 0,000 mm 0,0 UV-I 0 W/m 13,0 C 4,8 km/h (1 Bft)
26.06.2016 04:09 13,7 C 13,8 C 95 % 1015,6 hPa 0,2 mm 1,9 km/h (1 Bft) W-SW 252 0 min 0,000 mm 0,0 UV-I 0 W/m 12,9 C 3,2 km/h (1 Bft)
26.06.2016 04:10 13,7 C 13,7 C 95 % 1015,6 hPa 0,0 mm 1,1 km/h (1 Bft) W-SW 252 0 min 0,000 mm 0,0 UV-I 0 W/m 12,9 C 1,6 km/h (1 Bft)
26.06.2016 04:11 13,7 C 13,7 C 95 % 1015,6 hPa 0,2 mm 0,7 km/h (0 Bft) W-SW 252 0 min 0,000 mm 0,0 UV-I 0 W/m 12,9 C 1,6 km/h (1 Bft)
26.06.2016 04:12 13,7 C 13,7 C 95 % 1015,6 hPa 0,0 mm 0,4 km/h (0 Bft) W-SW 252 0 min 0,000 mm 0,0 UV-I 0 W/m 12,9 C 1,6 km/h (1 Bft)
26.06.2016 04:13 13,7 C 13,7 C 95 % 1015,6 hPa 0,0 mm 0,1 km/h (0 Bft) W-SW 252 0 min 0,000 mm 0,0 UV-I 0 W/m 12,9 C 1,6 km/h (1 Bft)
26.06.2016 04:14 13,6 C 13,7 C 95 % 1015,6 hPa 0,0 mm 0,0 km/h (0 Bft) W-SW 252 0 min 0,000 mm 0,0 UV-I 0 W/m 12,8 C 0,0 km/h (0 Bft)
26.06.2016 04:15 13,6 C 13,6 C 95 % 1015,6 hPa 0,2 mm 0,0 km/h (0 Bft) W-SW 252 0 min 0,000 mm 0,0 UV-I 0 W/m 12,8 C 0,0 km/h (0 Bft)
26.06.2016 04:16 13,6 C 13,6 C 95 % 1015,6 hPa 0,0 mm 0,1 km/h (0 Bft) W-SW 252 0 min 0,000 mm 0,0 UV-I 0 W/m 12,8 C 1,6 km/h (1 Bft)
26.06.2016 04:17 13,5 C 13,6 C 95 % 1015,6 hPa 0,0 mm 0,0 km/h (0 Bft) W-SW 252 0 min 0,000 mm 0,0 UV-I 0 W/m 12,7 C 0,0 km/h (0 Bft)
26.06.2016 04:18 13,6 C 13,6 C 95 % 1015,6 hPa 0,2 mm 0,1 km/h (0 Bft) W-SW 252 0 min 0,000 mm 0,0 UV-I 0 W/m 12,8 C 1,6 km/h (1 Bft)
26.06.2016 04:19 13,5 C 13,6 C 95 % 1015,7 hPa 0,0 mm 0,0 km/h (0 Bft) W-SW 252 0 min 0,000 mm 0,0 UV-I 0 W/m 12,7 C 0,0 km/h (0 Bft)
26.06.2016 04:20 13,5 C 13,6 C 95 % 1015,7 hPa 0,0 mm 0,1 km/h (0 Bft) W-SW 252 0 min 0,000 mm 0,0 UV-I 0 W/m 12,7 C 1,6 km/h (1 Bft)
26.06.2016 04:21 13,5 C 13,5 C 95 % 1015,7 hPa 0,2 mm 0,1 km/h (0 Bft) W-SW 252 0 min 0,000 mm 0,0 UV-I 0 W/m 12,7 C 1,6 km/h (1 Bft)
26.06.2016 04:22 13,5 C 13,5 C 95 % 1015,7 hPa 0,0 mm 0,1 km/h (0 Bft) W-SW 252 0 min 0,000 mm 0,0 UV-I 0 W/m 12,7 C 1,6 km/h (1 Bft)
26.06.2016 04:23 13,5 C 13,5 C 95 % 1015,7 hPa 0,0 mm 0,0 km/h (0 Bft) W-SW 252 0 min 0,000 mm 0,0 UV-I 0 W/m 12,7 C 0,0 km/h (0 Bft)
26.06.2016 04:24 13,5 C 13,5 C 95 % 1015,7 hPa 0,0 mm 0,1 km/h (0 Bft) W-SW 252 0 min 0,000 mm 0,0 UV-I 0 W/m 12,7 C 1,6 km/h (1 Bft)
26.06.2016 04:25 13,4 C 13,5 C 96 % 1015,7 hPa 0,0 mm 0,5 km/h (0 Bft) W-SW 252 0 min 0,000 mm 0,0 UV-I 0 W/m 12,8 C 1,6 km/h (1 Bft)
26.06.2016 04:26 13,5 C 13,5 C 96 % 1015,7 hPa 0,0 mm 0,3 km/h (0 Bft) W-SW 252 0 min 0,000 mm 0,0 UV-I 0 W/m 12,9 C 1,6 km/h (1 Bft)
26.06.2016 04:27 13,4 C 13,5 C 96 % 1015,7 hPa 0,0 mm 0,1 km/h (0 Bft) W-SW 252 0 min 0,000 mm 0,0 UV-I 0 W/m 12,8 C 1,6 km/h (1 Bft)
26.06.2016 04:28 13,4 C 13,5 C 95 % 1015,7 hPa 0,0 mm 0,0 km/h (0 Bft) W-SW 252 0 min 0,000 mm 0,0 UV-I 0 W/m 12,6 C 0,0 km/h (0 Bft)
26.06.2016 04:29 13,5 C 13,5 C 95 % 1015,7 hPa 0,0 mm 0,0 km/h (0 Bft) W-SW 252 0 min 0,000 mm 0,0 UV-I 0 W/m 12,7 C 0,0 km/h (0 Bft)
26.06.2016 04:30 13,5 C 13,5 C 96 % 1015,7 hPa 0,0 mm 0,0 km/h (0 Bft) W-SW 252 0 min 0,000 mm 0,0 UV-I 0 W/m 12,9 C 0,0 km/h (0 Bft)
26.06.2016 04:31 13,5 C 13,5 C 96 % 1015,7 hPa 0,2 mm 0,0 km/h (0 Bft) W-SW 252 0 min 0,000 mm 0,0 UV-I 0 W/m 12,9 C 0,0 km/h (0 Bft)
26.06.2016 04:32 13,5 C 13,5 C 96 % 1015,6 hPa 0,0 mm 0,0 km/h (0 Bft) W-SW 252 0 min 0,000 mm 0,0 UV-I 0 W/m 12,9 C 0,0 km/h (0 Bft)
26.06.2016 04:33 13,5 C 13,5 C 96 % 1015,6 hPa 0,0 mm 0,0 km/h (0 Bft) W-SW 252 0 min 0,000 mm 0,0 UV-I 0 W/m 12,9 C 0,0 km/h (0 Bft)
26.06.2016 04:34 13,5 C 13,5 C 96 % 1015,7 hPa 0,0 mm 0,0 km/h (0 Bft) W-SW 252 0 min 0,000 mm 0,0 UV-I 0 W/m 12,9 C 0,0 km/h (0 Bft)
26.06.2016 04:35 13,5 C 13,5 C 96 % 1015,7 hPa 0,0 mm 0,0 km/h (0 Bft) W-SW 252 0 min 0,000 mm 0,0 UV-I 0 W/m 12,9 C 0,0 km/h (0 Bft)
26.06.2016 04:36 13,5 C 13,5 C 96 % 1015,6 hPa 0,0 mm 0,1 km/h (0 Bft) W-SW 252 0 min 0,000 mm 0,0 UV-I 0 W/m 12,9 C 1,6 km/h (1 Bft)
26.06.2016 04:37 13,5 C 13,5 C 96 % 1015,7 hPa 0,0 mm 0,1 km/h (0 Bft) W-SW 252 0 min 0,000 mm 0,0 UV-I 0 W/m 12,9 C 1,6 km/h (1 Bft)
26.06.2016 04:38 13,5 C 13,5 C 96 % 1015,7 hPa 0,0 mm 0,0 km/h (0 Bft) W-SW 252 0 min 0,000 mm 0,0 UV-I 0 W/m 12,9 C 0,0 km/h (0 Bft)
26.06.2016 04:39 13,5 C 13,5 C 96 % 1015,7 hPa 0,0 mm 0,0 km/h (0 Bft) W-SW 252 0 min 0,000 mm 0,0 UV-I 0 W/m 12,9 C 0,0 km/h (0 Bft)
26.06.2016 04:40 13,5 C 13,5 C 96 % 1015,7 hPa 0,0 mm 0,0 km/h (0 Bft) W-SW 252 0 min 0,000 mm 0,0 UV-I 0 W/m 12,9 C 0,0 km/h (0 Bft)
26.06.2016 04:41 13,5 C 13,5 C 96 % 1015,7 hPa 0,0 mm 0,0 km/h (0 Bft) W-SW 252 0 min 0,000 mm 0,0 UV-I 0 W/m 12,9 C 0,0 km/h (0 Bft)
26.06.2016 04:42 13,5 C 13,5 C 96 % 1015,7 hPa 0,0 mm 0,0 km/h (0 Bft) W-SW 252 0 min 0,000 mm 0,0 UV-I 0 W/m 12,9 C 0,0 km/h (0 Bft)
26.06.2016 04:43 13,5 C 13,6 C 96 % 1015,7 hPa 0,0 mm 0,0 km/h (0 Bft) W-SW 252 0 min 0,000 mm 0,0 UV-I 0 W/m 12,9 C 0,0 km/h (0 Bft)
26.06.2016 04:44 13,5 C 13,6 C 96 % 1015,7 hPa 0,0 mm 0,0 km/h (0 Bft) W-SW 252 0 min 0,000 mm 0,0 UV-I 0 W/m 12,9 C 0,0 km/h (0 Bft)
26.06.2016 04:45 13,5 C 13,6 C 96 % 1015,7 hPa 0,0 mm 0,7 km/h (0 Bft) W-SW 252 0 min 0,000 mm 0,0 UV-I 0 W/m 12,9 C 1,6 km/h (1 Bft)
26.06.2016 04:46 13,6 C 13,6 C 96 % 1015,7 hPa 0,0 mm 0,1 km/h (0 Bft) W-SW 252 0 min 0,000 mm 0,0 UV-I 0 W/m 13,0 C 1,6 km/h (1 Bft)
26.06.2016 04:47 13,6 C 13,6 C 96 % 1015,7 hPa 0,2 mm 0,0 km/h (0 Bft) W-SW 252 0 min 0,000 mm 0,0 UV-I 0 W/m 13,0 C 0,0 km/h (0 Bft)
26.06.2016 04:48 13,6 C 13,6 C 96 % 1015,7 hPa 0,0 mm 1,3 km/h (1 Bft) W-SW 252 0 min 0,000 mm 0,0 UV-I 0 W/m 13,0 C 3,2 km/h (1 Bft)
26.06.2016 04:49 13,6 C 13,6 C 96 % 1015,6 hPa 0,0 mm 0,6 km/h (0 Bft) W-SW 252 0 min 0,000 mm 0,0 UV-I 0 W/m 13,0 C 1,6 km/h (1 Bft)
26.06.2016 04:50 13,6 C 13,6 C 96 % 1015,7 hPa 0,0 mm 1,6 km/h (1 Bft) W-SW 252 0 min 0,000 mm 0,0 UV-I 0 W/m 13,0 C 3,2 km/h (1 Bft)
26.06.2016 04:51 13,6 C 13,6 C 96 % 1015,7 hPa 0,0 mm 0,0 km/h (0 Bft) W-SW 247 0 min 0,000 mm 0,0 UV-I 0 W/m 13,0 C 1,6 km/h (1 Bft)
26.06.2016 04:52 13,6 C 13,6 C 96 % 1015,6 hPa 0,0 mm 1,6 km/h (1 Bft) W-SW 247 0 min 0,000 mm 0,0 UV-I 0 W/m 13,0 C 1,6 km/h (1 Bft)
26.06.2016 04:53 13,6 C 13,6 C 96 % 1015,6 hPa 0,0 mm 1,6 km/h (1 Bft) W-SW 247 0 min 0,000 mm 0,0 UV-I 0 W/m 13,0 C 3,2 km/h (1 Bft)
26.06.2016 04:54 13,6 C 13,6 C 96 % 1015,6 hPa 0,0 mm 3,2 km/h (1 Bft) W 270 0 min 0,000 mm 0,0 UV-I 0 W/m 13,0 C 4,8 km/h (1 Bft)
26.06.2016 04:55 13,6 C 13,6 C 96 % 1015,7 hPa 0,0 mm 3,2 km/h (1 Bft) W 270 0 min 0,000 mm 0,0 UV-I 0 W/m 13,0 C 4,8 km/h (1 Bft)
26.06.2016 04:56 13,6 C 13,6 C 96 % 1015,7 hPa 0,0 mm 3,2 km/h (1 Bft) W 270 0 min 0,000 mm 0,0 UV-I 0 W/m 13,0 C 4,8 km/h (1 Bft)
26.06.2016 04:57 13,6 C 13,6 C 96 % 1015,7 hPa 0,0 mm 3,2 km/h (1 Bft) W 270 0 min 0,000 mm 0,0 UV-I 0 W/m 13,0 C 3,2 km/h (1 Bft)
26.06.2016 04:58 13,6 C 13,6 C 96 % 1015,6 hPa 0,0 mm 1,6 km/h (1 Bft) W 270 0 min 0,000 mm 0,0 UV-I 0 W/m 13,0 C 3,2 km/h (1 Bft)
26.06.2016 04:59 13,6 C 13,6 C 96 % 1015,6 hPa 0,0 mm 1,6 km/h (1 Bft) W 270 0 min 0,000 mm 0,0 UV-I 0 W/m 13,0 C 3,2 km/h (1 Bft)
26.06.2016 05:00 13,6 C 13,6 C 96 % 1015,6 hPa 0,0 mm 3,2 km/h (1 Bft) W 270 0 min 0,000 mm 0,0 UV-I 0 W/m 13,0 C 4,8 km/h (1 Bft)
26.06.2016 05:01 13,6 C 13,6 C 96 % 1015,6 hPa 0,0 mm 3,2 km/h (1 Bft) W-NW 292 0 min 0,000 mm 0,0 UV-I 0 W/m 13,0 C 4,8 km/h (1 Bft)
26.06.2016 05:02 13,6 C 13,6 C 96 % 1015,7 hPa 0,0 mm 3,2 km/h (1 Bft) W 270 0 min 0,000 mm 0,0 UV-I 0 W/m 13,0 C 4,8 km/h (1 Bft)
26.06.2016 05:03 13,6 C 13,6 C 95 % 1015,6 hPa 0,0 mm 3,2 km/h (1 Bft) W 270 0 min 0,000 mm 0,0 UV-I 0 W/m 12,8 C 4,8 km/h (1 Bft)
26.06.2016 05:04 13,5 C 13,6 C 95 % 1015,6 hPa 0,0 mm 3,2 km/h (1 Bft) W 270 0 min 0,000 mm 0,0 UV-I 0 W/m 12,7 C 4,8 km/h (1 Bft)
26.06.2016 05:05 13,5 C 13,5 C 95 % 1015,7 hPa 0,0 mm 1,6 km/h (1 Bft) W 270 0 min 0,000 mm 0,0 UV-I 0 W/m 12,7 C 3,2 km/h (1 Bft)
26.06.2016 05:06 13,5 C 13,5 C 95 % 1015,7 hPa 0,0 mm 1,6 km/h (1 Bft) W 270 0 min 0,000 mm 0,0 UV-I 0 W/m 12,7 C 3,2 km/h (1 Bft)
26.06.2016 05:07 13,5 C 13,5 C 96 % 1015,7 hPa 0,0 mm 3,2 km/h (1 Bft) W 270 0 min 0,000 mm 0,0 UV-I 0 W/m 12,9 C 4,8 km/h (1 Bft)
26.06.2016 05:08 13,5 C 13,5 C 96 % 1015,7 hPa 0,0 mm 1,6 km/h (1 Bft) W 270 0 min 0,000 mm 0,0 UV-I 0 W/m 12,9 C 3,2 km/h (1 Bft)
26.06.2016 05:09 13,4 C 13,5 C 96 % 1015,7 hPa 0,0 mm 1,6 km/h (1 Bft) W 270 0 min 0,000 mm 0,0 UV-I 0 W/m 12,8 C 3,2 km/h (1 Bft)
26.06.2016 05:10 13,4 C 13,5 C 96 % 1015,7 hPa 0,0 mm 3,2 km/h (1 Bft) W 270 0 min 0,000 mm 0,0 UV-I 0 W/m 12,8 C 3,2 km/h (1 Bft)
26.06.2016 05:11 13,4 C 13,4 C 95 % 1015,7 hPa 0,0 mm 3,2 km/h (1 Bft) W-NW 292 0 min 0,000 mm 0,0 UV-I 0 W/m 12,6 C 3,2 km/h (1 Bft)
26.06.2016 05:12 13,4 C 13,4 C 96 % 1015,7 hPa 0,0 mm 1,6 km/h (1 Bft) W-NW 292 0 min 0,000 mm 0,0 UV-I 0 W/m 12,8 C 3,2 km/h (1 Bft)
26.06.2016 05:13 13,4 C 13,4 C 96 % 1015,7 hPa 0,0 mm 1,6 km/h (1 Bft) W-NW 292 0 min 0,000 mm 0,0 UV-I 0 W/m 12,8 C 4,8 km/h (1 Bft)
26.06.2016 05:14 13,4 C 13,4 C 96 % 1015,7 hPa 0,0 mm 1,6 km/h (1 Bft) W 270 0 min 0,000 mm 0,0 UV-I 0 W/m 12,8 C 3,2 km/h (1 Bft)
26.06.2016 05:15 13,4 C 13,4 C 96 % 1015,8 hPa 0,0 mm 1,6 km/h (1 Bft) W 270 0 min 0,000 mm 0,0 UV-I 0 W/m 12,8 C 3,2 km/h (1 Bft)
26.06.2016 05:16 13,4 C 13,4 C 96 % 1015,7 hPa 0,0 mm 1,6 km/h (1 Bft) W 270 0 min 0,000 mm 0,0 UV-I 0 W/m 12,8 C 3,2 km/h (1 Bft)
26.06.2016 05:17 13,4 C 13,4 C 96 % 1015,8 hPa 0,0 mm 1,6 km/h (1 Bft) W 270 0 min 0,000 mm 0,0 UV-I 0 W/m 12,8 C 3,2 km/h (1 Bft)
26.06.2016 05:18 13,4 C 13,4 C 96 % 1015,8 hPa 0,0 mm 1,6 km/h (1 Bft) W 270 0 min 0,000 mm 0,0 UV-I 0 W/m 12,8 C 3,2 km/h (1 Bft)
26.06.2016 05:19 13,4 C 13,4 C 96 % 1015,8 hPa 0,0 mm 1,6 km/h (1 Bft) W 270 0 min 0,000 mm 0,0 UV-I 0 W/m 12,8 C 3,2 km/h (1 Bft)
26.06.2016 05:20 13,4 C 13,4 C 96 % 1015,8 hPa 0,0 mm 1,6 km/h (1 Bft) W 270 0 min 0,000 mm 0,0 UV-I 0 W/m 12,8 C 1,6 km/h (1 Bft)
26.06.2016 05:21 13,4 C 13,4 C 96 % 1015,8 hPa 0,0 mm 1,6 km/h (1 Bft) W 270 0 min 0,000 mm 0,0 UV-I 0 W/m 12,8 C 3,2 km/h (1 Bft)
26.06.2016 05:22 13,3 C 13,4 C 96 % 1015,8 hPa 0,0 mm 1,6 km/h (1 Bft) W 270 0 min 0,000 mm 0,0 UV-I 0 W/m 12,7 C 1,6 km/h (1 Bft)
26.06.2016 05:23 13,3 C 13,4 C 96 % 1015,8 hPa 0,0 mm 1,6 km/h (1 Bft) W 270 0 min 0,000 mm 0,0 UV-I 0 W/m 12,7 C 1,6 km/h (1 Bft)
26.06.2016 05:24 13,4 C 13,4 C 96 % 1015,8 hPa 0,0 mm 0,0 km/h (0 Bft) W 270 0 min 0,000 mm 0,0 UV-I 0 W/m 12,8 C 1,6 km/h (1 Bft)
26.06.2016 05:25 13,3 C 13,3 C 96 % 1015,8 hPa 0,0 mm 0,0 km/h (0 Bft) W 270 0 min 0,000 mm 0,0 UV-I 0 W/m 12,7 C 1,6 km/h (1 Bft)
26.06.2016 05:26 13,4 C 13,4 C 96 % 1015,8 hPa 0,0 mm 1,6 km/h (1 Bft) W 270 0 min 0,000 mm 0,0 UV-I 0 W/m 12,8 C 3,2 km/h (1 Bft)
26.06.2016 05:27 13,4 C 13,4 C 96 % 1015,9 hPa 0,0 mm 1,6 km/h (1 Bft) W 270 0 min 0,000 mm 0,0 UV-I 0 W/m 12,8 C 3,2 km/h (1 Bft)
26.06.2016 05:28 13,4 C 13,4 C 96 % 1015,9 hPa 0,0 mm 0,0 km/h (0 Bft) W 270 0 min 0,000 mm 0,0 UV-I 0 W/m 12,8 C 1,6 km/h (1 Bft)
26.06.2016 05:29 13,3 C 13,3 C 96 % 1015,9 hPa 0,0 mm 0,0 km/h (0 Bft) W 270 0 min 0,000 mm 0,0 UV-I 0 W/m 12,7 C 1,6 km/h (1 Bft)
26.06.2016 05:30 13,3 C 13,3 C 96 % 1015,9 hPa 0,2 mm 0,0 km/h (0 Bft) W 270 0 min 0,000 mm 0,0 UV-I 0 W/m 12,7 C 1,6 km/h (1 Bft)
26.06.2016 05:31 13,3 C 13,3 C 96 % 1015,9 hPa 0,0 mm 0,0 km/h (0 Bft) W 270 0 min 0,000 mm 0,0 UV-I 0 W/m 12,7 C 1,6 km/h (1 Bft)
26.06.2016 05:32 13,3 C 13,3 C 96 % 1015,9 hPa 0,0 mm 0,0 km/h (0 Bft) W 270 0 min 0,000 mm 0,0 UV-I 0 W/m 12,7 C 1,6 km/h (1 Bft)
26.06.2016 05:33 13,3 C 13,3 C 96 % 1015,9 hPa 0,0 mm 0,0 km/h (0 Bft) W 270 0 min 0,000 mm 0,0 UV-I 0 W/m 12,7 C 1,6 km/h (1 Bft)
26.06.2016 05:34 13,3 C 13,3 C 96 % 1015,9 hPa 0,0 mm 0,0 km/h (0 Bft) W 270 0 min 0,000 mm 0,0 UV-I 0 W/m 12,7 C 1,6 km/h (1 Bft)
26.06.2016 05:35 13,3 C 13,3 C 96 % 1016,0 hPa 0,0 mm 0,0 km/h (0 Bft) W 270 0 min 0,000 mm 0,0 UV-I 0 W/m 12,7 C 1,6 km/h (1 Bft)
26.06.2016 05:36 13,3 C 13,3 C 96 % 1016,0 hPa 0,0 mm 0,0 km/h (0 Bft) W 270 0 min 0,000 mm 0,0 UV-I 0 W/m 12,7 C 1,6 km/h (1 Bft)
26.06.2016 05:37 13,4 C 13,4 C 96 % 1016,0 hPa 0,0 mm 1,6 km/h (1 Bft) W-SW 247 0 min 0,000 mm 0,0 UV-I 0 W/m 12,8 C 3,2 km/h (1 Bft)
26.06.2016 05:38 13,3 C 13,4 C 96 % 1016,0 hPa 0,0 mm 1,6 km/h (1 Bft) W-SW 247 0 min 0,000 mm 0,0 UV-I 0 W/m 12,7 C 1,6 km/h (1 Bft)
26.06.2016 05:39 13,3 C 13,3 C 96 % 1016,0 hPa 0,0 mm 1,6 km/h (1 Bft) W-SW 247 0 min 0,000 mm 0,0 UV-I 0 W/m 12,7 C 1,6 km/h (1 Bft)
26.06.2016 05:40 13,3 C 13,3 C 96 % 1016,1 hPa 0,0 mm 1,6 km/h (1 Bft) W-SW 247 0 min 0,000 mm 0,0 UV-I 0 W/m 12,7 C 1,6 km/h (1 Bft)
26.06.2016 05:41 13,3 C 13,3 C 96 % 1016,1 hPa 0,0 mm 1,6 km/h (1 Bft) W-SW 247 0 min 0,000 mm 0,0 UV-I 0 W/m 12,7 C 3,2 km/h (1 Bft)
26.06.2016 05:42 13,3 C 13,3 C 95 % 1016,1 hPa 0,0 mm 1,6 km/h (1 Bft) W-SW 247 0 min 0,000 mm 0,0 UV-I 0 W/m 12,5 C 3,2 km/h (1 Bft)
26.06.2016 05:43 13,3 C 13,3 C 96 % 1016,1 hPa 0,0 mm 1,6 km/h (1 Bft) W-SW 247 0 min 0,000 mm 0,0 UV-I 0 W/m 12,7 C 4,8 km/h (1 Bft)
26.06.2016 05:44 13,2 C 13,2 C 95 % 1016,1 hPa 0,0 mm 0,0 km/h (0 Bft) W-SW 247 0 min 0,000 mm 0,0 UV-I 0 W/m 12,4 C 1,6 km/h (1 Bft)
26.06.2016 05:45 13,2 C 13,2 C 95 % 1016,2 hPa 0,0 mm 0,0 km/h (0 Bft) W-SW 247 0 min 0,000 mm 0,0 UV-I 0 W/m 12,4 C 1,6 km/h (1 Bft)
26.06.2016 05:46 13,2 C 13,2 C 95 % 1016,2 hPa 0,0 mm 0,0 km/h (0 Bft) W-SW 247 0 min 0,000 mm 0,0 UV-I 0 W/m 12,4 C 1,6 km/h (1 Bft)
26.06.2016 05:47 13,2 C 13,2 C 95 % 1016,2 hPa 0,0 mm 0,0 km/h (0 Bft) N 0 0 min 0,000 mm 0,0 UV-I 0 W/m 12,4 C 0,0 km/h (0 Bft)
26.06.2016 05:48 13,2 C 13,2 C 95 % 1016,2 hPa 0,0 mm 0,0 km/h (0 Bft) W-SW 247 0 min 0,000 mm 0,0 UV-I 0 W/m 12,4 C 1,6 km/h (1 Bft)
26.06.2016 05:49 13,2 C 13,2 C 96 % 1016,1 hPa 0,0 mm 0,0 km/h (0 Bft) W-SW 247 0 min 0,000 mm 0,0 UV-I 0 W/m 12,6 C 1,6 km/h (1 Bft)
26.06.2016 05:50 13,2 C 13,2 C 96 % 1016,2 hPa 0,0 mm 0,0 km/h (0 Bft) W-SW 247 0 min 0,000 mm 0,0 UV-I 0 W/m 12,6 C 1,6 km/h (1 Bft)
26.06.2016 05:51 13,2 C 13,2 C 96 % 1016,2 hPa 0,2 mm 0,0 km/h (0 Bft) W-SW 247 0 min 0,000 mm 0,0 UV-I 0 W/m 12,6 C 1,6 km/h (1 Bft)
26.06.2016 05:52 13,2 C 13,2 C 96 % 1016,2 hPa 0,0 mm 0,0 km/h (0 Bft) W-SW 247 0 min 0,000 mm 0,0 UV-I 5 W/m 12,6 C 1,6 km/h (1 Bft)
26.06.2016 05:53 13,2 C 13,2 C 96 % 1016,2 hPa 0,0 mm 0,0 km/h (0 Bft) W-SW 247 0 min 0,000 mm 0,0 UV-I 5 W/m 12,6 C 1,6 km/h (1 Bft)
26.06.2016 05:54 13,2 C 13,2 C 96 % 1016,2 hPa 0,0 mm 0,0 km/h (0 Bft) N 0 0 min 0,000 mm 0,0 UV-I 5 W/m 12,6 C 0,0 km/h (0 Bft)
26.06.2016 05:55 13,2 C 13,2 C 96 % 1016,2 hPa 0,0 mm 0,0 km/h (0 Bft) N 0 0 min 0,000 mm 0,0 UV-I 5 W/m 12,6 C 0,0 km/h (0 Bft)
26.06.2016 05:56 13,2 C 13,2 C 96 % 1016,1 hPa 0,0 mm 0,0 km/h (0 Bft) N 0 0 min 0,000 mm 0,0 UV-I 5 W/m 12,6 C 0,0 km/h (0 Bft)
26.06.2016 05:57 13,2 C 13,2 C 96 % 1016,2 hPa 0,0 mm 0,0 km/h (0 Bft) W-SW 247 0 min 0,000 mm 0,0 UV-I 7 W/m 12,6 C 1,6 km/h (1 Bft)
26.06.2016 05:58 13,2 C 13,2 C 96 % 1016,2 hPa 0,0 mm 1,6 km/h (1 Bft) W-SW 247 0 min 0,000 mm 0,0 UV-I 7 W/m 12,6 C 3,2 km/h (1 Bft)
26.06.2016 05:59 13,2 C 13,2 C 96 % 1016,2 hPa 0,0 mm 3,2 km/h (1 Bft) W-SW 247 0 min 0,000 mm 0,0 UV-I 7 W/m 12,6 C 6,4 km/h (2 Bft)
26.06.2016 06:00 13,2 C 13,2 C 96 % 1016,2 hPa 0,0 mm 1,6 km/h (1 Bft) W-SW 247 0 min 0,000 mm 0,0 UV-I 7 W/m 12,6 C 3,2 km/h (1 Bft)
26.06.2016 06:01 13,2 C 13,2 C 95 % 1016,2 hPa 0,0 mm 1,6 km/h (1 Bft) W-SW 247 0 min 0,000 mm 0,0 UV-I 7 W/m 12,4 C 1,6 km/h (1 Bft)
26.06.2016 06:02 13,2 C 13,2 C 95 % 1016,2 hPa 0,2 mm 1,6 km/h (1 Bft) W-SW 247 0 min 0,000 mm 0,0 UV-I 7 W/m 12,4 C 1,6 km/h (1 Bft)
26.06.2016 06:03 13,2 C 13,2 C 95 % 1016,2 hPa 0,0 mm 1,6 km/h (1 Bft) W-SW 247 0 min 0,000 mm 0,0 UV-I 7 W/m 12,4 C 3,2 km/h (1 Bft)
26.06.2016 06:04 13,2 C 13,2 C 96 % 1016,2 hPa 0,0 mm 1,6 km/h (1 Bft) W 270 0 min 0,000 mm 0,0 UV-I 5 W/m 12,6 C 4,8 km/h (1 Bft)
26.06.2016 06:05 13,2 C 13,2 C 96 % 1016,2 hPa 0,0 mm 1,6 km/h (1 Bft) W 270 0 min 0,000 mm 0,0 UV-I 5 W/m 12,6 C 1,6 km/h (1 Bft)
26.06.2016 06:06 13,2 C 13,2 C 96 % 1016,2 hPa 0,0 mm 1,6 km/h (1 Bft) W 270 0 min 0,000 mm 0,0 UV-I 5 W/m 12,6 C 1,6 km/h (1 Bft)
26.06.2016 06:07 13,2 C 13,2 C 96 % 1016,2 hPa 0,0 mm 1,6 km/h (1 Bft) W 270 0 min 0,000 mm 0,0 UV-I 5 W/m 12,6 C 3,2 km/h (1 Bft)
26.06.2016 06:08 13,2 C 13,2 C 96 % 1016,2 hPa 0,0 mm 1,6 km/h (1 Bft) W-SW 247 0 min 0,000 mm 0,0 UV-I 5 W/m 12,6 C 3,2 km/h (1 Bft)
26.06.2016 06:09 13,2 C 13,2 C 96 % 1016,2 hPa 0,0 mm 1,6 km/h (1 Bft) W-SW 247 0 min 0,000 mm 0,0 UV-I 7 W/m 12,6 C 3,2 km/h (1 Bft)
26.06.2016 06:10 13,2 C 13,2 C 96 % 1016,2 hPa 0,0 mm 1,6 km/h (1 Bft) W-SW 247 0 min 0,000 mm 0,0 UV-I 9 W/m 12,6 C 3,2 km/h (1 Bft)
26.06.2016 06:11 13,2 C 13,2 C 96 % 1016,2 hPa 0,2 mm 1,6 km/h (1 Bft) W-SW 247 0 min 0,000 mm 0,0 UV-I 9 W/m 12,6 C 3,2 km/h (1 Bft)
26.06.2016 06:12 13,2 C 13,2 C 96 % 1016,2 hPa 0,0 mm 1,6 km/h (1 Bft) W-SW 247 0 min 0,000 mm 0,0 UV-I 9 W/m 12,6 C 3,2 km/h (1 Bft)
26.06.2016 06:13 13,2 C 13,2 C 96 % 1016,3 hPa 0,0 mm 1,6 km/h (1 Bft) W-SW 247 0 min 0,000 mm 0,0 UV-I 9 W/m 12,6 C 3,2 km/h (1 Bft)
26.06.2016 06:14 13,2 C 13,2 C 96 % 1016,3 hPa 0,0 mm 1,6 km/h (1 Bft) W-NW 292 0 min 0,000 mm 0,0 UV-I 9 W/m 12,6 C 4,8 km/h (1 Bft)
26.06.2016 06:15 13,2 C 13,2 C 96 % 1016,3 hPa 0,0 mm 1,6 km/h (1 Bft) W-NW 292 0 min 0,000 mm 0,0 UV-I 9 W/m 12,6 C 3,2 km/h (1 Bft)
26.06.2016 06:16 13,2 C 13,2 C 96 % 1016,3 hPa 0,0 mm 1,6 km/h (1 Bft) W-NW 292 0 min 0,000 mm 0,0 UV-I 7 W/m 12,6 C 3,2 km/h (1 Bft)
26.06.2016 06:17 13,2 C 13,2 C 96 % 1016,3 hPa 0,0 mm 1,6 km/h (1 Bft) W 270 0 min 0,000 mm 0,0 UV-I 7 W/m 12,6 C 3,2 km/h (1 Bft)
26.06.2016 06:18 13,2 C 13,2 C 96 % 1016,2 hPa 0,2 mm 1,6 km/h (1 Bft) W 270 0 min 0,000 mm 0,0 UV-I 9 W/m 12,6 C 3,2 km/h (1 Bft)
26.06.2016 06:19 13,2 C 13,2 C 96 % 1016,3 hPa 0,0 mm 0,0 km/h (0 Bft) W 270 0 min 0,000 mm 0,0 UV-I 9 W/m 12,6 C 1,6 km/h (1 Bft)
26.06.2016 06:20 13,2 C 13,2 C 96 % 1016,3 hPa 0,0 mm 1,6 km/h (1 Bft) W 270 0 min 0,000 mm 0,0 UV-I 11 W/m 12,6 C 4,8 km/h (1 Bft)
26.06.2016 06:21 13,2 C 13,2 C 96 % 1016,3 hPa 0,0 mm 1,6 km/h (1 Bft) W 270 0 min 0,000 mm 0,0 UV-I 12 W/m 12,6 C 1,6 km/h (1 Bft)
26.06.2016 06:22 13,2 C 13,2 C 96 % 1016,3 hPa 0,0 mm 1,6 km/h (1 Bft) W 270 0 min 0,000 mm 0,0 UV-I 14 W/m 12,6 C 3,2 km/h (1 Bft)
26.06.2016 06:23 13,2 C 13,2 C 96 % 1016,3 hPa 0,0 mm 1,6 km/h (1 Bft) W 270 0 min 0,000 mm 0,0 UV-I 14 W/m 12,6 C 3,2 km/h (1 Bft)
26.06.2016 06:24 13,1 C 13,2 C 96 % 1016,3 hPa 0,0 mm 3,2 km/h (1 Bft) W 270 0 min 0,000 mm 0,0 UV-I 12 W/m 12,5 C 4,8 km/h (1 Bft)
26.06.2016 06:25 13,1 C 13,2 C 96 % 1016,3 hPa 0,0 mm 3,2 km/h (1 Bft) W 270 0 min 0,000 mm 0,0 UV-I 12 W/m 12,5 C 6,4 km/h (2 Bft)
26.06.2016 06:26 13,1 C 13,2 C 96 % 1016,3 hPa 0,0 mm 3,2 km/h (1 Bft) W 270 0 min 0,000 mm 0,0 UV-I 12 W/m 12,5 C 3,2 km/h (1 Bft)
26.06.2016 06:27 13,2 C 13,2 C 96 % 1016,3 hPa 0,0 mm 4,8 km/h (1 Bft) W-NW 292 0 min 0,000 mm 0,0 UV-I 12 W/m 12,6 C 6,4 km/h (2 Bft)
26.06.2016 06:28 13,1 C 13,2 C 96 % 1016,3 hPa 0,2 mm 3,2 km/h (1 Bft) W-NW 292 0 min 0,000 mm 0,0 UV-I 14 W/m 12,5 C 4,8 km/h (1 Bft)
26.06.2016 06:29 13,1 C 13,1 C 96 % 1016,3 hPa 0,0 mm 3,2 km/h (1 Bft) W 270 0 min 0,000 mm 0,0 UV-I 14 W/m 12,5 C 4,8 km/h (1 Bft)
26.06.2016 06:30 13,1 C 13,1 C 96 % 1016,3 hPa 0,0 mm 4,8 km/h (1 Bft) W-SW 247 0 min 0,000 mm 0,0 UV-I 12 W/m 12,5 C 4,8 km/h (1 Bft)
26.06.2016 06:31 13,1 C 13,1 C 96 % 1016,3 hPa 0,0 mm 3,2 km/h (1 Bft) W 270 0 min 0,000 mm 0,0 UV-I 14 W/m 12,5 C 4,8 km/h (1 Bft)
26.06.2016 06:32 13,1 C 13,1 C 96 % 1016,4 hPa 0,0 mm 1,6 km/h (1 Bft) W 270 0 min 0,000 mm 0,0 UV-I 16 W/m 12,5 C 3,2 km/h (1 Bft)
26.06.2016 06:33 13,1 C 13,1 C 96 % 1016,3 hPa 0,0 mm 1,6 km/h (1 Bft) W 270 0 min 0,000 mm 0,0 UV-I 19 W/m 12,5 C 6,4 km/h (2 Bft)
26.06.2016 06:34 13,1 C 13,1 C 96 % 1016,4 hPa 0,0 mm 6,4 km/h (2 Bft) W 270 0 min 0,000 mm 0,0 UV-I 21 W/m 12,5 C 11,3 km/h (2 Bft)
26.06.2016 06:35 13,1 C 13,1 C 96 % 1016,3 hPa 0,0 mm 4,8 km/h (1 Bft) W 270 0 min 0,000 mm 0,0 UV-I 21 W/m 12,5 C 11,3 km/h (2 Bft)
26.06.2016 06:36 13,1 C 13,1 C 96 % 1016,4 hPa 0,0 mm 4,8 km/h (1 Bft) W 270 0 min 0,000 mm 0,0 UV-I 21 W/m 12,5 C 9,7 km/h (2 Bft)
26.06.2016 06:37 13,1 C 13,1 C 96 % 1016,4 hPa 0,0 mm 6,4 km/h (2 Bft) W 270 0 min 0,000 mm 0,0 UV-I 23 W/m 12,5 C 11,3 km/h (2 Bft)
26.06.2016 06:38 13,1 C 13,1 C 96 % 1016,4 hPa 0,0 mm 3,2 km/h (1 Bft) W 270 0 min 0,000 mm 0,0 UV-I 23 W/m 12,5 C 6,4 km/h (2 Bft)
26.06.2016 06:39 13,1 C 13,1 C 96 % 1016,4 hPa 0,0 mm 3,2 km/h (1 Bft) W-SW 247 0 min 0,000 mm 0,0 UV-I 21 W/m 12,5 C 4,8 km/h (1 Bft)
26.06.2016 06:40 13,0 C 13,1 C 95 % 1016,4 hPa 0,0 mm 3,2 km/h (1 Bft) W 270 0 min 0,000 mm 0,0 UV-I 21 W/m 12,2 C 4,8 km/h (1 Bft)
26.06.2016 06:41 13,1 C 13,1 C 95 % 1016,4 hPa 0,0 mm 6,4 km/h (2 Bft) W 270 0 min 0,000 mm 0,0 UV-I 21 W/m 12,3 C 9,7 km/h (2 Bft)
26.06.2016 06:42 13,1 C 13,1 C 96 % 1016,4 hPa 0,0 mm 4,8 km/h (1 Bft) W-NW 292 0 min 0,000 mm 0,0 UV-I 21 W/m 12,5 C 8,0 km/h (2 Bft)
26.06.2016 06:43 13,1 C 13,1 C 96 % 1016,4 hPa 0,0 mm 3,2 km/h (1 Bft) W 270 0 min 0,000 mm 0,0 UV-I 21 W/m 12,5 C 4,8 km/h (1 Bft)
26.06.2016 06:44 13,1 C 13,1 C 96 % 1016,4 hPa 0,0 mm 3,2 km/h (1 Bft) W-NW 292 0 min 0,000 mm 0,0 UV-I 23 W/m 12,5 C 4,8 km/h (1 Bft)
26.06.2016 06:45 13,1 C 13,1 C 96 % 1016,4 hPa 0,0 mm 1,6 km/h (1 Bft) W 270 0 min 0,000 mm 0,0 UV-I 25 W/m 12,5 C 1,6 km/h (1 Bft)
26.06.2016 06:46 13,1 C 13,1 C 96 % 1016,4 hPa 0,0 mm 3,2 km/h (1 Bft) W 270 0 min 0,000 mm 0,0 UV-I 25 W/m 12,5 C 6,4 km/h (2 Bft)
26.06.2016 06:47 13,1 C 13,1 C 96 % 1016,4 hPa 0,0 mm 3,2 km/h (1 Bft) W 270 0 min 0,000 mm 0,0 UV-I 25 W/m 12,5 C 6,4 km/h (2 Bft)
26.06.2016 06:48 13,1 C 13,1 C 96 % 1016,4 hPa 0,0 mm 4,8 km/h (1 Bft) W 270 0 min 0,000 mm 0,0 UV-I 26 W/m 12,5 C 6,4 km/h (2 Bft)
26.06.2016 06:49 13,1 C 13,1 C 95 % 1016,4 hPa 0,0 mm 3,2 km/h (1 Bft) W 270 0 min 0,000 mm 0,0 UV-I 26 W/m 12,3 C 4,8 km/h (1 Bft)
26.06.2016 06:50 13,1 C 13,1 C 95 % 1016,4 hPa 0,0 mm 3,2 km/h (1 Bft) W 270 0 min 0,000 mm 0,0 UV-I 28 W/m 12,3 C 4,8 km/h (1 Bft)
26.06.2016 06:51 13,1 C 13,1 C 96 % 1016,4 hPa 0,0 mm 3,2 km/h (1 Bft) W 270 0 min 0,000 mm 0,0 UV-I 28 W/m 12,5 C 3,2 km/h (1 Bft)
26.06.2016 06:52 13,1 C 13,1 C 96 % 1016,4 hPa 0,0 mm 3,2 km/h (1 Bft) W 270 0 min 0,000 mm 0,0 UV-I 26 W/m 12,5 C 4,8 km/h (1 Bft)
26.06.2016 06:53 13,1 C 13,1 C 96 % 1016,4 hPa 0,0 mm 1,6 km/h (1 Bft) W 270 0 min 0,000 mm 0,0 UV-I 25 W/m 12,5 C 3,2 km/h (1 Bft)
26.06.2016 06:54 13,1 C 13,1 C 96 % 1016,4 hPa 0,0 mm 3,2 km/h (1 Bft) W 270 0 min 0,000 mm 0,0 UV-I 25 W/m 12,5 C 4,8 km/h (1 Bft)
26.06.2016 06:55 13,1 C 13,1 C 96 % 1016,4 hPa 0,0 mm 3,2 km/h (1 Bft) W 270 0 min 0,000 mm 0,0 UV-I 25 W/m 12,5 C 4,8 km/h (1 Bft)
26.06.2016 06:56 13,1 C 13,1 C 96 % 1016,4 hPa 0,0 mm 1,6 km/h (1 Bft) W 270 0 min 0,000 mm 0,0 UV-I 23 W/m 12,5 C 3,2 km/h (1 Bft)
26.06.2016 06:57 13,1 C 13,1 C 96 % 1016,4 hPa 0,0 mm 3,2 km/h (1 Bft) W 270 0 min 0,000 mm 0,0 UV-I 28 W/m 12,5 C 4,8 km/h (1 Bft)
26.06.2016 06:58 13,1 C 13,1 C 96 % 1016,5 hPa 0,0 mm 1,6 km/h (1 Bft) W 270 0 min 0,000 mm 0,0 UV-I 32 W/m 12,5 C 3,2 km/h (1 Bft)
26.06.2016 06:59 13,1 C 13,1 C 96 % 1016,5 hPa 0,2 mm 1,6 km/h (1 Bft) W 270 0 min 0,000 mm 0,0 UV-I 35 W/m 12,5 C 1,6 km/h (1 Bft)
26.06.2016 07:00 13,1 C 13,1 C 96 % 1016,5 hPa 0,0 mm 1,6 km/h (1 Bft) W 270 0 min 0,000 mm 0,0 UV-I 39 W/m 12,5 C 3,2 km/h (1 Bft)
26.06.2016 07:01 13,1 C 13,1 C 96 % 1016,5 hPa 0,0 mm 0,0 km/h (0 Bft) W 270 0 min 0,000 mm 0,0 UV-I 42 W/m 12,5 C 1,6 km/h (1 Bft)
26.06.2016 07:02 13,1 C 13,1 C 96 % 1016,5 hPa 0,0 mm 1,6 km/h (1 Bft) W 270 0 min 0,000 mm 0,0 UV-I 46 W/m 12,5 C 1,6 km/h (1 Bft)
26.06.2016 07:03 13,1 C 13,1 C 96 % 1016,5 hPa 0,0 mm 0,0 km/h (0 Bft) W 270 0 min 0,000 mm 0,0 UV-I 47 W/m 12,5 C 1,6 km/h (1 Bft)
26.06.2016 07:04 13,1 C 13,1 C 96 % 1016,5 hPa 0,0 mm 1,6 km/h (1 Bft) W 270 0 min 0,000 mm 0,0 UV-I 47 W/m 12,5 C 3,2 km/h (1 Bft)
26.06.2016 07:05 13,1 C 13,1 C 96 % 1016,5 hPa 0,0 mm 1,6 km/h (1 Bft) W 270 0 min 0,000 mm 0,0 UV-I 47 W/m 12,5 C 1,6 km/h (1 Bft)
26.06.2016 07:06 13,2 C 13,2 C 96 % 1016,5 hPa 0,0 mm 3,2 km/h (1 Bft) W-SW 247 0 min 0,000 mm 0,0 UV-I 46 W/m 12,6 C 4,8 km/h (1 Bft)
26.06.2016 07:07 13,1 C 13,1 C 95 % 1016,5 hPa 0,0 mm 3,2 km/h (1 Bft) W 270 0 min 0,000 mm 0,0 UV-I 42 W/m 12,3 C 4,8 km/h (1 Bft)
26.06.2016 07:08 13,1 C 13,2 C 95 % 1016,5 hPa 0,0 mm 3,2 km/h (1 Bft) W 270 0 min 0,000 mm 0,0 UV-I 39 W/m 12,3 C 3,2 km/h (1 Bft)
26.06.2016 07:09 13,2 C 13,2 C 95 % 1016,5 hPa 0,0 mm 1,6 km/h (1 Bft) W 270 0 min 0,000 mm 0,0 UV-I 37 W/m 12,4 C 3,2 km/h (1 Bft)
26.06.2016 07:10 13,2 C 13,2 C 96 % 1016,5 hPa 0,0 mm 1,6 km/h (1 Bft) W-NW 292 0 min 0,000 mm 0,0 UV-I 33 W/m 12,6 C 3,2 km/h (1 Bft)
26.06.2016 07:11 13,2 C 13,2 C 95 % 1016,5 hPa 0,0 mm 1,6 km/h (1 Bft) W-NW 292 0 min 0,000 mm 0,0 UV-I 30 W/m 12,4 C 1,6 km/h (1 Bft)
26.06.2016 07:12 13,1 C 13,2 C 95 % 1016,5 hPa 0,0 mm 3,2 km/h (1 Bft) W-NW 292 0 min 0,000 mm 0,0 UV-I 30 W/m 12,3 C 4,8 km/h (1 Bft)
26.06.2016 07:13 13,1 C 13,2 C 95 % 1016,4 hPa 0,0 mm 3,2 km/h (1 Bft) W-NW 292 0 min 0,000 mm 0,0 UV-I 33 W/m 12,3 C 6,4 km/h (2 Bft)
26.06.2016 07:14 13,2 C 13,2 C 95 % 1016,4 hPa 0,0 mm 3,2 km/h (1 Bft) W 270 0 min 0,000 mm 0,0 UV-I 35 W/m 12,4 C 4,8 km/h (1 Bft)
26.06.2016 07:15 13,1 C 13,1 C 95 % 1016,4 hPa 0,0 mm 1,6 km/h (1 Bft) W 270 0 min 0,000 mm 0,0 UV-I 33 W/m 12,3 C 3,2 km/h (1 Bft)
26.06.2016 07:16 13,1 C 13,1 C 95 % 1016,4 hPa 0,0 mm 1,6 km/h (1 Bft) W 270 0 min 0,000 mm 0,0 UV-I 33 W/m 12,3 C 3,2 km/h (1 Bft)
26.06.2016 07:17 13,1 C 13,1 C 95 % 1016,4 hPa 0,0 mm 1,6 km/h (1 Bft) W 270 0 min 0,000 mm 0,0 UV-I 35 W/m 12,3 C 3,2 km/h (1 Bft)
26.06.2016 07:18 13,1 C 13,1 C 95 % 1016,4 hPa 0,0 mm 3,2 km/h (1 Bft) W 270 0 min 0,000 mm 0,0 UV-I 37 W/m 12,3 C 4,8 km/h (1 Bft)
26.06.2016 07:19 13,1 C 13,1 C 95 % 1016,4 hPa 0,0 mm 4,8 km/h (1 Bft) W-NW 292 0 min 0,000 mm 0,0 UV-I 40 W/m 12,3 C 6,4 km/h (2 Bft)
26.06.2016 07:20 13,1 C 13,1 C 95 % 1016,4 hPa 0,0 mm 3,2 km/h (1 Bft) W-NW 292 0 min 0,000 mm 0,0 UV-I 40 W/m 12,3 C 4,8 km/h (1 Bft)
26.06.2016 07:21 13,1 C 13,1 C 95 % 1016,4 hPa 0,0 mm 1,6 km/h (1 Bft) W-NW 292 0 min 0,000 mm 0,0 UV-I 39 W/m 12,3 C 3,2 km/h (1 Bft)
26.06.2016 07:22 13,1 C 13,1 C 95 % 1016,5 hPa 0,0 mm 4,8 km/h (1 Bft) W-NW 292 0 min 0,000 mm 0,0 UV-I 39 W/m 12,3 C 6,4 km/h (2 Bft)
26.06.2016 07:23 13,1 C 13,1 C 94 % 1016,4 hPa 0,0 mm 3,2 km/h (1 Bft) W-NW 292 0 min 0,000 mm 0,0 UV-I 39 W/m 12,2 C 4,8 km/h (1 Bft)
26.06.2016 07:24 13,1 C 13,1 C 94 % 1016,4 hPa 0,0 mm 3,2 km/h (1 Bft) W-NW 292 0 min 0,000 mm 0,0 UV-I 40 W/m 12,2 C 4,8 km/h (1 Bft)
26.06.2016 07:25 13,1 C 13,1 C 94 % 1016,5 hPa 0,0 mm 3,2 km/h (1 Bft) NW 315 0 min 0,000 mm 0,0 UV-I 42 W/m 12,2 C 4,8 km/h (1 Bft)
26.06.2016 07:26 13,1 C 13,1 C 94 % 1016,4 hPa 0,0 mm 1,6 km/h (1 Bft) NW 315 0 min 0,000 mm 0,0 UV-I 44 W/m 12,2 C 3,2 km/h (1 Bft)
26.06.2016 07:27 13,1 C 13,1 C 94 % 1016,5 hPa 0,0 mm 1,6 km/h (1 Bft) W-NW 292 0 min 0,000 mm 0,0 UV-I 44 W/m 12,2 C 3,2 km/h (1 Bft)
26.06.2016 07:28 13,1 C 13,1 C 94 % 1016,4 hPa 0,0 mm 0,0 km/h (0 Bft) W-NW 292 0 min 0,000 mm 0,0 UV-I 42 W/m 12,2 C 1,6 km/h (1 Bft)
26.06.2016 07:29 13,1 C 13,1 C 94 % 1016,5 hPa 0,0 mm 3,2 km/h (1 Bft) W-NW 292 0 min 0,000 mm 0,0 UV-I 42 W/m 12,2 C 4,8 km/h (1 Bft)
26.06.2016 07:30 13,0 C 13,1 C 94 % 1016,5 hPa 0,0 mm 3,2 km/h (1 Bft) W-NW 292 0 min 0,000 mm 0,0 UV-I 40 W/m 12,1 C 4,8 km/h (1 Bft)
26.06.2016 07:31 13,0 C 13,1 C 94 % 1016,5 hPa 0,0 mm 3,2 km/h (1 Bft) W-NW 292 0 min 0,000 mm 0,0 UV-I 40 W/m 12,1 C 3,2 km/h (1 Bft)
26.06.2016 07:32 12,9 C 13,0 C 94 % 1016,5 hPa 0,0 mm 1,6 km/h (1 Bft) W-NW 292 0 min 0,000 mm 0,0 UV-I 39 W/m 12,0 C 3,2 km/h (1 Bft)
26.06.2016 07:33 13,0 C 13,0 C 94 % 1016,5 hPa 0,0 mm 1,6 km/h (1 Bft) W-NW 292 0 min 0,000 mm 0,0 UV-I 37 W/m 12,1 C 3,2 km/h (1 Bft)
26.06.2016 07:34 12,9 C 12,9 C 94 % 1016,5 hPa 0,0 mm 1,6 km/h (1 Bft) N-NW 337 0 min 0,000 mm 0,0 UV-I 37 W/m 12,0 C 3,2 km/h (1 Bft)
26.06.2016 07:35 12,9 C 12,9 C 94 % 1016,6 hPa 0,0 mm 3,2 km/h (1 Bft) NW 315 0 min 0,000 mm 0,0 UV-I 35 W/m 12,0 C 4,8 km/h (1 Bft)
26.06.2016 07:36 12,9 C 12,9 C 94 % 1016,6 hPa 0,0 mm 1,6 km/h (1 Bft) NW 315 0 min 0,000 mm 0,0 UV-I 35 W/m 12,0 C 3,2 km/h (1 Bft)
26.06.2016 07:37 12,9 C 12,9 C 94 % 1016,6 hPa 0,0 mm 3,2 km/h (1 Bft) NW 315 0 min 0,000 mm 0,0 UV-I 37 W/m 12,0 C 4,8 km/h (1 Bft)
26.06.2016 07:38 12,9 C 12,9 C 95 % 1016,6 hPa 0,0 mm 1,6 km/h (1 Bft) NW 315 0 min 0,000 mm 0,0 UV-I 37 W/m 12,1 C 3,2 km/h (1 Bft)
26.06.2016 07:39 13,0 C 13,0 C 95 % 1016,5 hPa 0,0 mm 3,2 km/h (1 Bft) W-NW 292 0 min 0,000 mm 0,0 UV-I 37 W/m 12,2 C 4,8 km/h (1 Bft)
26.06.2016 07:40 12,9 C 12,9 C 95 % 1016,6 hPa 0,0 mm 1,6 km/h (1 Bft) W-NW 292 0 min 0,000 mm 0,0 UV-I 37 W/m 12,1 C 3,2 km/h (1 Bft)
26.06.2016 07:41 12,9 C 12,9 C 94 % 1016,5 hPa 0,0 mm 1,6 km/h (1 Bft) W-NW 292 0 min 0,000 mm 0,0 UV-I 37 W/m 12,0 C 1,6 km/h (1 Bft)
26.06.2016 07:42 12,9 C 12,9 C 95 % 1016,6 hPa 0,0 mm 1,6 km/h (1 Bft) W-NW 292 0 min 0,000 mm 0,0 UV-I 37 W/m 12,1 C 1,6 km/h (1 Bft)
26.06.2016 07:43 12,9 C 12,9 C 95 % 1016,5 hPa 0,0 mm 1,6 km/h (1 Bft) W-NW 292 0 min 0,000 mm 0,0 UV-I 39 W/m 12,1 C 3,2 km/h (1 Bft)
26.06.2016 07:44 12,9 C 12,9 C 95 % 1016,5 hPa 0,0 mm 3,2 km/h (1 Bft) W 270 0 min 0,000 mm 0,0 UV-I 40 W/m 12,1 C 3,2 km/h (1 Bft)
26.06.2016 07:45 12,9 C 12,9 C 95 % 1016,5 hPa 0,0 mm 1,6 km/h (1 Bft) W 270 0 min 0,000 mm 0,0 UV-I 40 W/m 12,1 C 3,2 km/h (1 Bft)
26.06.2016 07:46 12,9 C 12,9 C 95 % 1016,5 hPa 0,0 mm 0,0 km/h (0 Bft) W 270 0 min 0,000 mm 0,0 UV-I 42 W/m 12,1 C 1,6 km/h (1 Bft)
26.06.2016 07:47 12,9 C 12,9 C 95 % 1016,5 hPa 0,0 mm 1,6 km/h (1 Bft) W 270 0 min 0,000 mm 0,0 UV-I 42 W/m 12,1 C 3,2 km/h (1 Bft)
26.06.2016 07:48 12,9 C 12,9 C 95 % 1016,5 hPa 0,0 mm 3,2 km/h (1 Bft) W 270 0 min 0,000 mm 0,0 UV-I 42 W/m 12,1 C 4,8 km/h (1 Bft)
26.06.2016 07:49 12,9 C 12,9 C 95 % 1016,5 hPa 0,0 mm 1,6 km/h (1 Bft) W 270 0 min 0,000 mm 0,0 UV-I 44 W/m 12,1 C 1,6 km/h (1 Bft)
26.06.2016 07:50 12,9 C 12,9 C 95 % 1016,5 hPa 0,0 mm 0,0 km/h (0 Bft) W 270 0 min 0,000 mm 0,0 UV-I 44 W/m 12,1 C 1,6 km/h (1 Bft)
26.06.2016 07:51 12,9 C 12,9 C 95 % 1016,5 hPa 0,0 mm 1,6 km/h (1 Bft) W 270 0 min 0,000 mm 0,0 UV-I 44 W/m 12,1 C 3,2 km/h (1 Bft)
26.06.2016 07:52 13,0 C 13,0 C 96 % 1016,5 hPa 0,0 mm 1,6 km/h (1 Bft) W 270 0 min 0,000 mm 0,0 UV-I 42 W/m 12,4 C 3,2 km/h (1 Bft)
26.06.2016 07:54 13,1 C 13,1 C 95 % 1016,5 hPa 0,0 mm 2,6 km/h (1 Bft) W 266 0 min 0,000 mm 0,0 UV-I 40 W/m 12,3 C 3,2 km/h (1 Bft)
26.06.2016 07:55 13,0 C 13,1 C 95 % 1016,6 hPa 0,0 mm 1,2 km/h (1 Bft) W 266 0 min 0,000 mm 0,0 UV-I 40 W/m 12,2 C 3,2 km/h (1 Bft)
26.06.2016 07:56 13,0 C 13,0 C 95 % 1016,6 hPa 0,0 mm 2,7 km/h (1 Bft) W-SW 254 0 min 0,000 mm 0,0 UV-I 40 W/m 12,2 C 4,8 km/h (1 Bft)
26.06.2016 07:57 12,9 C 13,0 C 94 % 1016,6 hPa 0,0 mm 4,6 km/h (1 Bft) W 265 0 min 0,000 mm 0,0 UV-I 42 W/m 12,0 C 6,4 km/h (2 Bft)
26.06.2016 07:58 12,9 C 12,9 C 94 % 1016,6 hPa 0,0 mm 3,1 km/h (1 Bft) W-SW 246 0 min 0,000 mm 0,0 UV-I 42 W/m 12,0 C 4,8 km/h (1 Bft)
26.06.2016 07:59 12,9 C 12,9 C 95 % 1016,6 hPa 0,0 mm 1,2 km/h (1 Bft) W-SW 246 0 min 0,000 mm 0,0 UV-I 44 W/m 12,1 C 3,2 km/h (1 Bft)
26.06.2016 08:00 12,9 C 12,9 C 95 % 1016,6 hPa 0,0 mm 2,4 km/h (1 Bft) W-SW 250 0 min 0,000 mm 0,0 UV-I 44 W/m 12,1 C 4,8 km/h (1 Bft)
26.06.2016 08:01 12,9 C 12,9 C 94 % 1016,6 hPa 0,0 mm 1,3 km/h (1 Bft) S-SW 210 0 min 0,025 mm 0,0 UV-I 44 W/m 12,0 C 3,2 km/h (1 Bft)
26.06.2016 08:02 12,9 C 12,9 C 93 % 1016,6 hPa 0,0 mm 2,2 km/h (1 Bft) W-SW 250 0 min 0,000 mm 0,0 UV-I 44 W/m 11,8 C 4,8 km/h (1 Bft)
26.06.2016 08:03 12,8 C 12,9 C 93 % 1016,6 hPa 0,0 mm 1,7 km/h (1 Bft) S-SW 196 0 min 0,000 mm 0,0 UV-I 42 W/m 11,7 C 3,2 km/h (1 Bft)
26.06.2016 08:04 12,8 C 12,8 C 94 % 1016,7 hPa 0,0 mm 2,3 km/h (1 Bft) S-SW 194 0 min 0,000 mm 0,0 UV-I 42 W/m 11,9 C 4,8 km/h (1 Bft)
26.06.2016 08:05 12,8 C 12,8 C 94 % 1016,6 hPa 0,0 mm 1,5 km/h (1 Bft) S-SO 163 0 min 0,000 mm 0,0 UV-I 40 W/m 11,9 C 3,2 km/h (1 Bft)
26.06.2016 08:06 12,8 C 12,8 C 94 % 1016,6 hPa 0,0 mm 2,3 km/h (1 Bft) S 177 0 min 0,000 mm 0,0 UV-I 39 W/m 11,9 C 4,8 km/h (1 Bft)
26.06.2016 08:07 12,8 C 12,8 C 94 % 1016,6 hPa 0,0 mm 4,2 km/h (1 Bft) S 186 0 min 0,000 mm 0,0 UV-I 39 W/m 11,9 C 6,4 km/h (2 Bft)
26.06.2016 08:08 12,8 C 12,8 C 94 % 1016,6 hPa 0,0 mm 4,3 km/h (1 Bft) S 180 0 min 0,000 mm 0,0 UV-I 39 W/m 11,9 C 4,8 km/h (1 Bft)
26.06.2016 08:09 12,8 C 12,8 C 94 % 1016,6 hPa 0,0 mm 4,3 km/h (1 Bft) S 175 0 min 0,000 mm 0,0 UV-I 40 W/m 11,9 C 8,0 km/h (2 Bft)
26.06.2016 08:10 12,8 C 12,8 C 94 % 1016,6 hPa 0,0 mm 1,0 km/h (0 Bft) S 175 0 min 0,000 mm 0,0 UV-I 42 W/m 11,9 C 1,6 km/h (1 Bft)
26.06.2016 08:11 12,8 C 12,8 C 94 % 1016,6 hPa 0,0 mm 0,8 km/h (0 Bft) S 175 0 min 0,000 mm 0,0 UV-I 42 W/m 11,9 C 1,6 km/h (1 Bft)
26.06.2016 08:12 12,8 C 12,8 C 94 % 1016,6 hPa 0,0 mm 1,7 km/h (1 Bft) S 180 0 min 0,000 mm 0,0 UV-I 46 W/m 11,9 C 3,2 km/h (1 Bft)
26.06.2016 08:13 12,8 C 12,8 C 94 % 1016,6 hPa 0,0 mm 1,5 km/h (1 Bft) S 180 0 min 0,000 mm 0,0 UV-I 46 W/m 11,9 C 3,2 km/h (1 Bft)
26.06.2016 08:14 12,8 C 12,8 C 94 % 1016,7 hPa 0,0 mm 1,9 km/h (1 Bft) S-SW 213 0 min 0,000 mm 0,0 UV-I 46 W/m 11,9 C 3,2 km/h (1 Bft)
26.06.2016 08:15 12,8 C 12,8 C 94 % 1016,7 hPa 0,0 mm 0,5 km/h (0 Bft) S-SW 213 0 min 0,000 mm 0,0 UV-I 44 W/m 11,9 C 1,6 km/h (1 Bft)
26.06.2016 08:16 12,8 C 12,8 C 94 % 1016,7 hPa 0,0 mm 1,2 km/h (1 Bft) SW 216 0 min 0,000 mm 0,0 UV-I 44 W/m 11,9 C 3,2 km/h (1 Bft)
26.06.2016 08:17 12,8 C 12,8 C 95 % 1016,7 hPa 0,0 mm 0,6 km/h (0 Bft) SW 216 0 min 0,000 mm 0,0 UV-I 44 W/m 12,0 C 1,6 km/h (1 Bft)
26.06.2016 08:18 12,8 C 12,8 C 94 % 1016,7 hPa 0,0 mm 1,7 km/h (1 Bft) SW 216 0 min 0,000 mm 0,0 UV-I 46 W/m 11,9 C 3,2 km/h (1 Bft)
26.06.2016 08:19 12,8 C 12,8 C 94 % 1016,7 hPa 0,0 mm 2,0 km/h (1 Bft) S 175 0 min 0,000 mm 0,0 UV-I 47 W/m 11,9 C 3,2 km/h (1 Bft)
26.06.2016 08:20 12,8 C 12,8 C 94 % 1016,7 hPa 0,0 mm 2,0 km/h (1 Bft) S 178 0 min 0,000 mm 0,0 UV-I 49 W/m 11,9 C 3,2 km/h (1 Bft)
26.06.2016 08:21 12,8 C 12,8 C 94 % 1016,7 hPa 0,0 mm 1,1 km/h (1 Bft) S 178 0 min 0,000 mm 0,0 UV-I 49 W/m 11,9 C 1,6 km/h (1 Bft)
26.06.2016 08:22 12,7 C 12,8 C 94 % 1016,7 hPa 0,0 mm 1,0 km/h (0 Bft) S 180 0 min 0,000 mm 0,0 UV-I 54 W/m 11,8 C 1,6 km/h (1 Bft)
26.06.2016 08:23 12,8 C 12,8 C 95 % 1016,7 hPa 0,2 mm 0,3 km/h (0 Bft) S 180 0 min 0,000 mm 0,0 UV-I 56 W/m 12,0 C 1,6 km/h (1 Bft)
26.06.2016 08:24 12,8 C 12,8 C 95 % 1016,7 hPa 0,0 mm 0,2 km/h (0 Bft) S 180 0 min 0,000 mm 0,5 UV-I 63 W/m 12,0 C 1,6 km/h (1 Bft)
26.06.2016 08:25 12,7 C 12,8 C 94 % 1016,7 hPa 0,0 mm 0,7 km/h (0 Bft) S 191 0 min 0,000 mm 0,5 UV-I 69 W/m 11,8 C 1,6 km/h (1 Bft)
26.06.2016 08:26 12,8 C 12,8 C 95 % 1016,7 hPa 0,0 mm 2,2 km/h (1 Bft) W-SW 252 0 min 0,000 mm 0,5 UV-I 72 W/m 12,0 C 3,2 km/h (1 Bft)
26.06.2016 08:27 12,8 C 12,8 C 95 % 1016,7 hPa 0,0 mm 1,0 km/h (0 Bft) W-SW 250 0 min 0,000 mm 0,6 UV-I 76 W/m 12,0 C 1,6 km/h (1 Bft)
26.06.2016 08:28 12,8 C 12,8 C 95 % 1016,7 hPa 0,0 mm 0,0 km/h (0 Bft) W-SW 250 0 min 0,000 mm 0,6 UV-I 77 W/m 12,0 C 0,0 km/h (0 Bft)
26.06.2016 08:29 12,8 C 12,8 C 95 % 1016,7 hPa 0,0 mm 0,3 km/h (0 Bft) W-SW 250 0 min 0,000 mm 0,6 UV-I 79 W/m 12,0 C 1,6 km/h (1 Bft)
26.06.2016 08:30 12,8 C 12,8 C 95 % 1016,7 hPa 0,0 mm 1,5 km/h (1 Bft) W-SW 240 0 min 0,000 mm 0,6 UV-I 81 W/m 12,0 C 3,2 km/h (1 Bft)
26.06.2016 08:31 12,8 C 12,8 C 95 % 1016,7 hPa 0,0 mm 0,5 km/h (0 Bft) W-SW 240 0 min 0,000 mm 0,6 UV-I 79 W/m 12,0 C 1,6 km/h (1 Bft)
26.06.2016 08:32 12,8 C 12,8 C 95 % 1016,7 hPa 0,0 mm 1,1 km/h (1 Bft) S-SW 198 0 min 0,000 mm 0,6 UV-I 79 W/m 12,0 C 3,2 km/h (1 Bft)
26.06.2016 08:33 12,8 C 12,8 C 95 % 1016,7 hPa 0,2 mm 2,1 km/h (1 Bft) W-SW 242 0 min 0,000 mm 0,6 UV-I 81 W/m 12,0 C 4,8 km/h (1 Bft)
26.06.2016 08:34 12,8 C 12,8 C 95 % 1016,7 hPa 0,0 mm 2,4 km/h (1 Bft) W-SW 257 0 min 0,000 mm 0,6 UV-I 81 W/m 12,0 C 4,8 km/h (1 Bft)
26.06.2016 08:35 12,8 C 12,8 C 95 % 1016,7 hPa 0,0 mm 1,5 km/h (1 Bft) W-SW 257 0 min 0,000 mm 0,6 UV-I 79 W/m 12,0 C 3,2 km/h (1 Bft)
26.06.2016 08:36 12,8 C 12,8 C 95 % 1016,7 hPa 0,0 mm 2,2 km/h (1 Bft) W-SW 258 0 min 0,000 mm 0,6 UV-I 76 W/m 12,0 C 3,2 km/h (1 Bft)
26.06.2016 08:37 12,8 C 12,8 C 95 % 1016,6 hPa 0,0 mm 1,7 km/h (1 Bft) SW 230 0 min 0,000 mm 0,6 UV-I 76 W/m 12,0 C 3,2 km/h (1 Bft)
26.06.2016 08:38 12,9 C 12,9 C 95 % 1016,6 hPa 0,0 mm 4,3 km/h (1 Bft) W-SW 244 0 min 0,000 mm 0,6 UV-I 74 W/m 12,1 C 6,4 km/h (2 Bft)
26.06.2016 08:39 12,9 C 12,9 C 95 % 1016,6 hPa 0,0 mm 1,9 km/h (1 Bft) W-SW 246 0 min 0,000 mm 0,6 UV-I 74 W/m 12,1 C 3,2 km/h (1 Bft)
26.06.2016 08:40 12,9 C 12,9 C 95 % 1016,7 hPa 0,0 mm 1,6 km/h (1 Bft) W-SW 246 0 min 0,000 mm 0,6 UV-I 76 W/m 12,1 C 4,8 km/h (1 Bft)
26.06.2016 08:41 12,9 C 12,9 C 95 % 1016,6 hPa 0,0 mm 3,1 km/h (1 Bft) SW 230 0 min 0,000 mm 0,6 UV-I 81 W/m 12,1 C 4,8 km/h (1 Bft)
26.06.2016 08:42 12,9 C 12,9 C 95 % 1016,7 hPa 0,0 mm 3,2 km/h (1 Bft) SW 223 0 min 0,000 mm 0,6 UV-I 83 W/m 12,1 C 4,8 km/h (1 Bft)
26.06.2016 08:43 12,9 C 12,9 C 95 % 1016,7 hPa 0,0 mm 1,8 km/h (1 Bft) SW 223 0 min 0,000 mm 0,7 UV-I 84 W/m 12,1 C 3,2 km/h (1 Bft)
26.06.2016 08:44 12,9 C 12,9 C 95 % 1016,7 hPa 0,0 mm 2,0 km/h (1 Bft) W 267 0 min 0,000 mm 0,7 UV-I 84 W/m 12,1 C 3,2 km/h (1 Bft)
26.06.2016 08:45 12,9 C 12,9 C 96 % 1016,7 hPa 0,0 mm 2,2 km/h (1 Bft) W 260 0 min 0,000 mm 0,6 UV-I 83 W/m 12,3 C 3,2 km/h (1 Bft)
26.06.2016 08:46 12,9 C 12,9 C 96 % 1016,8 hPa 0,0 mm 2,8 km/h (1 Bft) W-SW 256 0 min 0,000 mm 0,6 UV-I 81 W/m 12,3 C 4,8 km/h (1 Bft)
26.06.2016 08:47 12,9 C 12,9 C 96 % 1016,7 hPa 0,0 mm 3,6 km/h (1 Bft) W-SW 249 0 min 0,000 mm 0,6 UV-I 81 W/m 12,3 C 4,8 km/h (1 Bft)
26.06.2016 08:48 12,9 C 13,0 C 95 % 1016,7 hPa 0,0 mm 1,6 km/h (1 Bft) S-SW 193 0 min 0,000 mm 0,6 UV-I 74 W/m 12,1 C 3,2 km/h (1 Bft)
26.06.2016 08:49 12,9 C 12,9 C 95 % 1016,7 hPa 0,2 mm 0,9 km/h (0 Bft) S-SW 195 0 min 0,000 mm 0,5 UV-I 69 W/m 12,1 C 1,6 km/h (1 Bft)
26.06.2016 08:50 12,9 C 12,9 C 95 % 1016,7 hPa 0,0 mm 2,0 km/h (1 Bft) SW 219 0 min 0,000 mm 0,5 UV-I 67 W/m 12,1 C 3,2 km/h (1 Bft)
26.06.2016 08:51 12,9 C 13,0 C 95 % 1016,8 hPa 0,0 mm 2,2 km/h (1 Bft) S-SW 203 0 min 0,000 mm 0,5 UV-I 65 W/m 12,1 C 3,2 km/h (1 Bft)
26.06.2016 08:52 12,9 C 13,0 C 94 % 1016,7 hPa 0,0 mm 3,6 km/h (1 Bft) S-SW 192 0 min 0,000 mm 0,5 UV-I 63 W/m 12,0 C 6,4 km/h (2 Bft)
26.06.2016 08:53 12,9 C 12,9 C 95 % 1016,7 hPa 0,0 mm 1,6 km/h (1 Bft) SW 236 0 min 0,000 mm 0,5 UV-I 60 W/m 12,1 C 3,2 km/h (1 Bft)
26.06.2016 08:54 12,9 C 12,9 C 94 % 1016,8 hPa 0,0 mm 1,9 km/h (1 Bft) W-NW 286 0 min 0,000 mm 0,0 UV-I 56 W/m 12,0 C 3,2 km/h (1 Bft)
26.06.2016 08:55 12,9 C 12,9 C 95 % 1016,8 hPa 0,0 mm 1,3 km/h (1 Bft) W 267 0 min 0,000 mm 0,0 UV-I 54 W/m 12,1 C 3,2 km/h (1 Bft)
26.06.2016 08:56 12,9 C 12,9 C 94 % 1016,8 hPa 0,0 mm 1,3 km/h (1 Bft) W 265 0 min 0,000 mm 0,0 UV-I 54 W/m 12,0 C 3,2 km/h (1 Bft)
26.06.2016 08:57 12,9 C 12,9 C 95 % 1016,8 hPa 0,0 mm 0,5 km/h (0 Bft) W 265 0 min 0,000 mm 0,0 UV-I 54 W/m 12,1 C 1,6 km/h (1 Bft)
26.06.2016 08:58 12,9 C 12,9 C 95 % 1016,8 hPa 0,2 mm 1,5 km/h (1 Bft) W 266 0 min 0,000 mm 0,0 UV-I 56 W/m 12,1 C 3,2 km/h (1 Bft)
26.06.2016 08:59 12,9 C 12,9 C 95 % 1016,8 hPa 0,0 mm 1,5 km/h (1 Bft) W 274 0 min 0,000 mm 0,0 UV-I 56 W/m 12,1 C 3,2 km/h (1 Bft)
26.06.2016 09:00 12,9 C 12,9 C 95 % 1016,8 hPa 0,0 mm 1,9 km/h (1 Bft) W 274 0 min 0,000 mm 0,0 UV-I 56 W/m 12,1 C 3,2 km/h (1 Bft)
26.06.2016 09:01 12,9 C 12,9 C 96 % 1016,8 hPa 0,0 mm 1,0 km/h (0 Bft) W 274 0 min 0,025 mm 0,5 UV-I 58 W/m 12,3 C 1,6 km/h (1 Bft)
26.06.2016 09:02 12,9 C 12,9 C 96 % 1016,8 hPa 0,0 mm 1,4 km/h (1 Bft) W 274 0 min 0,001 mm 0,5 UV-I 58 W/m 12,3 C 3,2 km/h (1 Bft)
26.06.2016 09:03 12,9 C 12,9 C 95 % 1016,8 hPa 0,0 mm 3,1 km/h (1 Bft) W-NW 292 0 min 0,000 mm 0,0 UV-I 58 W/m 12,1 C 4,8 km/h (1 Bft)
26.06.2016 09:04 12,9 C 12,9 C 95 % 1016,8 hPa 0,0 mm 3,2 km/h (1 Bft) NW 311 0 min 0,000 mm 0,0 UV-I 56 W/m 12,1 C 4,8 km/h (1 Bft)
26.06.2016 09:05 12,9 C 12,9 C 96 % 1016,8 hPa 0,0 mm 4,6 km/h (1 Bft) NW 305 0 min 0,000 mm 0,5 UV-I 56 W/m 12,3 C 4,8 km/h (1 Bft)
26.06.2016 09:06 12,9 C 12,9 C 95 % 1016,9 hPa 0,0 mm 4,2 km/h (1 Bft) NW 310 0 min 0,000 mm 0,0 UV-I 54 W/m 12,1 C 6,4 km/h (2 Bft)
26.06.2016 09:07 12,9 C 12,9 C 95 % 1016,9 hPa 0,0 mm 3,1 km/h (1 Bft) NW 314 0 min 0,000 mm 0,0 UV-I 53 W/m 12,1 C 4,8 km/h (1 Bft)
26.06.2016 09:08 12,9 C 12,9 C 95 % 1016,9 hPa 0,0 mm 1,9 km/h (1 Bft) NW 314 0 min 0,000 mm 0,0 UV-I 51 W/m 12,1 C 3,2 km/h (1 Bft)
26.06.2016 09:09 12,9 C 12,9 C 96 % 1016,9 hPa 0,0 mm 3,4 km/h (1 Bft) W 269 0 min 0,000 mm 0,0 UV-I 53 W/m 12,3 C 4,8 km/h (1 Bft)
26.06.2016 09:10 12,9 C 12,9 C 96 % 1016,9 hPa 0,0 mm 1,5 km/h (1 Bft) W 269 0 min 0,000 mm 0,5 UV-I 58 W/m 12,3 C 3,2 km/h (1 Bft)
26.06.2016 09:11 12,9 C 12,9 C 95 % 1016,9 hPa 0,2 mm 0,8 km/h (0 Bft) W 269 0 min 0,000 mm 0,5 UV-I 62 W/m 12,1 C 1,6 km/h (1 Bft)
26.06.2016 09:12 12,9 C 12,9 C 95 % 1016,9 hPa 0,0 mm 0,6 km/h (0 Bft) W 269 0 min 0,000 mm 0,5 UV-I 60 W/m 12,1 C 3,2 km/h (1 Bft)
26.06.2016 09:13 12,9 C 12,9 C 96 % 1016,9 hPa 0,0 mm 1,2 km/h (1 Bft) W 269 0 min 0,000 mm 0,5 UV-I 56 W/m 12,3 C 1,6 km/h (1 Bft)
26.06.2016 09:14 12,9 C 12,9 C 96 % 1016,9 hPa 0,0 mm 1,3 km/h (1 Bft) W 269 0 min 0,000 mm 0,5 UV-I 56 W/m 12,3 C 1,6 km/h (1 Bft)
26.06.2016 09:15 12,9 C 12,9 C 96 % 1016,9 hPa 0,0 mm 1,6 km/h (1 Bft) W 275 0 min 0,000 mm 0,5 UV-I 56 W/m 12,3 C 3,2 km/h (1 Bft)
26.06.2016 09:16 12,9 C 12,9 C 96 % 1016,9 hPa 0,0 mm 2,2 km/h (1 Bft) W 269 0 min 0,000 mm 0,5 UV-I 58 W/m 12,3 C 3,2 km/h (1 Bft)
26.06.2016 09:17 13,0 C 13,0 C 96 % 1016,9 hPa 0,0 mm 2,5 km/h (1 Bft) W 275 0 min 0,000 mm 0,5 UV-I 60 W/m 12,4 C 3,2 km/h (1 Bft)
26.06.2016 09:18 13,0 C 13,0 C 96 % 1016,9 hPa 0,0 mm 2,7 km/h (1 Bft) W-SW 257 0 min 0,000 mm 0,5 UV-I 60 W/m 12,4 C 3,2 km/h (1 Bft)
26.06.2016 09:19 13,0 C 13,0 C 96 % 1016,9 hPa 0,0 mm 1,8 km/h (1 Bft) W-SW 257 0 min 0,000 mm 0,5 UV-I 62 W/m 12,4 C 3,2 km/h (1 Bft)
26.06.2016 09:20 13,1 C 13,1 C 96 % 1016,9 hPa 0,0 mm 1,7 km/h (1 Bft) W-SW 258 0 min 0,000 mm 0,5 UV-I 62 W/m 12,5 C 3,2 km/h (1 Bft)
26.06.2016 09:21 13,1 C 13,1 C 96 % 1016,9 hPa 0,0 mm 3,2 km/h (1 Bft) W-SW 245 0 min 0,000 mm 0,5 UV-I 62 W/m 12,5 C 4,8 km/h (1 Bft)
26.06.2016 09:22 13,0 C 13,1 C 96 % 1016,9 hPa 0,0 mm 3,2 km/h (1 Bft) W 263 0 min 0,000 mm 0,6 UV-I 63 W/m 12,4 C 6,4 km/h (2 Bft)
26.06.2016 09:23 13,0 C 13,1 C 95 % 1016,9 hPa 0,0 mm 2,5 km/h (1 Bft) W 262 0 min 0,000 mm 0,6 UV-I 67 W/m 12,2 C 4,8 km/h (1 Bft)
26.06.2016 09:24 13,0 C 13,1 C 95 % 1016,9 hPa 0,0 mm 0,7 km/h (0 Bft) W-SW 253 0 min 0,000 mm 0,6 UV-I 69 W/m 12,2 C 1,6 km/h (1 Bft)
26.06.2016 09:25 12,9 C 13,0 C 95 % 1016,9 hPa 0,0 mm 0,0 km/h (0 Bft) W-SW 253 0 min 0,000 mm 0,6 UV-I 72 W/m 12,1 C 0,0 km/h (0 Bft)
26.06.2016 09:26 13,0 C 13,0 C 96 % 1016,9 hPa 0,0 mm 1,3 km/h (1 Bft) W-SW 253 0 min 0,000 mm 0,6 UV-I 74 W/m 12,4 C 1,6 km/h (1 Bft)
26.06.2016 09:27 13,0 C 13,0 C 96 % 1016,9 hPa 0,0 mm 2,3 km/h (1 Bft) W 263 0 min 0,000 mm 0,6 UV-I 74 W/m 12,4 C 4,8 km/h (1 Bft)
26.06.2016 09:28 13,1 C 13,1 C 96 % 1016,9 hPa 0,0 mm 1,4 km/h (1 Bft) W 263 0 min 0,000 mm 0,6 UV-I 72 W/m 12,5 C 3,2 km/h (1 Bft)
26.06.2016 09:29 13,1 C 13,1 C 96 % 1016,9 hPa 0,0 mm 1,8 km/h (1 Bft) W-SW 254 0 min 0,000 mm 0,5 UV-I 65 W/m 12,5 C 4,8 km/h (1 Bft)
26.06.2016 09:30 13,1 C 13,1 C 96 % 1016,9 hPa 0,0 mm 4,2 km/h (1 Bft) W-SW 255 0 min 0,000 mm 0,6 UV-I 65 W/m 12,5 C 4,8 km/h (1 Bft)
26.06.2016 09:31 13,1 C 13,2 C 96 % 1016,9 hPa 0,0 mm 2,3 km/h (1 Bft) W-SW 254 0 min 0,000 mm 0,6 UV-I 69 W/m 12,5 C 4,8 km/h (1 Bft)
26.06.2016 09:32 13,1 C 13,2 C 95 % 1016,9 hPa 0,0 mm 1,5 km/h (1 Bft) W-SW 250 0 min 0,000 mm 0,6 UV-I 72 W/m 12,3 C 3,2 km/h (1 Bft)
26.06.2016 09:33 13,2 C 13,2 C 96 % 1016,9 hPa 0,0 mm 2,0 km/h (1 Bft) W-NW 289 0 min 0,000 mm 0,6 UV-I 74 W/m 12,6 C 4,8 km/h (1 Bft)
26.06.2016 09:34 13,1 C 13,2 C 95 % 1016,9 hPa 0,0 mm 2,5 km/h (1 Bft) W-NW 288 0 min 0,000 mm 0,6 UV-I 79 W/m 12,3 C 3,2 km/h (1 Bft)
26.06.2016 09:35 13,1 C 13,1 C 95 % 1016,9 hPa 0,0 mm 2,7 km/h (1 Bft) W 259 0 min 0,000 mm 0,7 UV-I 84 W/m 12,3 C 3,2 km/h (1 Bft)
26.06.2016 09:36 13,2 C 13,2 C 96 % 1016,9 hPa 0,0 mm 1,3 km/h (1 Bft) W 259 0 min 0,000 mm 0,7 UV-I 90 W/m 12,6 C 3,2 km/h (1 Bft)
26.06.2016 09:37 13,2 C 13,2 C 95 % 1016,9 hPa 0,0 mm 1,3 km/h (1 Bft) W 259 0 min 0,000 mm 0,8 UV-I 97 W/m 12,4 C 3,2 km/h (1 Bft)
26.06.2016 09:38 13,1 C 13,2 C 95 % 1016,9 hPa 0,0 mm 1,0 km/h (0 Bft) W 259 0 min 0,000 mm 0,8 UV-I 100 W/m 12,3 C 1,6 km/h (1 Bft)
26.06.2016 09:39 13,1 C 13,2 C 95 % 1016,8 hPa 0,0 mm 1,5 km/h (1 Bft) W 265 0 min 0,000 mm 0,8 UV-I 100 W/m 12,3 C 3,2 km/h (1 Bft)
26.06.2016 09:40 13,2 C 13,2 C 96 % 1016,8 hPa 0,0 mm 2,7 km/h (1 Bft) W-SW 251 0 min 0,000 mm 0,8 UV-I 93 W/m 12,6 C 3,2 km/h (1 Bft)
26.06.2016 09:41 13,2 C 13,2 C 95 % 1016,9 hPa 0,0 mm 2,7 km/h (1 Bft) S 178 0 min 0,000 mm 0,7 UV-I 88 W/m 12,4 C 4,8 km/h (1 Bft)
26.06.2016 09:42 13,1 C 13,2 C 94 % 1016,9 hPa 0,0 mm 2,3 km/h (1 Bft) W 271 0 min 0,000 mm 0,7 UV-I 84 W/m 12,2 C 4,8 km/h (1 Bft)
26.06.2016 09:43 13,2 C 13,2 C 95 % 1016,9 hPa 0,0 mm 2,7 km/h (1 Bft) S-SW 205 0 min 0,000 mm 0,7 UV-I 83 W/m 12,4 C 6,4 km/h (2 Bft)
26.06.2016 09:44 13,2 C 13,2 C 95 % 1016,9 hPa 0,0 mm 1,7 km/h (1 Bft) SW 223 0 min 0,000 mm 0,7 UV-I 83 W/m 12,4 C 3,2 km/h (1 Bft)
26.06.2016 09:45 13,2 C 13,2 C 95 % 1016,9 hPa 0,0 mm 2,5 km/h (1 Bft) W-SW 254 0 min 0,000 mm 0,7 UV-I 81 W/m 12,4 C 4,8 km/h (1 Bft)
26.06.2016 09:46 13,2 C 13,2 C 95 % 1016,9 hPa 0,0 mm 1,6 km/h (1 Bft) W 260 0 min 0,000 mm 0,7 UV-I 86 W/m 12,4 C 4,8 km/h (1 Bft)
26.06.2016 09:47 13,2 C 13,2 C 95 % 1016,9 hPa 0,0 mm 2,8 km/h (1 Bft) W-SW 249 0 min 0,000 mm 0,7 UV-I 86 W/m 12,4 C 6,4 km/h (2 Bft)
26.06.2016 09:48 13,2 C 13,2 C 95 % 1016,9 hPa 0,0 mm 3,8 km/h (1 Bft) W-SW 249 0 min 0,000 mm 0,7 UV-I 83 W/m 12,4 C 6,4 km/h (2 Bft)
26.06.2016 09:49 13,2 C 13,2 C 96 % 1016,9 hPa 0,0 mm 3,2 km/h (1 Bft) W-SW 248 0 min 0,000 mm 0,7 UV-I 81 W/m 12,6 C 4,8 km/h (1 Bft)
26.06.2016 09:50 13,2 C 13,3 C 95 % 1016,9 hPa 0,0 mm 3,6 km/h (1 Bft) S 182 0 min 0,000 mm 0,7 UV-I 81 W/m 12,4 C 4,8 km/h (1 Bft)
26.06.2016 09:51 13,2 C 13,2 C 95 % 1016,9 hPa 0,0 mm 3,3 km/h (1 Bft) W-NW 290 0 min 0,000 mm 0,7 UV-I 81 W/m 12,4 C 6,4 km/h (2 Bft)
26.06.2016 09:52 13,2 C 13,2 C 95 % 1016,9 hPa 0,0 mm 1,9 km/h (1 Bft) W-NW 292 0 min 0,000 mm 0,7 UV-I 76 W/m 12,4 C 3,2 km/h (1 Bft)
26.06.2016 09:53 13,3 C 13,3 C 96 % 1016,9 hPa 0,0 mm 3,3 km/h (1 Bft) W 278 0 min 0,000 mm 0,6 UV-I 74 W/m 12,7 C 4,8 km/h (1 Bft)
26.06.2016 09:54 13,3 C 13,3 C 96 % 1016,8 hPa 0,0 mm 2,7 km/h (1 Bft) W 280 0 min 0,000 mm 0,6 UV-I 70 W/m 12,7 C 4,8 km/h (1 Bft)
26.06.2016 09:55 13,3 C 13,3 C 96 % 1016,9 hPa 0,0 mm 4,0 km/h (1 Bft) W-SW 254 0 min 0,000 mm 0,6 UV-I 69 W/m 12,7 C 6,4 km/h (2 Bft)
26.06.2016 09:56 13,3 C 13,3 C 96 % 1016,8 hPa 0,0 mm 3,4 km/h (1 Bft) W-SW 250 0 min 0,000 mm 0,6 UV-I 69 W/m 12,7 C 6,4 km/h (2 Bft)
26.06.2016 09:57 13,3 C 13,3 C 96 % 1016,8 hPa 0,0 mm 5,5 km/h (1 Bft) W-NW 287 0 min 0,000 mm 0,6 UV-I 67 W/m 12,7 C 9,7 km/h (2 Bft)
26.06.2016 09:58 13,3 C 13,3 C 95 % 1016,8 hPa 0,0 mm 4,4 km/h (1 Bft) W 273 0 min 0,000 mm 0,6 UV-I 69 W/m 12,5 C 6,4 km/h (2 Bft)
26.06.2016 09:59 13,3 C 13,3 C 95 % 1016,9 hPa 0,0 mm 3,6 km/h (1 Bft) W 263 0 min 0,000 mm 0,6 UV-I 72 W/m 12,5 C 4,8 km/h (1 Bft)
26.06.2016 10:00 13,3 C 13,3 C 95 % 1016,8 hPa 0,0 mm 3,8 km/h (1 Bft) W-NW 295 0 min 0,000 mm 0,6 UV-I 74 W/m 12,5 C 4,8 km/h (1 Bft)
26.06.2016 10:01 13,2 C 13,3 C 95 % 1016,8 hPa 0,0 mm 4,8 km/h (1 Bft) W-NW 282 0 min 0,025 mm 0,6 UV-I 70 W/m 12,4 C 9,7 km/h (2 Bft)
26.06.2016 10:02 13,2 C 13,3 C 95 % 1016,8 hPa 0,0 mm 3,0 km/h (1 Bft) NW 313 0 min 0,000 mm 0,6 UV-I 65 W/m 12,4 C 3,2 km/h (1 Bft)
26.06.2016 10:03 13,2 C 13,2 C 95 % 1016,9 hPa 0,0 mm 2,3 km/h (1 Bft) W 268 0 min 0,000 mm 0,5 UV-I 62 W/m 12,4 C 3,2 km/h (1 Bft)
26.06.2016 10:04 13,2 C 13,2 C 95 % 1017,0 hPa 0,0 mm 4,0 km/h (1 Bft) W-NW 290 0 min 0,000 mm 0,5 UV-I 58 W/m 12,4 C 4,8 km/h (1 Bft)
26.06.2016 10:05 13,2 C 13,2 C 95 % 1016,9 hPa 0,0 mm 2,8 km/h (1 Bft) W 262 0 min 0,000 mm 0,5 UV-I 58 W/m 12,4 C 4,8 km/h (1 Bft)
26.06.2016 10:06 13,2 C 13,2 C 95 % 1016,9 hPa 0,0 mm 1,4 km/h (1 Bft) W 271 0 min 0,000 mm 0,5 UV-I 58 W/m 12,4 C 1,6 km/h (1 Bft)
26.06.2016 10:07 13,2 C 13,2 C 95 % 1017,0 hPa 0,0 mm 2,0 km/h (1 Bft) W-NW 300 0 min 0,000 mm 0,5 UV-I 62 W/m 12,4 C 3,2 km/h (1 Bft)
26.06.2016 10:08 13,2 C 13,2 C 95 % 1017,0 hPa 0,2 mm 2,1 km/h (1 Bft) W-NW 301 0 min 0,000 mm 0,5 UV-I 62 W/m 12,4 C 3,2 km/h (1 Bft)
26.06.2016 10:09 13,2 C 13,2 C 95 % 1016,9 hPa 0,0 mm 3,4 km/h (1 Bft) W 278 0 min 0,000 mm 0,5 UV-I 58 W/m 12,4 C 4,8 km/h (1 Bft)
26.06.2016 10:10 13,2 C 13,2 C 96 % 1016,9 hPa 0,0 mm 2,5 km/h (1 Bft) W-NW 301 0 min 0,000 mm 0,5 UV-I 58 W/m 12,6 C 3,2 km/h (1 Bft)
26.06.2016 10:11 13,2 C 13,2 C 96 % 1017,0 hPa 0,0 mm 2,5 km/h (1 Bft) W-NW 298 0 min 0,000 mm 0,5 UV-I 62 W/m 12,6 C 3,2 km/h (1 Bft)
26.06.2016 10:12 13,1 C 13,2 C 96 % 1017,0 hPa 0,0 mm 2,7 km/h (1 Bft) NW 304 0 min 0,000 mm 0,6 UV-I 67 W/m 12,5 C 4,8 km/h (1 Bft)
26.06.2016 10:13 13,1 C 13,2 C 96 % 1017,0 hPa 0,0 mm 3,2 km/h (1 Bft) NW 307 0 min 0,000 mm 0,6 UV-I 72 W/m 12,5 C 4,8 km/h (1 Bft)
26.06.2016 10:14 13,1 C 13,2 C 96 % 1017,0 hPa 0,0 mm 4,4 km/h (1 Bft) NW 308 0 min 0,000 mm 0,7 UV-I 76 W/m 12,5 C 6,4 km/h (2 Bft)
26.06.2016 10:15 13,1 C 13,1 C 95 % 1017,0 hPa 0,0 mm 3,8 km/h (1 Bft) NW 313 0 min 0,000 mm 0,7 UV-I 74 W/m 12,3 C 4,8 km/h (1 Bft)
26.06.2016 10:16 13,1 C 13,1 C 95 % 1017,0 hPa 0,0 mm 3,4 km/h (1 Bft) W-NW 288 0 min 0,000 mm 0,7 UV-I 72 W/m 12,3 C 4,8 km/h (1 Bft)
26.06.2016 10:17 13,1 C 13,1 C 95 % 1017,0 hPa 0,2 mm 2,8 km/h (1 Bft) NW 321 0 min 0,000 mm 0,6 UV-I 70 W/m 12,3 C 4,8 km/h (1 Bft)
26.06.2016 10:18 13,0 C 13,1 C 96 % 1017,0 hPa 0,0 mm 2,8 km/h (1 Bft) W 271 0 min 0,000 mm 0,6 UV-I 67 W/m 12,4 C 3,2 km/h (1 Bft)
26.06.2016 10:19 12,9 C 13,0 C 95 % 1017,1 hPa 0,0 mm 1,7 km/h (1 Bft) W 269 0 min 0,000 mm 0,6 UV-I 63 W/m 12,1 C 4,8 km/h (1 Bft)
26.06.2016 10:20 12,9 C 13,0 C 95 % 1017,0 hPa 0,0 mm 2,5 km/h (1 Bft) W-NW 288 0 min 0,000 mm 0,5 UV-I 60 W/m 12,1 C 4,8 km/h (1 Bft)
26.06.2016 10:21 12,9 C 12,9 C 95 % 1017,0 hPa 0,0 mm 3,2 km/h (1 Bft) W 269 0 min 0,000 mm 0,5 UV-I 54 W/m 12,1 C 4,8 km/h (1 Bft)
26.06.2016 10:22 12,9 C 12,9 C 95 % 1017,0 hPa 0,0 mm 1,5 km/h (1 Bft) W 269 0 min 0,000 mm 0,0 UV-I 53 W/m 12,1 C 3,2 km/h (1 Bft)
26.06.2016 10:23 12,9 C 12,9 C 95 % 1017,0 hPa 0,0 mm 3,4 km/h (1 Bft) W 280 0 min 0,000 mm 0,5 UV-I 56 W/m 12,1 C 4,8 km/h (1 Bft)
26.06.2016 10:24 12,9 C 12,9 C 95 % 1017,0 hPa 0,2 mm 2,5 km/h (1 Bft) W-NW 286 0 min 0,000 mm 0,5 UV-I 58 W/m 12,1 C 3,2 km/h (1 Bft)
26.06.2016 10:25 12,9 C 12,9 C 96 % 1017,0 hPa 0,0 mm 4,2 km/h (1 Bft) W 277 0 min 0,000 mm 0,6 UV-I 62 W/m 12,3 C 6,4 km/h (2 Bft)
26.06.2016 10:26 12,9 C 12,9 C 96 % 1017,0 hPa 0,0 mm 4,8 km/h (1 Bft) NW 315 0 min 0,000 mm 0,6 UV-I 67 W/m 12,3 C 6,4 km/h (2 Bft)
26.06.2016 10:27 12,9 C 12,9 C 96 % 1017,0 hPa 0,0 mm 1,7 km/h (1 Bft) W-NW 300 0 min 0,000 mm 0,6 UV-I 69 W/m 12,3 C 3,2 km/h (1 Bft)
26.06.2016 10:28 13,0 C 13,0 C 96 % 1017,0 hPa 0,0 mm 2,3 km/h (1 Bft) W 281 0 min 0,000 mm 0,5 UV-I 65 W/m 12,4 C 3,2 km/h (1 Bft)
26.06.2016 10:29 13,0 C 13,0 C 96 % 1017,0 hPa 0,0 mm 3,8 km/h (1 Bft) W 281 0 min 0,000 mm 0,5 UV-I 58 W/m 12,4 C 4,8 km/h (1 Bft)
26.06.2016 10:30 13,0 C 13,0 C 96 % 1017,0 hPa 0,0 mm 2,6 km/h (1 Bft) W-NW 285 0 min 0,000 mm 0,5 UV-I 54 W/m 12,4 C 4,8 km/h (1 Bft)
26.06.2016 10:31 13,0 C 13,0 C 96 % 1017,0 hPa 0,0 mm 1,6 km/h (1 Bft) W-NW 288 0 min 0,000 mm 0,0 UV-I 54 W/m 12,4 C 3,2 km/h (1 Bft)
26.06.2016 10:32 13,0 C 13,0 C 96 % 1017,0 hPa 0,0 mm 1,4 km/h (1 Bft) W-NW 288 0 min 0,000 mm 0,5 UV-I 58 W/m 12,4 C 3,2 km/h (1 Bft)
26.06.2016 10:33 13,0 C 13,1 C 96 % 1017,1 hPa 0,0 mm 1,4 km/h (1 Bft) W-NW 293 0 min 0,000 mm 0,6 UV-I 72 W/m 12,4 C 3,2 km/h (1 Bft)
26.06.2016 10:34 13,1 C 13,1 C 96 % 1017,1 hPa 0,0 mm 1,5 km/h (1 Bft) N-NO 24 0 min 0,000 mm 0,7 UV-I 79 W/m 12,5 C 3,2 km/h (1 Bft)
26.06.2016 10:35 13,1 C 13,1 C 96 % 1017,1 hPa 0,2 mm 2,5 km/h (1 Bft) N-NO 26 0 min 0,000 mm 0,8 UV-I 83 W/m 12,5 C 3,2 km/h (1 Bft)
26.06.2016 10:36 13,0 C 13,1 C 95 % 1017,1 hPa 0,0 mm 1,1 km/h (1 Bft) N-NO 26 0 min 0,000 mm 0,8 UV-I 83 W/m 12,2 C 1,6 km/h (1 Bft)
26.06.2016 10:37 13,0 C 13,0 C 95 % 1017,1 hPa 0,0 mm 1,2 km/h (1 Bft) N-NO 26 0 min 0,000 mm 0,7 UV-I 77 W/m 12,2 C 1,6 km/h (1 Bft)
26.06.2016 10:38 12,9 C 13,0 C 95 % 1017,2 hPa 0,0 mm 0,6 km/h (0 Bft) N-NO 26 0 min 0,000 mm 0,6 UV-I 70 W/m 12,1 C 1,6 km/h (1 Bft)
26.06.2016 10:39 12,9 C 12,9 C 95 % 1017,1 hPa 0,0 mm 1,2 km/h (1 Bft) N-NO 26 0 min 0,000 mm 0,6 UV-I 63 W/m 12,1 C 1,6 km/h (1 Bft)
26.06.2016 10:40 13,0 C 13,0 C 95 % 1017,1 hPa 0,0 mm 1,3 km/h (1 Bft) N-NO 26 0 min 0,000 mm 0,6 UV-I 63 W/m 12,2 C 1,6 km/h (1 Bft)
26.06.2016 10:41 13,0 C 13,0 C 96 % 1017,1 hPa 0,0 mm 1,0 km/h (0 Bft) N-NO 26 0 min 0,000 mm 0,6 UV-I 63 W/m 12,4 C 1,6 km/h (1 Bft)
26.06.2016 10:42 13,0 C 13,0 C 96 % 1017,1 hPa 0,0 mm 1,7 km/h (1 Bft) N-NO 27 0 min 0,000 mm 0,5 UV-I 62 W/m 12,4 C 3,2 km/h (1 Bft)
26.06.2016 10:43 13,0 C 13,0 C 95 % 1017,1 hPa 0,2 mm 1,4 km/h (1 Bft) N-NO 27 0 min 0,000 mm 0,5 UV-I 58 W/m 12,2 C 1,6 km/h (1 Bft)
26.06.2016 10:44 13,0 C 13,0 C 95 % 1017,1 hPa 0,0 mm 0,6 km/h (0 Bft) N-NO 27 0 min 0,000 mm 0,0 UV-I 53 W/m 12,2 C 1,6 km/h (1 Bft)
26.06.2016 10:45 13,0 C 13,0 C 96 % 1017,2 hPa 0,0 mm 1,6 km/h (1 Bft) O 83 0 min 0,000 mm 0,0 UV-I 49 W/m 12,4 C 3,2 km/h (1 Bft)
26.06.2016 10:46 13,1 C 13,1 C 96 % 1017,2 hPa 0,0 mm 1,3 km/h (1 Bft) O 83 0 min 0,000 mm 0,0 UV-I 47 W/m 12,5 C 3,2 km/h (1 Bft)
26.06.2016 10:47 13,0 C 13,1 C 96 % 1017,2 hPa 0,0 mm 1,2 km/h (1 Bft) O 83 0 min 0,000 mm 0,0 UV-I 47 W/m 12,4 C 1,6 km/h (1 Bft)
26.06.2016 10:48 13,0 C 13,1 C 96 % 1017,2 hPa 0,0 mm 1,1 km/h (1 Bft) O 83 0 min 0,000 mm 0,0 UV-I 46 W/m 12,4 C 3,2 km/h (1 Bft)
26.06.2016 10:49 13,1 C 13,1 C 95 % 1017,2 hPa 0,0 mm 2,2 km/h (1 Bft) O-NO 76 0 min 0,000 mm 0,0 UV-I 46 W/m 12,3 C 3,2 km/h (1 Bft)
26.06.2016 10:50 13,1 C 13,1 C 96 % 1017,2 hPa 0,0 mm 1,6 km/h (1 Bft) O-NO 66 0 min 0,000 mm 0,0 UV-I 47 W/m 12,5 C 3,2 km/h (1 Bft)
26.06.2016 10:51 13,0 C 13,1 C 96 % 1017,2 hPa 0,2 mm 2,1 km/h (1 Bft) O-NO 66 0 min 0,000 mm 0,0 UV-I 47 W/m 12,4 C 3,2 km/h (1 Bft)
26.06.2016 10:52 13,0 C 13,0 C 95 % 1017,2 hPa 0,0 mm 1,6 km/h (1 Bft) O-NO 66 0 min 0,000 mm 0,0 UV-I 47 W/m 12,2 C 3,2 km/h (1 Bft)
26.06.2016 10:53 13,0 C 13,0 C 96 % 1017,2 hPa 0,0 mm 0,0 km/h (0 Bft) O-NO 67 0 min 0,000 mm 0,0 UV-I 47 W/m 12,4 C 1,6 km/h (1 Bft)
26.06.2016 10:57 13,0 C 13,1 C 96 % 1017,2 hPa 0,2 mm 0,7 km/h (0 Bft) O-NO 61 0 min 0,000 mm 0,0 UV-I 47 W/m 12,4 C 1,6 km/h (1 Bft)
26.06.2016 10:58 13,0 C 13,1 C 96 % 1017,2 hPa 0,2 mm 1,0 km/h (0 Bft) O-NO 60 0 min 0,000 mm 0,0 UV-I 47 W/m 12,4 C 1,6 km/h (1 Bft)
26.06.2016 10:59 13,0 C 13,0 C 96 % 1017,2 hPa 0,0 mm 0,8 km/h (0 Bft) O-NO 60 0 min 0,000 mm 0,0 UV-I 46 W/m 12,4 C 1,6 km/h (1 Bft)
26.06.2016 11:00 13,0 C 13,0 C 96 % 1017,2 hPa 0,0 mm 2,3 km/h (1 Bft) N 355 0 min 0,026 mm 0,0 UV-I 44 W/m 12,4 C 4,8 km/h (1 Bft)
26.06.2016 11:01 13,1 C 13,1 C 96 % 1017,2 hPa 0,2 mm 1,7 km/h (1 Bft) N 355 0 min 0,000 mm 0,0 UV-I 44 W/m 12,5 C 3,2 km/h (1 Bft)
26.06.2016 11:02 13,1 C 13,1 C 96 % 1017,2 hPa 0,0 mm 1,4 km/h (1 Bft) NW 324 0 min 0,000 mm 0,0 UV-I 42 W/m 12,5 C 3,2 km/h (1 Bft)
26.06.2016 11:03 13,1 C 13,1 C 96 % 1017,3 hPa 0,2 mm 2,7 km/h (1 Bft) NW 313 0 min 0,000 mm 0,0 UV-I 42 W/m 12,5 C 3,2 km/h (1 Bft)
26.06.2016 11:04 13,1 C 13,1 C 96 % 1017,3 hPa 0,0 mm 2,3 km/h (1 Bft) NW 304 0 min 0,000 mm 0,0 UV-I 42 W/m 12,5 C 3,2 km/h (1 Bft)
26.06.2016 11:05 13,1 C 13,1 C 96 % 1017,3 hPa 0,0 mm 2,3 km/h (1 Bft) W-NW 303 0 min 0,000 mm 0,0 UV-I 42 W/m 12,5 C 3,2 km/h (1 Bft)
26.06.2016 11:06 13,1 C 13,1 C 96 % 1017,3 hPa 0,2 mm 1,6 km/h (1 Bft) W-NW 303 0 min 0,000 mm 0,0 UV-I 42 W/m 12,5 C 3,2 km/h (1 Bft)
26.06.2016 11:07 13,0 C 13,1 C 96 % 1017,3 hPa 0,2 mm 2,4 km/h (1 Bft) W-NW 303 0 min 0,000 mm 0,0 UV-I 42 W/m 12,4 C 3,2 km/h (1 Bft)
26.06.2016 11:08 12,9 C 13,0 C 96 % 1017,3 hPa 0,2 mm 1,4 km/h (1 Bft) W-NW 299 0 min 0,000 mm 0,0 UV-I 46 W/m 12,3 C 3,2 km/h (1 Bft)
26.06.2016 11:09 12,9 C 13,0 C 96 % 1017,3 hPa 0,0 mm 1,9 km/h (1 Bft) W 281 0 min 0,000 mm 0,0 UV-I 46 W/m 12,3 C 3,2 km/h (1 Bft)
26.06.2016 11:10 12,9 C 12,9 C 96 % 1017,4 hPa 0,0 mm 1,3 km/h (1 Bft) W 281 0 min 0,000 mm 0,0 UV-I 47 W/m 12,3 C 3,2 km/h (1 Bft)
26.06.2016 11:11 12,9 C 12,9 C 96 % 1017,3 hPa 0,0 mm 0,6 km/h (0 Bft) W 281 0 min 0,000 mm 0,0 UV-I 49 W/m 12,3 C 1,6 km/h (1 Bft)
26.06.2016 11:12 12,9 C 12,9 C 96 % 1017,3 hPa 0,0 mm 1,1 km/h (1 Bft) W 281 0 min 0,000 mm 0,0 UV-I 49 W/m 12,3 C 1,6 km/h (1 Bft)
26.06.2016 11:13 12,9 C 13,0 C 96 % 1017,3 hPa 0,0 mm 0,5 km/h (0 Bft) W 281 0 min 0,000 mm 0,0 UV-I 51 W/m 12,3 C 1,6 km/h (1 Bft)
26.06.2016 11:14 13,0 C 13,0 C 96 % 1017,3 hPa 0,2 mm 0,9 km/h (0 Bft) W 281 0 min 0,000 mm 0,0 UV-I 56 W/m 12,4 C 3,2 km/h (1 Bft)
26.06.2016 11:15 12,9 C 13,0 C 96 % 1017,3 hPa 0,0 mm 2,2 km/h (1 Bft) W-NW 303 0 min 0,000 mm 0,0 UV-I 54 W/m 12,3 C 3,2 km/h (1 Bft)
26.06.2016 11:16 12,9 C 12,9 C 96 % 1017,3 hPa 0,0 mm 2,5 km/h (1 Bft) NW 308 0 min 0,000 mm 0,0 UV-I 54 W/m 12,3 C 3,2 km/h (1 Bft)
26.06.2016 11:17 12,9 C 13,0 C 96 % 1017,3 hPa 0,0 mm 0,7 km/h (0 Bft) NW 308 0 min 0,000 mm 0,0 UV-I 53 W/m 12,3 C 1,6 km/h (1 Bft)
26.06.2016 11:18 12,9 C 13,0 C 96 % 1017,3 hPa 0,0 mm 1,3 km/h (1 Bft) NW 308 0 min 0,000 mm 0,0 UV-I 49 W/m 12,3 C 1,6 km/h (1 Bft)
26.06.2016 11:19 13,0 C 13,0 C 96 % 1017,3 hPa 0,0 mm 2,2 km/h (1 Bft) NW 310 0 min 0,000 mm 0,0 UV-I 49 W/m 12,4 C 3,2 km/h (1 Bft)
26.06.2016 11:20 13,0 C 13,1 C 96 % 1017,3 hPa 0,0 mm 3,1 km/h (1 Bft) NW 322 0 min 0,000 mm 0,0 UV-I 56 W/m 12,4 C 4,8 km/h (1 Bft)
26.06.2016 11:21 13,0 C 13,1 C 96 % 1017,3 hPa 0,0 mm 2,5 km/h (1 Bft) NW 319 0 min 0,000 mm 0,6 UV-I 62 W/m 12,4 C 3,2 km/h (1 Bft)
26.06.2016 11:22 13,0 C 13,1 C 96 % 1017,3 hPa 0,0 mm 2,3 km/h (1 Bft) W-NW 302 0 min 0,000 mm 0,6 UV-I 65 W/m 12,4 C 3,2 km/h (1 Bft)
26.06.2016 11:23 13,1 C 13,1 C 97 % 1017,3 hPa 0,0 mm 3,1 km/h (1 Bft) N-NW 336 0 min 0,000 mm 0,6 UV-I 63 W/m 12,6 C 4,8 km/h (1 Bft)
26.06.2016 11:24 13,1 C 13,1 C 97 % 1017,4 hPa 0,0 mm 2,5 km/h (1 Bft) N-NW 331 0 min 0,000 mm 0,6 UV-I 62 W/m 12,6 C 3,2 km/h (1 Bft)
26.06.2016 11:25 13,1 C 13,1 C 97 % 1017,4 hPa 0,0 mm 2,4 km/h (1 Bft) N-NW 328 0 min 0,000 mm 0,6 UV-I 58 W/m 12,6 C 3,2 km/h (1 Bft)
26.06.2016 11:26 13,1 C 13,2 C 96 % 1017,4 hPa 0,0 mm 1,6 km/h (1 Bft) NW 324 0 min 0,000 mm 0,6 UV-I 60 W/m 12,5 C 3,2 km/h (1 Bft)
26.06.2016 11:27 13,2 C 13,2 C 96 % 1017,4 hPa 0,2 mm 3,0 km/h (1 Bft) N-NW 346 0 min 0,000 mm 0,6 UV-I 63 W/m 12,6 C 4,8 km/h (1 Bft)
26.06.2016 11:28 13,2 C 13,2 C 97 % 1017,3 hPa 0,0 mm 2,8 km/h (1 Bft) NW 306 0 min 0,000 mm 0,7 UV-I 67 W/m 12,7 C 3,2 km/h (1 Bft)
26.06.2016 11:29 13,2 C 13,2 C 96 % 1017,4 hPa 0,0 mm 2,4 km/h (1 Bft) W-NW 298 0 min 0,000 mm 0,7 UV-I 70 W/m 12,6 C 4,8 km/h (1 Bft)
26.06.2016 11:30 13,2 C 13,2 C 96 % 1017,4 hPa 0,0 mm 2,3 km/h (1 Bft) N-NW 336 0 min 0,000 mm 0,7 UV-I 72 W/m 12,6 C 4,8 km/h (1 Bft)
26.06.2016 11:31 13,2 C 13,2 C 96 % 1017,3 hPa 0,0 mm 3,2 km/h (1 Bft) N-NW 336 0 min 0,000 mm 0,7 UV-I 69 W/m 12,6 C 4,8 km/h (1 Bft)
26.06.2016 11:32 13,2 C 13,2 C 96 % 1017,3 hPa 0,0 mm 2,3 km/h (1 Bft) N-NW 342 0 min 0,000 mm 0,7 UV-I 67 W/m 12,6 C 3,2 km/h (1 Bft)
26.06.2016 11:33 13,2 C 13,2 C 96 % 1017,4 hPa 0,0 mm 0,9 km/h (0 Bft) N-NW 335 0 min 0,000 mm 0,7 UV-I 69 W/m 12,6 C 3,2 km/h (1 Bft)
26.06.2016 11:34 13,1 C 13,2 C 96 % 1017,4 hPa 0,0 mm 0,9 km/h (0 Bft) N-NW 335 0 min 0,000 mm 0,7 UV-I 70 W/m 12,5 C 1,6 km/h (1 Bft)
26.06.2016 11:35 13,2 C 13,2 C 96 % 1017,4 hPa 0,0 mm 1,9 km/h (1 Bft) N-NO 19 0 min 0,000 mm 0,7 UV-I 70 W/m 12,6 C 3,2 km/h (1 Bft)
26.06.2016 11:36 13,2 C 13,2 C 96 % 1017,3 hPa 0,0 mm 1,9 km/h (1 Bft) N-NO 29 0 min 0,000 mm 0,8 UV-I 77 W/m 12,6 C 3,2 km/h (1 Bft)
26.06.2016 11:37 13,2 C 13,2 C 96 % 1017,3 hPa 0,0 mm 2,9 km/h (1 Bft) NO 49 0 min 0,000 mm 0,9 UV-I 95 W/m 12,6 C 3,2 km/h (1 Bft)
26.06.2016 11:38 13,1 C 13,2 C 96 % 1017,3 hPa 0,0 mm 3,0 km/h (1 Bft) O-NO 76 0 min 0,000 mm 1,1 UV-I 105 W/m 12,5 C 4,8 km/h (1 Bft)
26.06.2016 11:39 13,1 C 13,2 C 95 % 1017,3 hPa 0,0 mm 2,0 km/h (1 Bft) O-NO 75 0 min 0,000 mm 1,1 UV-I 107 W/m 12,3 C 3,2 km/h (1 Bft)
26.06.2016 11:40 13,1 C 13,2 C 95 % 1017,3 hPa 0,0 mm 3,8 km/h (1 Bft) NO 34 0 min 0,000 mm 1,1 UV-I 105 W/m 12,3 C 4,8 km/h (1 Bft)
26.06.2016 11:41 13,1 C 13,1 C 95 % 1017,3 hPa 0,2 mm 4,6 km/h (1 Bft) N-NO 32 0 min 0,000 mm 1,1 UV-I 104 W/m 12,3 C 6,4 km/h (2 Bft)
26.06.2016 11:42 13,1 C 13,1 C 95 % 1017,3 hPa 0,0 mm 5,0 km/h (1 Bft) O-NO 59 0 min 0,000 mm 1,1 UV-I 105 W/m 12,3 C 6,4 km/h (2 Bft)
26.06.2016 11:43 13,2 C 13,2 C 95 % 1017,3 hPa 0,0 mm 2,3 km/h (1 Bft) NO 50 0 min 0,000 mm 1,1 UV-I 111 W/m 12,4 C 3,2 km/h (1 Bft)
26.06.2016 11:44 13,2 C 13,2 C 96 % 1017,3 hPa 0,0 mm 2,7 km/h (1 Bft) NO 48 0 min 0,000 mm 1,1 UV-I 107 W/m 12,6 C 3,2 km/h (1 Bft)
26.06.2016 11:45 13,2 C 13,2 C 96 % 1017,3 hPa 0,0 mm 3,4 km/h (1 Bft) NO 49 0 min 0,000 mm 1,1 UV-I 109 W/m 12,6 C 6,4 km/h (2 Bft)
26.06.2016 11:46 13,2 C 13,2 C 95 % 1017,3 hPa 0,0 mm 2,6 km/h (1 Bft) NO 36 0 min 0,000 mm 1,1 UV-I 113 W/m 12,4 C 4,8 km/h (1 Bft)
26.06.2016 11:47 13,2 C 13,2 C 95 % 1017,2 hPa 0,0 mm 5,1 km/h (1 Bft) NO 42 0 min 0,000 mm 1,2 UV-I 120 W/m 12,4 C 8,0 km/h (2 Bft)
26.06.2016 11:48 13,2 C 13,2 C 95 % 1017,2 hPa 0,0 mm 5,0 km/h (1 Bft) NO 55 0 min 0,000 mm 1,2 UV-I 127 W/m 12,4 C 6,4 km/h (2 Bft)
26.06.2016 11:49 13,2 C 13,2 C 95 % 1017,3 hPa 0,0 mm 2,4 km/h (1 Bft) NW 306 0 min 0,000 mm 1,3 UV-I 137 W/m 12,4 C 3,2 km/h (1 Bft)
26.06.2016 11:50 13,2 C 13,2 C 96 % 1017,2 hPa 0,0 mm 2,4 km/h (1 Bft) N-NW 327 0 min 0,000 mm 1,2 UV-I 134 W/m 12,6 C 6,4 km/h (2 Bft)
26.06.2016 11:51 13,3 C 13,3 C 96 % 1017,2 hPa 0,0 mm 4,2 km/h (1 Bft) N 349 0 min 0,000 mm 1,1 UV-I 123 W/m 12,7 C 6,4 km/h (2 Bft)
26.06.2016 11:52 13,2 C 13,3 C 96 % 1017,2 hPa 0,0 mm 3,2 km/h (1 Bft) N 5 0 min 0,000 mm 1,0 UV-I 109 W/m 12,6 C 6,4 km/h (2 Bft)
26.06.2016 11:53 13,2 C 13,3 C 96 % 1017,2 hPa 0,0 mm 4,6 km/h (1 Bft) N 355 0 min 0,000 mm 1,1 UV-I 111 W/m 12,6 C 6,4 km/h (2 Bft)
26.06.2016 11:54 13,3 C 13,3 C 96 % 1017,3 hPa 0,0 mm 3,4 km/h (1 Bft) NO 45 0 min 0,000 mm 1,1 UV-I 120 W/m 12,7 C 6,4 km/h (2 Bft)
26.06.2016 11:55 13,2 C 13,3 C 96 % 1017,2 hPa 0,0 mm 3,9 km/h (1 Bft) O-NO 63 0 min 0,000 mm 1,2 UV-I 125 W/m 12,6 C 6,4 km/h (2 Bft)
26.06.2016 11:56 13,2 C 13,2 C 95 % 1017,2 hPa 0,0 mm 2,4 km/h (1 Bft) NO 44 0 min 0,000 mm 1,3 UV-I 135 W/m 12,4 C 3,2 km/h (1 Bft)
26.06.2016 11:57 13,2 C 13,2 C 95 % 1017,2 hPa 0,0 mm 3,2 km/h (1 Bft) N 9 0 min 0,000 mm 1,3 UV-I 141 W/m 12,4 C 4,8 km/h (1 Bft)
26.06.2016 11:58 13,2 C 13,2 C 96 % 1017,3 hPa 0,0 mm 3,5 km/h (1 Bft) N 5 0 min 0,000 mm 1,3 UV-I 139 W/m 12,6 C 4,8 km/h (1 Bft)
26.06.2016 11:59 13,2 C 13,2 C 96 % 1017,3 hPa 0,0 mm 1,9 km/h (1 Bft) N 5 0 min 0,000 mm 1,4 UV-I 148 W/m 12,6 C 3,2 km/h (1 Bft)
26.06.2016 12:00 13,2 C 13,2 C 96 % 1017,3 hPa 0,0 mm 1,7 km/h (1 Bft) N-NO 21 0 min 0,050 mm 1,4 UV-I 149 W/m 12,6 C 3,2 km/h (1 Bft)
26.06.2016 12:01 13,2 C 13,2 C 96 % 1017,2 hPa 0,0 mm 4,7 km/h (1 Bft) N-NW 340 0 min 0,000 mm 1,4 UV-I 149 W/m 12,6 C 6,4 km/h (2 Bft)
26.06.2016 12:02 13,2 C 13,2 C 95 % 1017,2 hPa 0,0 mm 3,8 km/h (1 Bft) NO 40 0 min 0,000 mm 1,5 UV-I 151 W/m 12,4 C 4,8 km/h (1 Bft)
26.06.2016 12:03 13,2 C 13,2 C 95 % 1017,3 hPa 0,0 mm 4,5 km/h (1 Bft) N-NO 18 0 min 0,000 mm 1,5 UV-I 156 W/m 12,4 C 6,4 km/h (2 Bft)
26.06.2016 12:04 13,2 C 13,2 C 95 % 1017,3 hPa 0,0 mm 2,2 km/h (1 Bft) N 355 0 min 0,000 mm 1,5 UV-I 158 W/m 12,4 C 4,8 km/h (1 Bft)
26.06.2016 12:05 13,2 C 13,2 C 95 % 1017,3 hPa 0,0 mm 1,9 km/h (1 Bft) N 360 0 min 0,000 mm 1,5 UV-I 158 W/m 12,4 C 3,2 km/h (1 Bft)
26.06.2016 12:06 13,2 C 13,2 C 95 % 1017,3 hPa 0,0 mm 1,8 km/h (1 Bft) N-NO 33 0 min 0,000 mm 1,6 UV-I 169 W/m 12,4 C 3,2 km/h (1 Bft)
26.06.2016 12:07 13,2 C 13,2 C 96 % 1017,3 hPa 0,0 mm 3,9 km/h (1 Bft) N-NW 337 0 min 0,000 mm 1,6 UV-I 165 W/m 12,6 C 6,4 km/h (2 Bft)
26.06.2016 12:08 13,2 C 13,2 C 95 % 1017,3 hPa 0,0 mm 4,6 km/h (1 Bft) N-NO 26 0 min 0,000 mm 1,4 UV-I 155 W/m 12,4 C 6,4 km/h (2 Bft)
26.06.2016 12:09 13,2 C 13,2 C 95 % 1017,3 hPa 0,0 mm 3,6 km/h (1 Bft) N 355 0 min 0,000 mm 1,3 UV-I 139 W/m 12,4 C 6,4 km/h (2 Bft)
26.06.2016 12:10 13,2 C 13,3 C 95 % 1017,3 hPa 0,0 mm 3,0 km/h (1 Bft) NW 322 0 min 0,000 mm 1,2 UV-I 127 W/m 12,4 C 4,8 km/h (1 Bft)
26.06.2016 12:11 13,3 C 13,3 C 96 % 1017,3 hPa 0,0 mm 5,4 km/h (1 Bft) N 355 0 min 0,000 mm 1,2 UV-I 121 W/m 12,7 C 8,0 km/h (2 Bft)
26.06.2016 12:12 13,3 C 13,3 C 95 % 1017,3 hPa 0,0 mm 6,7 km/h (2 Bft) N-NO 13 0 min 0,000 mm 1,1 UV-I 120 W/m 12,5 C 8,0 km/h (2 Bft)
26.06.2016 12:13 13,2 C 13,3 C 95 % 1017,4 hPa 0,2 mm 6,0 km/h (2 Bft) N 5 0 min 0,000 mm 1,0 UV-I 109 W/m 12,4 C 8,0 km/h (2 Bft)
26.06.2016 12:14 13,2 C 13,2 C 95 % 1017,4 hPa 0,0 mm 4,0 km/h (1 Bft) N 5 0 min 0,000 mm 1,0 UV-I 111 W/m 12,4 C 6,4 km/h (2 Bft)
26.06.2016 12:15 13,2 C 13,3 C 95 % 1017,3 hPa 0,0 mm 5,9 km/h (2 Bft) N-NW 345 0 min 0,000 mm 1,1 UV-I 114 W/m 12,4 C 8,0 km/h (2 Bft)
26.06.2016 12:16 13,2 C 13,2 C 95 % 1017,4 hPa 0,0 mm 6,2 km/h (2 Bft) N 5 0 min 0,000 mm 1,2 UV-I 121 W/m 12,4 C 8,0 km/h (2 Bft)
26.06.2016 12:17 13,2 C 13,2 C 95 % 1017,3 hPa 0,0 mm 3,5 km/h (1 Bft) N 9 0 min 0,000 mm 1,2 UV-I 128 W/m 12,4 C 8,0 km/h (2 Bft)
26.06.2016 12:18 13,2 C 13,2 C 95 % 1017,3 hPa 0,0 mm 6,4 km/h (2 Bft) N 360 0 min 0,000 mm 1,3 UV-I 137 W/m 12,4 C 9,7 km/h (2 Bft)
26.06.2016 12:19 13,2 C 13,2 C 95 % 1017,3 hPa 0,0 mm 5,4 km/h (1 Bft) N 355 0 min 0,000 mm 1,4 UV-I 148 W/m 12,4 C 8,0 km/h (2 Bft)
26.06.2016 12:20 13,2 C 13,2 C 95 % 1017,3 hPa 0,0 mm 4,2 km/h (1 Bft) N 355 0 min 0,000 mm 1,5 UV-I 156 W/m 12,4 C 6,4 km/h (2 Bft)
26.06.2016 12:21 13,2 C 13,2 C 95 % 1017,3 hPa 0,0 mm 3,6 km/h (1 Bft) N-NO 32 0 min 0,000 mm 1,5 UV-I 155 W/m 12,4 C 6,4 km/h (2 Bft)
26.06.2016 12:22 13,2 C 13,3 C 95 % 1017,3 hPa 0,0 mm 5,0 km/h (1 Bft) N-NO 19 0 min 0,000 mm 1,4 UV-I 149 W/m 12,4 C 6,4 km/h (2 Bft)
26.06.2016 12:23 13,3 C 13,3 C 95 % 1017,3 hPa 0,0 mm 3,3 km/h (1 Bft) N-NW 348 0 min 0,000 mm 1,3 UV-I 139 W/m 12,5 C 6,4 km/h (2 Bft)
26.06.2016 12:24 13,3 C 13,3 C 95 % 1017,4 hPa 0,0 mm 3,8 km/h (1 Bft) N-NW 346 0 min 0,000 mm 1,3 UV-I 144 W/m 12,5 C 6,4 km/h (2 Bft)
26.06.2016 12:25 13,3 C 13,3 C 95 % 1017,4 hPa 0,0 mm 2,9 km/h (1 Bft) N-NO 15 0 min 0,000 mm 1,3 UV-I 139 W/m 12,5 C 4,8 km/h (1 Bft)
26.06.2016 12:26 13,3 C 13,3 C 95 % 1017,4 hPa 0,0 mm 2,0 km/h (1 Bft) N 5 0 min 0,000 mm 1,2 UV-I 128 W/m 12,5 C 4,8 km/h (1 Bft)
26.06.2016 12:27 13,3 C 13,3 C 95 % 1017,4 hPa 0,0 mm 3,4 km/h (1 Bft) N-NO 19 0 min 0,000 mm 1,2 UV-I 125 W/m 12,5 C 4,8 km/h (1 Bft)
26.06.2016 12:28 13,3 C 13,3 C 95 % 1017,4 hPa 0,0 mm 2,3 km/h (1 Bft) N 5 0 min 0,000 mm 1,3 UV-I 128 W/m 12,5 C 3,2 km/h (1 Bft)
26.06.2016 12:29 13,3 C 13,3 C 95 % 1017,4 hPa 0,0 mm 3,7 km/h (1 Bft) N 355 0 min 0,000 mm 1,3 UV-I 130 W/m 12,5 C 8,0 km/h (2 Bft)
26.06.2016 12:30 13,2 C 13,3 C 95 % 1017,4 hPa 0,0 mm 5,2 km/h (1 Bft) NO 38 0 min 0,000 mm 1,3 UV-I 135 W/m 12,4 C 8,0 km/h (2 Bft)
26.06.2016 12:31 13,2 C 13,3 C 95 % 1017,4 hPa 0,0 mm 2,0 km/h (1 Bft) NO 46 0 min 0,000 mm 1,4 UV-I 142 W/m 12,4 C 4,8 km/h (1 Bft)
26.06.2016 12:32 13,2 C 13,3 C 95 % 1017,4 hPa 0,0 mm 2,4 km/h (1 Bft) N 360 0 min 0,000 mm 1,4 UV-I 142 W/m 12,4 C 4,8 km/h (1 Bft)
26.06.2016 12:33 13,3 C 13,3 C 95 % 1017,4 hPa 0,0 mm 2,9 km/h (1 Bft) N 360 0 min 0,000 mm 1,3 UV-I 137 W/m 12,5 C 4,8 km/h (1 Bft)
26.06.2016 12:34 13,3 C 13,3 C 96 % 1017,5 hPa 0,0 mm 3,7 km/h (1 Bft) N 5 0 min 0,000 mm 1,4 UV-I 139 W/m 12,7 C 6,4 km/h (2 Bft)
26.06.2016 12:35 13,3 C 13,3 C 96 % 1017,5 hPa 0,0 mm 3,2 km/h (1 Bft) N-NW 346 0 min 0,000 mm 1,4 UV-I 146 W/m 12,7 C 6,4 km/h (2 Bft)
26.06.2016 12:36 13,3 C 13,3 C 95 % 1017,5 hPa 0,0 mm 2,3 km/h (1 Bft) O-NO 68 0 min 0,000 mm 1,4 UV-I 141 W/m 12,5 C 4,8 km/h (1 Bft)
26.06.2016 12:37 13,3 C 13,3 C 95 % 1017,4 hPa 0,0 mm 3,2 km/h (1 Bft) N-NO 13 0 min 0,000 mm 1,3 UV-I 137 W/m 12,5 C 4,8 km/h (1 Bft)
26.06.2016 12:38 13,3 C 13,3 C 95 % 1017,5 hPa 0,0 mm 2,5 km/h (1 Bft) N 360 0 min 0,000 mm 1,2 UV-I 132 W/m 12,5 C 6,4 km/h (2 Bft)
26.06.2016 12:39 13,3 C 13,3 C 95 % 1017,5 hPa 0,0 mm 3,1 km/h (1 Bft) N-NO 24 0 min 0,000 mm 1,1 UV-I 120 W/m 12,5 C 4,8 km/h (1 Bft)
26.06.2016 12:40 13,4 C 13,4 C 96 % 1017,5 hPa 0,0 mm 3,1 km/h (1 Bft) NO 46 0 min 0,000 mm 1,1 UV-I 113 W/m 12,8 C 4,8 km/h (1 Bft)
26.06.2016 12:41 13,4 C 13,4 C 95 % 1017,5 hPa 0,0 mm 2,7 km/h (1 Bft) NO 52 0 min 0,000 mm 1,1 UV-I 123 W/m 12,6 C 6,4 km/h (2 Bft)
26.06.2016 12:42 13,4 C 13,4 C 95 % 1017,5 hPa 0,0 mm 1,7 km/h (1 Bft) N 5 0 min 0,000 mm 1,2 UV-I 125 W/m 12,6 C 3,2 km/h (1 Bft)
26.06.2016 12:43 13,4 C 13,4 C 95 % 1017,5 hPa 0,0 mm 1,5 km/h (1 Bft) N 360 0 min 0,000 mm 1,2 UV-I 125 W/m 12,6 C 3,2 km/h (1 Bft)
26.06.2016 12:44 13,4 C 13,4 C 95 % 1017,5 hPa 0,0 mm 2,3 km/h (1 Bft) N 355 0 min 0,000 mm 1,3 UV-I 130 W/m 12,6 C 4,8 km/h (1 Bft)
26.06.2016 12:45 13,4 C 13,4 C 95 % 1017,5 hPa 0,0 mm 3,3 km/h (1 Bft) N-NO 18 0 min 0,000 mm 1,2 UV-I 130 W/m 12,6 C 4,8 km/h (1 Bft)
26.06.2016 12:46 13,4 C 13,4 C 95 % 1017,5 hPa 0,0 mm 4,0 km/h (1 Bft) N-NW 332 0 min 0,000 mm 1,2 UV-I 127 W/m 12,6 C 6,4 km/h (2 Bft)
26.06.2016 12:47 13,4 C 13,4 C 95 % 1017,5 hPa 0,0 mm 5,1 km/h (1 Bft) N 350 0 min 0,000 mm 1,1 UV-I 125 W/m 12,6 C 6,4 km/h (2 Bft)
26.06.2016 12:48 13,4 C 13,4 C 95 % 1017,4 hPa 0,0 mm 4,1 km/h (1 Bft) N 360 0 min 0,000 mm 1,2 UV-I 137 W/m 12,6 C 6,4 km/h (2 Bft)
26.06.2016 12:49 13,4 C 13,4 C 95 % 1017,5 hPa 0,0 mm 0,9 km/h (0 Bft) N-NO 19 0 min 0,000 mm 1,6 UV-I 158 W/m 12,6 C 3,2 km/h (1 Bft)
26.06.2016 12:50 13,4 C 13,4 C 96 % 1017,5 hPa 0,0 mm 2,7 km/h (1 Bft) N 355 0 min 0,000 mm 1,7 UV-I 174 W/m 12,8 C 4,8 km/h (1 Bft)
26.06.2016 12:51 13,4 C 13,5 C 95 % 1017,5 hPa 0,0 mm 5,0 km/h (1 Bft) N 360 0 min 0,000 mm 1,8 UV-I 181 W/m 12,6 C 6,4 km/h (2 Bft)
26.06.2016 12:52 13,5 C 13,5 C 95 % 1017,5 hPa 0,0 mm 3,3 km/h (1 Bft) N-NO 28 0 min 0,000 mm 1,9 UV-I 188 W/m 12,7 C 6,4 km/h (2 Bft)
26.06.2016 12:53 13,4 C 13,5 C 94 % 1017,5 hPa 0,0 mm 3,9 km/h (1 Bft) N 355 0 min 0,000 mm 2,0 UV-I 199 W/m 12,5 C 6,4 km/h (2 Bft)
26.06.2016 12:54 13,5 C 13,5 C 94 % 1017,4 hPa 0,0 mm 4,2 km/h (1 Bft) N-NO 28 0 min 0,000 mm 2,0 UV-I 190 W/m 12,6 C 6,4 km/h (2 Bft)
26.06.2016 12:55 13,4 C 13,5 C 94 % 1017,4 hPa 0,0 mm 5,1 km/h (1 Bft) N 350 0 min 0,000 mm 2,0 UV-I 185 W/m 12,5 C 6,4 km/h (2 Bft)
26.06.2016 12:56 13,4 C 13,4 C 94 % 1017,5 hPa 0,0 mm 2,5 km/h (1 Bft) N-NO 13 0 min 0,000 mm 2,1 UV-I 190 W/m 12,5 C 4,8 km/h (1 Bft)
26.06.2016 12:57 13,5 C 13,5 C 95 % 1017,4 hPa 0,0 mm 4,3 km/h (1 Bft) NW 321 0 min 0,000 mm 2,1 UV-I 197 W/m 12,7 C 6,4 km/h (2 Bft)
26.06.2016 12:58 13,4 C 13,5 C 95 % 1017,4 hPa 0,0 mm 4,5 km/h (1 Bft) N-NW 333 0 min 0,000 mm 1,8 UV-I 186 W/m 12,6 C 6,4 km/h (2 Bft)
26.06.2016 12:59 13,4 C 13,5 C 95 % 1017,5 hPa 0,0 mm 6,4 km/h (2 Bft) N 5 0 min 0,000 mm 1,5 UV-I 125 W/m 12,6 C 8,0 km/h (2 Bft)
26.06.2016 13:00 13,4 C 13,5 C 95 % 1017,5 hPa 0,0 mm 6,7 km/h (2 Bft) N-NW 346 0 min 0,077 mm 1,0 UV-I 105 W/m 12,6 C 8,0 km/h (2 Bft)
26.06.2016 13:01 13,4 C 13,4 C 94 % 1017,5 hPa 0,0 mm 5,0 km/h (1 Bft) O-NO 59 0 min 0,000 mm 1,2 UV-I 120 W/m 12,5 C 8,0 km/h (2 Bft)
26.06.2016 13:02 13,4 C 13,4 C 95 % 1017,6 hPa 0,0 mm 4,5 km/h (1 Bft) N 351 0 min 0,000 mm 1,3 UV-I 137 W/m 12,6 C 8,0 km/h (2 Bft)
26.06.2016 13:03 13,4 C 13,4 C 95 % 1017,5 hPa 0,0 mm 7,6 km/h (2 Bft) N 360 0 min 0,000 mm 1,3 UV-I 135 W/m 12,6 C 9,7 km/h (2 Bft)
26.06.2016 13:04 13,3 C 13,4 C 94 % 1017,5 hPa 0,0 mm 5,5 km/h (1 Bft) O-NO 78 0 min 0,000 mm 1,2 UV-I 123 W/m 12,4 C 8,0 km/h (2 Bft)
26.06.2016 13:05 13,3 C 13,3 C 95 % 1017,5 hPa 0,0 mm 5,2 km/h (1 Bft) N-NO 32 0 min 0,000 mm 1,1 UV-I 105 W/m 12,5 C 8,0 km/h (2 Bft)
26.06.2016 13:06 13,2 C 13,3 C 95 % 1017,5 hPa 0,0 mm 6,3 km/h (2 Bft) N 11 0 min 0,000 mm 1,0 UV-I 102 W/m 12,4 C 11,3 km/h (2 Bft)
26.06.2016 13:07 13,2 C 13,2 C 95 % 1017,5 hPa 0,0 mm 5,6 km/h (1 Bft) N 360 0 min 0,000 mm 0,9 UV-I 98 W/m 12,4 C 9,7 km/h (2 Bft)
26.06.2016 13:08 13,1 C 13,2 C 95 % 1017,5 hPa 0,0 mm 6,2 km/h (2 Bft) N 5 0 min 0,000 mm 0,9 UV-I 90 W/m 12,3 C 11,3 km/h (2 Bft)
26.06.2016 13:09 13,1 C 13,1 C 95 % 1017,5 hPa 0,0 mm 2,1 km/h (1 Bft) N-NW 341 0 min 0,000 mm 0,8 UV-I 86 W/m 12,3 C 6,4 km/h (2 Bft)
26.06.2016 13:10 13,1 C 13,1 C 95 % 1017,5 hPa 0,0 mm 2,7 km/h (1 Bft) N-NW 346 0 min 0,000 mm 0,7 UV-I 77 W/m 12,3 C 4,8 km/h (1 Bft)
26.06.2016 13:11 13,1 C 13,1 C 96 % 1017,6 hPa 0,0 mm 4,0 km/h (1 Bft) N 355 0 min 0,000 mm 0,7 UV-I 77 W/m 12,5 C 6,4 km/h (2 Bft)
26.06.2016 13:12 13,1 C 13,1 C 96 % 1017,6 hPa 0,0 mm 6,6 km/h (2 Bft) O-NO 57 0 min 0,000 mm 0,9 UV-I 90 W/m 12,5 C 9,7 km/h (2 Bft)
26.06.2016 13:13 13,1 C 13,1 C 95 % 1017,6 hPa 0,0 mm 5,0 km/h (1 Bft) N-NO 25 0 min 0,000 mm 0,9 UV-I 93 W/m 12,3 C 8,0 km/h (2 Bft)
26.06.2016 13:14 13,1 C 13,1 C 95 % 1017,6 hPa 0,0 mm 7,2 km/h (2 Bft) N 5 0 min 0,000 mm 1,0 UV-I 102 W/m 12,3 C 11,3 km/h (2 Bft)
26.06.2016 13:15 13,0 C 13,1 C 94 % 1017,6 hPa 0,0 mm 6,0 km/h (2 Bft) N-NO 19 0 min 0,000 mm 1,2 UV-I 111 W/m 12,1 C 8,0 km/h (2 Bft)
26.06.2016 13:16 12,9 C 13,0 C 95 % 1017,6 hPa 0,0 mm 6,2 km/h (2 Bft) N 360 0 min 0,000 mm 1,2 UV-I 114 W/m 12,1 C 8,0 km/h (2 Bft)
26.06.2016 13:17 12,9 C 12,9 C 95 % 1017,6 hPa 0,0 mm 3,6 km/h (1 Bft) N-NW 336 0 min 0,000 mm 1,2 UV-I 107 W/m 12,1 C 4,8 km/h (1 Bft)
26.06.2016 13:18 12,9 C 12,9 C 95 % 1017,7 hPa 0,0 mm 3,2 km/h (1 Bft) N-NW 338 0 min 0,000 mm 0,9 UV-I 90 W/m 12,1 C 4,8 km/h (1 Bft)
26.06.2016 13:19 13,0 C 13,0 C 96 % 1017,7 hPa 0,0 mm 5,1 km/h (1 Bft) NW 304 0 min 0,000 mm 0,6 UV-I 70 W/m 12,4 C 6,4 km/h (2 Bft)
26.06.2016 13:20 13,1 C 13,1 C 96 % 1017,8 hPa 0,0 mm 7,8 km/h (2 Bft) N-NW 348 0 min 0,000 mm 0,6 UV-I 60 W/m 12,5 C 12,9 km/h (3 Bft)
26.06.2016 13:21 13,0 C 13,1 C 95 % 1017,8 hPa 0,0 mm 4,8 km/h (1 Bft) W-NW 302 0 min 0,000 mm 0,6 UV-I 60 W/m 12,2 C 8,0 km/h (2 Bft)
26.06.2016 13:22 12,9 C 13,0 C 95 % 1017,8 hPa 0,0 mm 4,8 km/h (1 Bft) W-SW 248 0 min 0,000 mm 0,6 UV-I 62 W/m 12,1 C 8,0 km/h (2 Bft)
26.06.2016 13:23 12,9 C 12,9 C 94 % 1017,8 hPa 0,2 mm 6,9 km/h (2 Bft) NW 318 0 min 0,000 mm 0,6 UV-I 62 W/m 12,0 C 12,9 km/h (3 Bft)
26.06.2016 13:24 12,8 C 12,9 C 94 % 1017,8 hPa 0,0 mm 5,0 km/h (1 Bft) W-NW 296 0 min 0,000 mm 0,6 UV-I 67 W/m 11,9 C 8,0 km/h (2 Bft)
26.06.2016 13:25 12,7 C 12,8 C 94 % 1017,8 hPa 0,0 mm 4,9 km/h (1 Bft) N 360 0 min 0,000 mm 0,7 UV-I 74 W/m 11,8 C 6,4 km/h (2 Bft)
26.06.2016 13:26 12,6 C 12,7 C 94 % 1017,8 hPa 0,0 mm 7,1 km/h (2 Bft) NW 314 0 min 0,000 mm 0,8 UV-I 84 W/m 11,7 C 12,9 km/h (3 Bft)
26.06.2016 13:27 12,5 C 12,6 C 94 % 1017,8 hPa 0,2 mm 7,4 km/h (2 Bft) W 278 0 min 0,000 mm 0,8 UV-I 88 W/m 11,6 C 11,3 km/h (2 Bft)
26.06.2016 13:28 12,5 C 12,5 C 95 % 1017,8 hPa 0,0 mm 4,3 km/h (1 Bft) W-NW 302 0 min 0,000 mm 0,9 UV-I 109 W/m 11,7 C 9,7 km/h (2 Bft)
26.06.2016 13:29 12,4 C 12,5 C 95 % 1017,8 hPa 0,0 mm 3,6 km/h (1 Bft) W-NW 293 0 min 0,000 mm 1,1 UV-I 113 W/m 11,6 C 4,8 km/h (1 Bft)
26.06.2016 13:30 12,4 C 12,4 C 95 % 1017,8 hPa 0,0 mm 3,4 km/h (1 Bft) W-NW 302 0 min 0,000 mm 1,1 UV-I 121 W/m 11,6 C 6,4 km/h (2 Bft)
26.06.2016 13:31 12,5 C 12,5 C 96 % 1017,8 hPa 0,0 mm 4,9 km/h (1 Bft) W-NW 294 0 min 0,000 mm 1,2 UV-I 128 W/m 11,9 C 6,4 km/h (2 Bft)
26.06.2016 13:32 12,5 C 12,5 C 96 % 1017,8 hPa 0,0 mm 6,6 km/h (2 Bft) N 355 0 min 0,000 mm 1,3 UV-I 134 W/m 11,9 C 8,0 km/h (2 Bft)
26.06.2016 13:33 12,6 C 12,6 C 96 % 1017,8 hPa 0,0 mm 3,9 km/h (1 Bft) W-NW 302 0 min 0,000 mm 1,3 UV-I 142 W/m 12,0 C 6,4 km/h (2 Bft)
26.06.2016 13:34 12,6 C 12,6 C 96 % 1017,8 hPa 0,0 mm 4,3 km/h (1 Bft) NW 315 0 min 0,000 mm 1,5 UV-I 162 W/m 12,0 C 8,0 km/h (2 Bft)
26.06.2016 13:35 12,6 C 12,6 C 96 % 1017,8 hPa 0,2 mm 3,9 km/h (1 Bft) NW 321 0 min 0,000 mm 1,6 UV-I 167 W/m 12,0 C 6,4 km/h (2 Bft)
26.06.2016 13:36 12,6 C 12,6 C 96 % 1017,8 hPa 0,0 mm 2,8 km/h (1 Bft) N-NW 346 0 min 0,000 mm 1,6 UV-I 167 W/m 12,0 C 4,8 km/h (1 Bft)
26.06.2016 13:37 12,6 C 12,6 C 96 % 1017,8 hPa 0,0 mm 4,5 km/h (1 Bft) W-NW 298 0 min 0,000 mm 1,6 UV-I 163 W/m 12,0 C 4,8 km/h (1 Bft)
26.06.2016 13:38 12,7 C 12,7 C 96 % 1017,7 hPa 0,0 mm 4,3 km/h (1 Bft) W-NW 286 0 min 0,000 mm 1,5 UV-I 155 W/m 12,1 C 6,4 km/h (2 Bft)
26.06.2016 13:39 12,7 C 12,7 C 96 % 1017,7 hPa 0,0 mm 2,5 km/h (1 Bft) NW 319 0 min 0,000 mm 1,3 UV-I 135 W/m 12,1 C 4,8 km/h (1 Bft)
26.06.2016 13:40 12,8 C 12,8 C 96 % 1017,7 hPa 0,0 mm 2,6 km/h (1 Bft) N-NW 347 0 min 0,000 mm 1,3 UV-I 130 W/m 12,2 C 4,8 km/h (1 Bft)
26.06.2016 13:41 12,8 C 12,8 C 96 % 1017,8 hPa 0,0 mm 1,6 km/h (1 Bft) NW 321 0 min 0,000 mm 1,2 UV-I 127 W/m 12,2 C 3,2 km/h (1 Bft)
26.06.2016 13:42 12,8 C 12,8 C 96 % 1017,7 hPa 0,0 mm 3,6 km/h (1 Bft) W-NW 298 0 min 0,000 mm 1,3 UV-I 127 W/m 12,2 C 4,8 km/h (1 Bft)
26.06.2016 13:43 12,8 C 12,8 C 96 % 1017,8 hPa 0,0 mm 4,7 km/h (1 Bft) N-NO 29 0 min 0,000 mm 1,4 UV-I 139 W/m 12,2 C 6,4 km/h (2 Bft)
26.06.2016 13:44 12,8 C 12,8 C 95 % 1017,8 hPa 0,0 mm 2,1 km/h (1 Bft) NW 320 0 min 0,000 mm 1,4 UV-I 142 W/m 12,0 C 3,2 km/h (1 Bft)
26.06.2016 13:45 12,8 C 12,8 C 96 % 1017,8 hPa 0,0 mm 2,7 km/h (1 Bft) NW 326 0 min 0,000 mm 1,4 UV-I 141 W/m 12,2 C 4,8 km/h (1 Bft)
26.06.2016 13:46 12,8 C 12,8 C 96 % 1017,8 hPa 0,0 mm 3,6 km/h (1 Bft) N 355 0 min 0,000 mm 1,3 UV-I 116 W/m 12,2 C 6,4 km/h (2 Bft)
26.06.2016 13:47 12,8 C 12,8 C 96 % 1017,8 hPa 0,2 mm 4,4 km/h (1 Bft) N-NW 344 0 min 0,000 mm 0,9 UV-I 98 W/m 12,2 C 6,4 km/h (2 Bft)
26.06.2016 13:48 12,8 C 12,8 C 95 % 1017,8 hPa 0,0 mm 2,3 km/h (1 Bft) N-NW 344 0 min 0,000 mm 0,8 UV-I 88 W/m 12,0 C 4,8 km/h (1 Bft)
26.06.2016 13:49 12,8 C 12,8 C 95 % 1017,8 hPa 0,0 mm 3,3 km/h (1 Bft) N 360 0 min 0,000 mm 0,8 UV-I 79 W/m 12,0 C 4,8 km/h (1 Bft)
26.06.2016 13:50 12,7 C 12,8 C 95 % 1017,8 hPa 0,0 mm 2,1 km/h (1 Bft) N 360 0 min 0,000 mm 0,7 UV-I 72 W/m 11,9 C 3,2 km/h (1 Bft)
26.06.2016 13:51 12,7 C 12,7 C 95 % 1017,8 hPa 0,0 mm 1,7 km/h (1 Bft) N 360 0 min 0,000 mm 0,7 UV-I 70 W/m 11,9 C 3,2 km/h (1 Bft)
26.06.2016 13:52 12,7 C 12,7 C 96 % 1017,8 hPa 0,0 mm 1,7 km/h (1 Bft) N 360 0 min 0,000 mm 0,6 UV-I 58 W/m 12,1 C 3,2 km/h (1 Bft)
26.06.2016 13:53 12,7 C 12,7 C 96 % 1017,8 hPa 0,0 mm 2,7 km/h (1 Bft) NO 36 0 min 0,000 mm 0,0 UV-I 53 W/m 12,1 C 4,8 km/h (1 Bft)
26.06.2016 13:54 12,7 C 12,7 C 96 % 1017,8 hPa 0,2 mm 3,2 km/h (1 Bft) NO 45 0 min 0,000 mm 0,0 UV-I 54 W/m 12,1 C 4,8 km/h (1 Bft)
26.06.2016 13:58 12,7 C 12,8 C 95 % 1017,7 hPa 0,0 mm 5,6 km/h (1 Bft) NO 55 0 min 0,000 mm 1,0 UV-I 104 W/m 11,9 C 9,7 km/h (2 Bft)
26.06.2016 13:59 12,7 C 12,7 C 95 % 1017,7 hPa 0,0 mm 2,8 km/h (1 Bft) NO 52 0 min 0,000 mm 0,9 UV-I 90 W/m 11,9 C 6,4 km/h (2 Bft)
26.06.2016 14:00 12,7 C 12,7 C 95 % 1017,8 hPa 0,0 mm 4,2 km/h (1 Bft) O-NO 69 0 min 0,050 mm 0,9 UV-I 88 W/m 11,9 C 8,0 km/h (2 Bft)
26.06.2016 14:01 12,7 C 12,7 C 95 % 1017,9 hPa 0,0 mm 4,4 km/h (1 Bft) NO 37 0 min 0,000 mm 0,8 UV-I 83 W/m 11,9 C 8,0 km/h (2 Bft)
26.06.2016 14:02 12,6 C 12,7 C 94 % 1017,9 hPa 0,0 mm 5,6 km/h (1 Bft) O 92 0 min 0,000 mm 0,8 UV-I 77 W/m 11,7 C 8,0 km/h (2 Bft)
26.06.2016 14:03 12,6 C 12,6 C 93 % 1017,9 hPa 0,0 mm 3,2 km/h (1 Bft) N-NW 337 0 min 0,000 mm 0,7 UV-I 72 W/m 11,5 C 6,4 km/h (2 Bft)
26.06.2016 14:04 12,6 C 12,6 C 94 % 1017,9 hPa 0,0 mm 5,8 km/h (2 Bft) NO 38 0 min 0,000 mm 0,7 UV-I 72 W/m 11,7 C 8,0 km/h (2 Bft)
26.06.2016 14:05 12,5 C 12,6 C 94 % 1017,9 hPa 0,0 mm 2,5 km/h (1 Bft) N-NW 332 0 min 0,000 mm 0,7 UV-I 69 W/m 11,6 C 3,2 km/h (1 Bft)
26.06.2016 14:06 12,4 C 12,5 C 94 % 1017,9 hPa 0,0 mm 3,6 km/h (1 Bft) N 5 0 min 0,000 mm 0,7 UV-I 67 W/m 11,5 C 6,4 km/h (2 Bft)
26.06.2016 14:07 12,4 C 12,4 C 94 % 1017,9 hPa 0,0 mm 5,8 km/h (2 Bft) N 355 0 min 0,000 mm 0,7 UV-I 67 W/m 11,5 C 8,0 km/h (2 Bft)
26.06.2016 14:08 12,4 C 12,4 C 94 % 1017,9 hPa 0,0 mm 3,1 km/h (1 Bft) N-NW 338 0 min 0,000 mm 0,7 UV-I 69 W/m 11,5 C 6,4 km/h (2 Bft)
26.06.2016 14:09 12,4 C 12,4 C 94 % 1017,9 hPa 0,0 mm 2,3 km/h (1 Bft) N-NO 16 0 min 0,000 mm 0,7 UV-I 62 W/m 11,5 C 3,2 km/h (1 Bft)
26.06.2016 14:10 12,4 C 12,4 C 94 % 1017,9 hPa 0,0 mm 1,3 km/h (1 Bft) N-NO 16 0 min 0,000 mm 0,6 UV-I 58 W/m 11,5 C 3,2 km/h (1 Bft)
26.06.2016 14:11 12,3 C 12,4 C 95 % 1017,9 hPa 0,0 mm 1,4 km/h (1 Bft) O-NO 69 0 min 0,000 mm 0,6 UV-I 58 W/m 11,5 C 4,8 km/h (1 Bft)
26.06.2016 14:12 12,3 C 12,4 C 95 % 1017,9 hPa 0,0 mm 4,0 km/h (1 Bft) NO 55 0 min 0,000 mm 0,6 UV-I 58 W/m 11,5 C 6,4 km/h (2 Bft)
26.06.2016 14:13 12,3 C 12,4 C 94 % 1017,9 hPa 0,0 mm 2,4 km/h (1 Bft) NO 55 0 min 0,000 mm 0,6 UV-I 62 W/m 11,4 C 3,2 km/h (1 Bft)
26.06.2016 14:14 12,4 C 12,4 C 95 % 1017,9 hPa 0,0 mm 1,0 km/h (0 Bft) NO 55 0 min 0,000 mm 0,6 UV-I 63 W/m 11,6 C 1,6 km/h (1 Bft)
26.06.2016 14:15 12,4 C 12,4 C 95 % 1017,9 hPa 0,0 mm 0,7 km/h (0 Bft) NO 55 0 min 0,000 mm 0,6 UV-I 65 W/m 11,6 C 1,6 km/h (1 Bft)
26.06.2016 14:16 12,4 C 12,4 C 95 % 1017,9 hPa 0,0 mm 0,1 km/h (0 Bft) NO 55 0 min 0,000 mm 0,7 UV-I 67 W/m 11,6 C 1,6 km/h (1 Bft)
26.06.2016 14:17 12,4 C 12,4 C 95 % 1017,9 hPa 0,0 mm 0,0 km/h (0 Bft) NO 55 0 min 0,000 mm 0,7 UV-I 67 W/m 11,6 C 0,0 km/h (0 Bft)
26.06.2016 14:18 12,3 C 12,4 C 95 % 1017,9 hPa 0,0 mm 1,4 km/h (1 Bft) O 101 0 min 0,000 mm 0,7 UV-I 69 W/m 11,5 C 3,2 km/h (1 Bft)
26.06.2016 14:19 12,3 C 12,3 C 94 % 1017,9 hPa 0,0 mm 3,4 km/h (1 Bft) SO 126 0 min 0,000 mm 0,8 UV-I 70 W/m 11,4 C 4,8 km/h (1 Bft)
26.06.2016 14:20 12,3 C 12,3 C 95 % 1017,9 hPa 0,0 mm 3,2 km/h (1 Bft) O-SO 107 0 min 0,000 mm 0,8 UV-I 70 W/m 11,5 C 4,8 km/h (1 Bft)
26.06.2016 14:21 12,3 C 12,3 C 95 % 1017,9 hPa 0,0 mm 2,3 km/h (1 Bft) O-SO 110 0 min 0,000 mm 0,8 UV-I 77 W/m 11,5 C 3,2 km/h (1 Bft)
26.06.2016 14:22 12,3 C 12,3 C 95 % 1017,9 hPa 0,0 mm 2,4 km/h (1 Bft) O-SO 110 0 min 0,000 mm 0,7 UV-I 69 W/m 11,5 C 3,2 km/h (1 Bft)
26.06.2016 14:23 12,3 C 12,3 C 95 % 1017,9 hPa 0,0 mm 1,6 km/h (1 Bft) O 84 0 min 0,000 mm 0,7 UV-I 63 W/m 11,5 C 3,2 km/h (1 Bft)
26.06.2016 14:24 12,2 C 12,3 C 95 % 1018,0 hPa 0,0 mm 0,0 km/h (0 Bft) O 84 0 min 0,000 mm 0,6 UV-I 62 W/m 11,4 C 0,0 km/h (0 Bft)
26.06.2016 14:25 12,2 C 12,3 C 95 % 1018,0 hPa 0,0 mm 1,7 km/h (1 Bft) O-SO 103 0 min 0,000 mm 0,6 UV-I 62 W/m 11,4 C 3,2 km/h (1 Bft)
26.06.2016 14:26 12,3 C 12,3 C 95 % 1018,0 hPa 0,0 mm 1,9 km/h (1 Bft) O-SO 103 0 min 0,000 mm 0,6 UV-I 63 W/m 11,5 C 3,2 km/h (1 Bft)
26.06.2016 14:27 12,3 C 12,3 C 95 % 1018,0 hPa 0,0 mm 0,3 km/h (0 Bft) O-SO 103 0 min 0,000 mm 0,7 UV-I 69 W/m 11,5 C 1,6 km/h (1 Bft)
26.06.2016 14:28 12,3 C 12,3 C 95 % 1018,0 hPa 0,0 mm 0,1 km/h (0 Bft) O-SO 103 0 min 0,000 mm 0,7 UV-I 70 W/m 11,5 C 1,6 km/h (1 Bft)
26.06.2016 14:29 12,3 C 12,3 C 95 % 1018,0 hPa 0,0 mm 1,6 km/h (1 Bft) O-NO 60 0 min 0,000 mm 0,8 UV-I 76 W/m 11,5 C 4,8 km/h (1 Bft)
26.06.2016 14:30 12,3 C 12,3 C 95 % 1018,0 hPa 0,0 mm 3,3 km/h (1 Bft) O-NO 69 0 min 0,000 mm 0,8 UV-I 81 W/m 11,5 C 6,4 km/h (2 Bft)
26.06.2016 14:31 12,4 C 12,4 C 95 % 1018,0 hPa 0,0 mm 4,3 km/h (1 Bft) O 86 0 min 0,000 mm 0,8 UV-I 84 W/m 11,6 C 6,4 km/h (2 Bft)
26.06.2016 14:32 12,4 C 12,4 C 95 % 1018,0 hPa 0,0 mm 2,2 km/h (1 Bft) O 80 0 min 0,000 mm 0,9 UV-I 88 W/m 11,6 C 4,8 km/h (1 Bft)
26.06.2016 14:33 12,4 C 12,4 C 94 % 1018,0 hPa 0,0 mm 3,9 km/h (1 Bft) O-SO 121 0 min 0,000 mm 0,9 UV-I 91 W/m 11,5 C 4,8 km/h (1 Bft)
26.06.2016 14:34 12,4 C 12,4 C 94 % 1018,0 hPa 0,0 mm 1,3 km/h (1 Bft) O-SO 117 0 min 0,000 mm 0,9 UV-I 91 W/m 11,5 C 3,2 km/h (1 Bft)
26.06.2016 14:35 12,3 C 12,4 C 93 % 1018,0 hPa 0,0 mm 1,7 km/h (1 Bft) O-SO 105 0 min 0,000 mm 0,9 UV-I 91 W/m 11,2 C 3,2 km/h (1 Bft)
26.06.2016 14:36 12,3 C 12,3 C 93 % 1017,9 hPa 0,2 mm 1,9 km/h (1 Bft) O-SO 105 0 min 0,000 mm 0,9 UV-I 93 W/m 11,2 C 3,2 km/h (1 Bft)
26.06.2016 14:37 12,3 C 12,3 C 93 % 1017,9 hPa 0,0 mm 1,3 km/h (1 Bft) O-SO 105 0 min 0,000 mm 0,9 UV-I 95 W/m 11,2 C 3,2 km/h (1 Bft)
26.06.2016 14:38 12,2 C 12,3 C 93 % 1017,9 hPa 0,0 mm 1,6 km/h (1 Bft) O-SO 105 0 min 0,000 mm 1,0 UV-I 102 W/m 11,1 C 1,6 km/h (1 Bft)
26.06.2016 14:39 12,2 C 12,2 C 94 % 1017,9 hPa 0,0 mm 2,3 km/h (1 Bft) O-SO 105 0 min 0,000 mm 1,1 UV-I 111 W/m 11,3 C 3,2 km/h (1 Bft)
26.06.2016 14:40 12,2 C 12,2 C 94 % 1017,9 hPa 0,0 mm 2,3 km/h (1 Bft) O-NO 60 0 min 0,000 mm 1,0 UV-I 109 W/m 11,3 C 3,2 km/h (1 Bft)
26.06.2016 14:41 12,2 C 12,3 C 94 % 1017,9 hPa 0,0 mm 1,9 km/h (1 Bft) NO 52 0 min 0,000 mm 1,0 UV-I 107 W/m 11,3 C 3,2 km/h (1 Bft)
26.06.2016 14:42 12,3 C 12,3 C 94 % 1017,8 hPa 0,0 mm 1,7 km/h (1 Bft) NO 52 0 min 0,000 mm 1,0 UV-I 100 W/m 11,4 C 3,2 km/h (1 Bft)
26.06.2016 14:43 12,2 C 12,3 C 94 % 1017,8 hPa 0,0 mm 2,2 km/h (1 Bft) NO 38 0 min 0,000 mm 0,9 UV-I 95 W/m 11,3 C 3,2 km/h (1 Bft)
26.06.2016 14:44 12,3 C 12,3 C 95 % 1017,8 hPa 0,0 mm 1,5 km/h (1 Bft) NO 46 0 min 0,000 mm 0,9 UV-I 90 W/m 11,5 C 3,2 km/h (1 Bft)
26.06.2016 14:45 12,3 C 12,3 C 96 % 1017,8 hPa 0,0 mm 2,5 km/h (1 Bft) NO 56 0 min 0,000 mm 0,8 UV-I 83 W/m 11,7 C 4,8 km/h (1 Bft)
26.06.2016 14:46 12,3 C 12,3 C 94 % 1017,9 hPa 0,0 mm 2,7 km/h (1 Bft) SO 134 0 min 0,000 mm 0,9 UV-I 91 W/m 11,4 C 4,8 km/h (1 Bft)
26.06.2016 14:47 12,3 C 12,3 C 94 % 1017,8 hPa 0,0 mm 1,9 km/h (1 Bft) O 90 0 min 0,000 mm 1,0 UV-I 107 W/m 11,4 C 3,2 km/h (1 Bft)
26.06.2016 14:48 12,2 C 12,3 C 94 % 1017,8 hPa 0,0 mm 1,8 km/h (1 Bft) O-SO 112 0 min 0,000 mm 1,2 UV-I 123 W/m 11,3 C 6,4 km/h (2 Bft)
26.06.2016 14:49 12,2 C 12,3 C 94 % 1017,8 hPa 0,0 mm 4,2 km/h (1 Bft) O-NO 62 0 min 0,000 mm 1,3 UV-I 134 W/m 11,3 C 6,4 km/h (2 Bft)
26.06.2016 14:50 12,2 C 12,3 C 95 % 1017,8 hPa 0,0 mm 2,5 km/h (1 Bft) NO 54 0 min 0,000 mm 1,3 UV-I 134 W/m 11,4 C 6,4 km/h (2 Bft)
26.06.2016 14:51 12,2 C 12,3 C 95 % 1017,8 hPa 0,0 mm 1,2 km/h (1 Bft) NO 54 0 min 0,000 mm 1,2 UV-I 125 W/m 11,4 C 3,2 km/h (1 Bft)
26.06.2016 14:52 12,3 C 12,3 C 95 % 1017,9 hPa 0,0 mm 0,5 km/h (0 Bft) NO 54 0 min 0,000 mm 1,0 UV-I 105 W/m 11,5 C 1,6 km/h (1 Bft)
26.06.2016 14:53 12,3 C 12,3 C 95 % 1017,8 hPa 0,0 mm 1,3 km/h (1 Bft) NW 324 0 min 0,000 mm 0,8 UV-I 90 W/m 11,5 C 3,2 km/h (1 Bft)
26.06.2016 14:54 12,3 C 12,3 C 94 % 1017,8 hPa 0,0 mm 3,6 km/h (1 Bft) NW 308 0 min 0,000 mm 0,7 UV-I 79 W/m 11,4 C 4,8 km/h (1 Bft)
26.06.2016 14:55 12,3 C 12,3 C 95 % 1017,9 hPa 0,0 mm 2,7 km/h (1 Bft) NW 325 0 min 0,000 mm 0,7 UV-I 74 W/m 11,5 C 4,8 km/h (1 Bft)
26.06.2016 14:56 12,3 C 12,3 C 94 % 1017,8 hPa 0,0 mm 2,3 km/h (1 Bft) NW 306 0 min 0,000 mm 0,6 UV-I 63 W/m 11,4 C 4,8 km/h (1 Bft)
26.06.2016 14:57 12,3 C 12,3 C 94 % 1017,8 hPa 0,0 mm 2,5 km/h (1 Bft) N-NW 334 0 min 0,000 mm 0,6 UV-I 69 W/m 11,4 C 4,8 km/h (1 Bft)
26.06.2016 14:58 12,2 C 12,3 C 94 % 1017,8 hPa 0,0 mm 1,3 km/h (1 Bft) N-NW 329 0 min 0,000 mm 0,7 UV-I 72 W/m 11,3 C 3,2 km/h (1 Bft)
26.06.2016 14:59 12,2 C 12,2 C 94 % 1017,8 hPa 0,2 mm 0,9 km/h (0 Bft) NO 42 0 min 0,000 mm 0,7 UV-I 67 W/m 11,3 C 1,6 km/h (1 Bft)
26.06.2016 15:00 12,2 C 12,2 C 95 % 1017,8 hPa 0,0 mm 2,3 km/h (1 Bft) N-NO 29 0 min 0,000 mm 0,6 UV-I 62 W/m 11,4 C 3,2 km/h (1 Bft)
26.06.2016 15:01 12,2 C 12,2 C 95 % 1017,7 hPa 0,0 mm 2,5 km/h (1 Bft) NO 54 0 min 0,051 mm 0,6 UV-I 65 W/m 11,4 C 4,8 km/h (1 Bft)
26.06.2016 15:02 12,2 C 12,2 C 94 % 1017,8 hPa 0,0 mm 2,3 km/h (1 Bft) NW 319 0 min 0,000 mm 0,7 UV-I 74 W/m 11,3 C 4,8 km/h (1 Bft)
26.06.2016 15:03 12,2 C 12,2 C 95 % 1017,8 hPa 0,0 mm 4,4 km/h (1 Bft) NW 308 0 min 0,000 mm 0,8 UV-I 84 W/m 11,4 C 6,4 km/h (2 Bft)
26.06.2016 15:04 12,2 C 12,2 C 95 % 1017,9 hPa 0,0 mm 3,9 km/h (1 Bft) NW 317 0 min 0,000 mm 0,8 UV-I 81 W/m 11,4 C 6,4 km/h (2 Bft)
26.06.2016 15:05 12,2 C 12,2 C 95 % 1017,9 hPa 0,0 mm 3,5 km/h (1 Bft) N-NW 346 0 min 0,000 mm 0,8 UV-I 83 W/m 11,4 C 6,4 km/h (2 Bft)
26.06.2016 15:06 12,2 C 12,2 C 95 % 1017,9 hPa 0,0 mm 3,3 km/h (1 Bft) N 360 0 min 0,000 mm 0,7 UV-I 76 W/m 11,4 C 4,8 km/h (1 Bft)
26.06.2016 15:07 12,2 C 12,2 C 96 % 1017,9 hPa 0,0 mm 2,2 km/h (1 Bft) N 355 0 min 0,000 mm 0,7 UV-I 74 W/m 11,6 C 3,2 km/h (1 Bft)
26.06.2016 15:08 12,2 C 12,2 C 96 % 1017,9 hPa 0,0 mm 2,1 km/h (1 Bft) N-NO 22 0 min 0,000 mm 0,7 UV-I 77 W/m 11,6 C 4,8 km/h (1 Bft)
26.06.2016 15:09 12,2 C 12,3 C 96 % 1018,0 hPa 0,0 mm 1,5 km/h (1 Bft) N-NO 22 0 min 0,000 mm 0,8 UV-I 83 W/m 11,6 C 3,2 km/h (1 Bft)
26.06.2016 15:10 12,2 C 12,2 C 96 % 1018,0 hPa 0,0 mm 3,7 km/h (1 Bft) NO 37 0 min 0,000 mm 0,9 UV-I 88 W/m 11,6 C 4,8 km/h (1 Bft)
26.06.2016 15:11 12,2 C 12,2 C 94 % 1018,0 hPa 0,0 mm 1,9 km/h (1 Bft) NO 37 0 min 0,000 mm 0,9 UV-I 88 W/m 11,3 C 3,2 km/h (1 Bft)
26.06.2016 15:12 12,2 C 12,2 C 94 % 1018,0 hPa 0,0 mm 1,6 km/h (1 Bft) NO 36 0 min 0,000 mm 0,8 UV-I 83 W/m 11,3 C 3,2 km/h (1 Bft)
26.06.2016 15:13 12,2 C 12,2 C 95 % 1018,0 hPa 0,0 mm 1,5 km/h (1 Bft) NO 36 0 min 0,000 mm 0,8 UV-I 76 W/m 11,4 C 3,2 km/h (1 Bft)
26.06.2016 15:14 12,2 C 12,2 C 95 % 1018,0 hPa 0,0 mm 0,5 km/h (0 Bft) NO 36 0 min 0,000 mm 0,7 UV-I 72 W/m 11,4 C 1,6 km/h (1 Bft)
26.06.2016 15:15 12,2 C 12,2 C 95 % 1018,0 hPa 0,0 mm 0,6 km/h (0 Bft) NO 36 0 min 0,000 mm 0,7 UV-I 69 W/m 11,4 C 1,6 km/h (1 Bft)
26.06.2016 15:16 12,2 C 12,2 C 95 % 1018,1 hPa 0,0 mm 1,9 km/h (1 Bft) NW 312 0 min 0,000 mm 0,6 UV-I 65 W/m 11,4 C 3,2 km/h (1 Bft)
26.06.2016 15:17 12,2 C 12,2 C 96 % 1018,1 hPa 0,0 mm 2,3 km/h (1 Bft) NW 317 0 min 0,000 mm 0,6 UV-I 63 W/m 11,6 C 3,2 km/h (1 Bft)
26.06.2016 15:18 12,2 C 12,2 C 96 % 1018,1 hPa 0,0 mm 0,4 km/h (0 Bft) NW 317 0 min 0,000 mm 0,6 UV-I 63 W/m 11,6 C 1,6 km/h (1 Bft)
26.06.2016 15:19 12,2 C 12,2 C 95 % 1018,1 hPa 0,0 mm 0,0 km/h (0 Bft) NW 317 0 min 0,000 mm 0,6 UV-I 62 W/m 11,4 C 0,0 km/h (0 Bft)
26.06.2016 15:20 12,2 C 12,2 C 95 % 1018,2 hPa 0,0 mm 0,0 km/h (0 Bft) NW 317 0 min 0,000 mm 0,6 UV-I 58 W/m 11,4 C 0,0 km/h (0 Bft)
26.06.2016 15:21 12,1 C 12,2 C 94 % 1018,2 hPa 0,0 mm 1,5 km/h (1 Bft) NW 310 0 min 0,000 mm 0,6 UV-I 56 W/m 11,2 C 3,2 km/h (1 Bft)
26.06.2016 15:22 12,1 C 12,1 C 94 % 1018,2 hPa 0,0 mm 1,1 km/h (1 Bft) NW 310 0 min 0,000 mm 0,0 UV-I 54 W/m 11,2 C 1,6 km/h (1 Bft)
26.06.2016 15:23 12,1 C 12,1 C 94 % 1018,2 hPa 0,0 mm 0,8 km/h (0 Bft) NW 310 0 min 0,000 mm 0,0 UV-I 54 W/m 11,2 C 1,6 km/h (1 Bft)
26.06.2016 15:24 12,1 C 12,1 C 94 % 1018,2 hPa 0,0 mm 1,6 km/h (1 Bft) NW 310 0 min 0,000 mm 0,0 UV-I 53 W/m 11,2 C 3,2 km/h (1 Bft)
26.06.2016 15:25 12,1 C 12,1 C 94 % 1018,2 hPa 0,0 mm 3,1 km/h (1 Bft) W-NW 283 0 min 0,000 mm 0,0 UV-I 53 W/m 11,2 C 4,8 km/h (1 Bft)
26.06.2016 15:26 12,0 C 12,1 C 94 % 1018,2 hPa 0,0 mm 1,9 km/h (1 Bft) W-NW 283 0 min 0,000 mm 0,0 UV-I 51 W/m 11,1 C 3,2 km/h (1 Bft)
26.06.2016 15:27 11,9 C 12,0 C 93 % 1018,2 hPa 0,0 mm 1,8 km/h (1 Bft) W-NW 283 0 min 0,000 mm 0,0 UV-I 51 W/m 10,8 C 3,2 km/h (1 Bft)
26.06.2016 15:28 11,9 C 11,9 C 93 % 1018,3 hPa 0,0 mm 0,4 km/h (0 Bft) W-NW 283 0 min 0,000 mm 0,0 UV-I 49 W/m 10,8 C 1,6 km/h (1 Bft)
26.06.2016 15:29 11,9 C 11,9 C 94 % 1018,3 hPa 0,0 mm 1,3 km/h (1 Bft) W-SW 254 0 min 0,000 mm 0,0 UV-I 49 W/m 11,0 C 3,2 km/h (1 Bft)
26.06.2016 15:30 11,9 C 11,9 C 94 % 1018,3 hPa 0,0 mm 3,0 km/h (1 Bft) W 262 0 min 0,000 mm 0,0 UV-I 49 W/m 11,0 C 3,2 km/h (1 Bft)
26.06.2016 15:31 11,9 C 11,9 C 94 % 1018,4 hPa 0,0 mm 3,2 km/h (1 Bft) W-SW 246 0 min 0,000 mm 0,0 UV-I 49 W/m 11,0 C 4,8 km/h (1 Bft)
26.06.2016 15:32 11,9 C 11,9 C 94 % 1018,4 hPa 0,0 mm 3,2 km/h (1 Bft) W-SW 252 0 min 0,000 mm 0,0 UV-I 53 W/m 11,0 C 4,8 km/h (1 Bft)
26.06.2016 15:33 11,8 C 11,9 C 94 % 1018,3 hPa 0,0 mm 2,4 km/h (1 Bft) W-SW 248 0 min 0,000 mm 0,5 UV-I 56 W/m 10,9 C 3,2 km/h (1 Bft)
26.06.2016 15:34 11,9 C 11,9 C 95 % 1018,3 hPa 0,0 mm 2,8 km/h (1 Bft) W-SW 244 0 min 0,000 mm 0,6 UV-I 62 W/m 11,1 C 4,8 km/h (1 Bft)
26.06.2016 15:35 11,9 C 11,9 C 95 % 1018,3 hPa 0,2 mm 0,5 km/h (0 Bft) W-SW 244 0 min 0,000 mm 0,6 UV-I 65 W/m 11,1 C 1,6 km/h (1 Bft)
26.06.2016 15:36 11,8 C 11,9 C 93 % 1018,3 hPa 0,0 mm 1,2 km/h (1 Bft) W-SW 251 0 min 0,000 mm 0,7 UV-I 69 W/m 10,7 C 3,2 km/h (1 Bft)
26.06.2016 15:37 11,8 C 11,8 C 93 % 1018,3 hPa 0,0 mm 1,6 km/h (1 Bft) W-SW 252 0 min 0,000 mm 0,7 UV-I 76 W/m 10,7 C 1,6 km/h (1 Bft)
26.06.2016 15:38 11,8 C 11,8 C 94 % 1018,4 hPa 0,0 mm 1,5 km/h (1 Bft) W-SW 252 0 min 0,000 mm 0,7 UV-I 77 W/m 10,9 C 1,6 km/h (1 Bft)
26.06.2016 15:39 11,8 C 11,8 C 94 % 1018,3 hPa 0,0 mm 0,8 km/h (0 Bft) W-SW 252 0 min 0,000 mm 0,7 UV-I 79 W/m 10,9 C 1,6 km/h (1 Bft)
26.06.2016 15:40 11,8 C 11,8 C 95 % 1018,3 hPa 0,0 mm 0,6 km/h (0 Bft) W-SW 252 0 min 0,000 mm 0,7 UV-I 79 W/m 11,0 C 3,2 km/h (1 Bft)
26.06.2016 15:41 11,9 C 11,9 C 95 % 1018,3 hPa 0,0 mm 2,5 km/h (1 Bft) W-SW 252 0 min 0,000 mm 0,7 UV-I 79 W/m 11,1 C 3,2 km/h (1 Bft)
26.06.2016 15:42 11,8 C 11,9 C 94 % 1018,4 hPa 0,0 mm 2,4 km/h (1 Bft) W-SW 257 0 min 0,000 mm 0,7 UV-I 79 W/m 10,9 C 3,2 km/h (1 Bft)
26.06.2016 15:43 11,8 C 11,9 C 95 % 1018,4 hPa 0,0 mm 1,9 km/h (1 Bft) W 277 0 min 0,000 mm 0,7 UV-I 76 W/m 11,0 C 3,2 km/h (1 Bft)
26.06.2016 15:44 11,8 C 11,9 C 95 % 1018,4 hPa 0,0 mm 1,7 km/h (1 Bft) W 278 0 min 0,000 mm 0,7 UV-I 76 W/m 11,0 C 3,2 km/h (1 Bft)
26.06.2016 15:45 11,9 C 11,9 C 95 % 1018,4 hPa 0,0 mm 1,4 km/h (1 Bft) W 278 0 min 0,000 mm 0,7 UV-I 77 W/m 11,1 C 3,2 km/h (1 Bft)
26.06.2016 15:46 11,9 C 11,9 C 95 % 1018,4 hPa 0,0 mm 1,3 km/h (1 Bft) W 278 0 min 0,000 mm 0,7 UV-I 81 W/m 11,1 C 1,6 km/h (1 Bft)
26.06.2016 15:47 11,9 C 11,9 C 95 % 1018,4 hPa 0,0 mm 1,6 km/h (1 Bft) W 278 0 min 0,000 mm 0,8 UV-I 84 W/m 11,1 C 3,2 km/h (1 Bft)
26.06.2016 15:48 11,9 C 11,9 C 95 % 1018,4 hPa 0,0 mm 1,6 km/h (1 Bft) W 276 0 min 0,000 mm 0,8 UV-I 88 W/m 11,1 C 3,2 km/h (1 Bft)
26.06.2016 15:49 11,9 C 11,9 C 95 % 1018,4 hPa 0,0 mm 2,0 km/h (1 Bft) W 268 0 min 0,000 mm 0,8 UV-I 98 W/m 11,1 C 3,2 km/h (1 Bft)
26.06.2016 15:50 11,9 C 11,9 C 95 % 1018,4 hPa 0,0 mm 1,7 km/h (1 Bft) W 268 0 min 0,000 mm 0,9 UV-I 104 W/m 11,1 C 3,2 km/h (1 Bft)
26.06.2016 15:51 11,8 C 11,9 C 95 % 1018,3 hPa 0,0 mm 1,6 km/h (1 Bft) NW 307 0 min 0,000 mm 1,0 UV-I 111 W/m 11,0 C 3,2 km/h (1 Bft)
26.06.2016 15:52 11,8 C 11,9 C 94 % 1018,3 hPa 0,2 mm 2,4 km/h (1 Bft) NW 313 0 min 0,000 mm 1,1 UV-I 121 W/m 10,9 C 3,2 km/h (1 Bft)
26.06.2016 15:53 11,8 C 11,8 C 94 % 1018,3 hPa 0,0 mm 3,6 km/h (1 Bft) W 277 0 min 0,000 mm 1,1 UV-I 132 W/m 10,9 C 4,8 km/h (1 Bft)
26.06.2016 15:54 11,8 C 11,9 C 94 % 1018,3 hPa 0,0 mm 4,1 km/h (1 Bft) W-NW 300 0 min 0,000 mm 1,1 UV-I 144 W/m 10,9 C 6,4 km/h (2 Bft)
26.06.2016 15:55 11,9 C 11,9 C 93 % 1018,3 hPa 0,0 mm 4,1 km/h (1 Bft) W-NW 286 0 min 0,000 mm 1,3 UV-I 158 W/m 10,8 C 4,8 km/h (1 Bft)
26.06.2016 15:56 11,8 C 11,9 C 93 % 1018,2 hPa 0,0 mm 4,2 km/h (1 Bft) W-NW 298 0 min 0,000 mm 1,3 UV-I 156 W/m 10,7 C 6,4 km/h (2 Bft)
26.06.2016 15:57 11,8 C 11,8 C 94 % 1018,2 hPa 0,0 mm 2,7 km/h (1 Bft) W-NW 288 0 min 0,000 mm 1,2 UV-I 149 W/m 10,9 C 3,2 km/h (1 Bft)
26.06.2016 15:58 11,8 C 11,8 C 93 % 1018,2 hPa 0,0 mm 1,9 km/h (1 Bft) W-SW 257 0 min 0,000 mm 1,2 UV-I 142 W/m 10,7 C 4,8 km/h (1 Bft)
26.06.2016 15:59 11,8 C 11,8 C 91 % 1018,2 hPa 0,0 mm 4,0 km/h (1 Bft) W-NW 293 0 min 0,000 mm 1,1 UV-I 137 W/m 10,4 C 4,8 km/h (1 Bft)
26.06.2016 16:00 11,8 C 11,8 C 92 % 1018,2 hPa 0,0 mm 4,6 km/h (1 Bft) W-NW 286 0 min 0,051 mm 1,1 UV-I 135 W/m 10,5 C 6,4 km/h (2 Bft)
26.06.2016 16:01 11,7 C 11,8 C 93 % 1018,3 hPa 0,0 mm 4,3 km/h (1 Bft) NW 304 0 min 0,000 mm 1,1 UV-I 139 W/m 10,6 C 6,4 km/h (2 Bft)
26.06.2016 16:02 11,8 C 11,8 C 92 % 1018,3 hPa 0,0 mm 4,0 km/h (1 Bft) W 274 0 min 0,000 mm 1,1 UV-I 141 W/m 10,5 C 6,4 km/h (2 Bft)
26.06.2016 16:03 11,7 C 11,8 C 92 % 1018,2 hPa 0,0 mm 2,7 km/h (1 Bft) W 281 0 min 0,000 mm 1,1 UV-I 139 W/m 10,4 C 3,2 km/h (1 Bft)
26.06.2016 16:04 11,8 C 11,8 C 93 % 1018,2 hPa 0,0 mm 2,5 km/h (1 Bft) W-SW 244 0 min 0,000 mm 1,1 UV-I 134 W/m 10,7 C 4,8 km/h (1 Bft)
26.06.2016 16:05 11,8 C 11,8 C 93 % 1018,2 hPa 0,0 mm 3,1 km/h (1 Bft) W 269 0 min 0,000 mm 1,1 UV-I 134 W/m 10,7 C 4,8 km/h (1 Bft)
26.06.2016 16:06 11,8 C 11,8 C 93 % 1018,1 hPa 0,0 mm 3,4 km/h (1 Bft) W 269 0 min 0,000 mm 1,2 UV-I 148 W/m 10,7 C 4,8 km/h (1 Bft)
26.06.2016 16:07 11,8 C 11,8 C 92 % 1018,1 hPa 0,0 mm 4,3 km/h (1 Bft) W 263 0 min 0,000 mm 1,2 UV-I 156 W/m 10,5 C 9,7 km/h (2 Bft)
26.06.2016 16:08 11,8 C 11,8 C 92 % 1018,2 hPa 0,0 mm 5,2 km/h (1 Bft) W-NW 290 0 min 0,000 mm 1,4 UV-I 167 W/m 10,5 C 6,4 km/h (2 Bft)
26.06.2016 16:09 11,8 C 11,9 C 92 % 1018,1 hPa 0,0 mm 4,0 km/h (1 Bft) W-SW 257 0 min 0,000 mm 1,4 UV-I 172 W/m 10,5 C 6,4 km/h (2 Bft)
26.06.2016 16:10 11,9 C 11,9 C 92 % 1018,1 hPa 0,0 mm 4,1 km/h (1 Bft) W 269 0 min 0,000 mm 1,4 UV-I 172 W/m 10,6 C 4,8 km/h (1 Bft)
26.06.2016 16:11 11,9 C 11,9 C 91 % 1018,2 hPa 0,0 mm 4,2 km/h (1 Bft) W 263 0 min 0,000 mm 1,3 UV-I 172 W/m 10,5 C 4,8 km/h (1 Bft)
26.06.2016 16:12 11,9 C 11,9 C 92 % 1018,2 hPa 0,0 mm 4,8 km/h (1 Bft) W-SW 237 0 min 0,000 mm 1,3 UV-I 165 W/m 10,6 C 6,4 km/h (2 Bft)
26.06.2016 16:13 11,9 C 12,0 C 90 % 1018,2 hPa 0,0 mm 4,2 km/h (1 Bft) W-SW 258 0 min 0,000 mm 1,4 UV-I 176 W/m 10,3 C 6,4 km/h (2 Bft)
26.06.2016 16:14 11,9 C 11,9 C 90 % 1018,2 hPa 0,0 mm 4,0 km/h (1 Bft) W 276 0 min 0,000 mm 1,5 UV-I 183 W/m 10,3 C 6,4 km/h (2 Bft)
26.06.2016 16:15 12,1 C 12,1 C 90 % 1018,3 hPa 0,0 mm 3,2 km/h (1 Bft) W-NW 302 0 min 0,000 mm 1,5 UV-I 190 W/m 10,5 C 4,8 km/h (1 Bft)
26.06.2016 16:16 12,1 C 12,1 C 91 % 1018,3 hPa 0,0 mm 3,6 km/h (1 Bft) W-SW 250 0 min 0,000 mm 1,6 UV-I 195 W/m 10,7 C 6,4 km/h (2 Bft)
26.06.2016 16:17 12,1 C 12,1 C 92 % 1018,3 hPa 0,0 mm 3,3 km/h (1 Bft) W 268 0 min 0,000 mm 1,6 UV-I 199 W/m 10,8 C 4,8 km/h (1 Bft)
26.06.2016 16:18 12,2 C 12,2 C 92 % 1018,3 hPa 0,0 mm 3,4 km/h (1 Bft) W-SW 246 0 min 0,000 mm 1,6 UV-I 200 W/m 10,9 C 6,4 km/h (2 Bft)
26.06.2016 16:19 12,2 C 12,2 C 91 % 1018,3 hPa 0,0 mm 3,0 km/h (1 Bft) W-SW 254 0 min 0,000 mm 1,6 UV-I 197 W/m 10,8 C 4,8 km/h (1 Bft)
26.06.2016 16:20 12,3 C 12,3 C 93 % 1018,3 hPa 0,0 mm 4,0 km/h (1 Bft) W-SW 245 0 min 0,000 mm 1,5 UV-I 188 W/m 11,2 C 4,8 km/h (1 Bft)
26.06.2016 16:21 12,3 C 12,3 C 93 % 1018,3 hPa 0,0 mm 2,1 km/h (1 Bft) S 189 0 min 0,000 mm 1,5 UV-I 178 W/m 11,2 C 4,8 km/h (1 Bft)
26.06.2016 16:22 12,3 C 12,3 C 93 % 1018,3 hPa 0,0 mm 1,4 km/h (1 Bft) S 182 0 min 0,000 mm 1,4 UV-I 171 W/m 11,2 C 3,2 km/h (1 Bft)
26.06.2016 16:23 12,3 C 12,4 C 91 % 1018,3 hPa 0,0 mm 1,5 km/h (1 Bft) S 182 0 min 0,000 mm 1,4 UV-I 167 W/m 10,9 C 3,2 km/h (1 Bft)
26.06.2016 16:24 12,4 C 12,4 C 92 % 1018,3 hPa 0,0 mm 2,3 km/h (1 Bft) SW 225 0 min 0,000 mm 1,4 UV-I 167 W/m 11,1 C 6,4 km/h (2 Bft)
26.06.2016 16:25 12,4 C 12,4 C 92 % 1018,4 hPa 0,0 mm 1,9 km/h (1 Bft) S 182 0 min 0,000 mm 1,4 UV-I 165 W/m 11,1 C 3,2 km/h (1 Bft)
26.06.2016 16:26 12,3 C 12,4 C 92 % 1018,3 hPa 0,0 mm 3,2 km/h (1 Bft) S 180 0 min 0,000 mm 1,4 UV-I 163 W/m 11,0 C 4,8 km/h (1 Bft)
26.06.2016 16:27 12,3 C 12,3 C 92 % 1018,3 hPa 0,0 mm 2,5 km/h (1 Bft) S 174 0 min 0,000 mm 1,4 UV-I 162 W/m 11,0 C 6,4 km/h (2 Bft)
26.06.2016 16:28 12,2 C 12,3 C 91 % 1018,3 hPa 0,0 mm 3,0 km/h (1 Bft) S 184 0 min 0,000 mm 1,3 UV-I 158 W/m 10,8 C 4,8 km/h (1 Bft)
26.06.2016 16:29 12,2 C 12,2 C 92 % 1018,3 hPa 0,0 mm 3,0 km/h (1 Bft) S 173 0 min 0,000 mm 1,3 UV-I 155 W/m 10,9 C 3,2 km/h (1 Bft)
26.06.2016 16:30 12,2 C 12,2 C 91 % 1018,3 hPa 0,0 mm 4,0 km/h (1 Bft) S-SO 166 0 min 0,000 mm 1,3 UV-I 155 W/m 10,8 C 6,4 km/h (2 Bft)
26.06.2016 16:31 12,2 C 12,2 C 91 % 1018,3 hPa 0,0 mm 2,8 km/h (1 Bft) S-SO 167 0 min 0,000 mm 1,3 UV-I 155 W/m 10,8 C 4,8 km/h (1 Bft)
26.06.2016 16:32 12,2 C 12,2 C 90 % 1018,3 hPa 0,0 mm 2,8 km/h (1 Bft) S 184 0 min 0,000 mm 1,3 UV-I 155 W/m 10,6 C 4,8 km/h (1 Bft)
26.06.2016 16:33 12,2 C 12,2 C 92 % 1018,3 hPa 0,0 mm 2,3 km/h (1 Bft) S 169 0 min 0,000 mm 1,3 UV-I 156 W/m 10,9 C 3,2 km/h (1 Bft)
26.06.2016 16:34 12,2 C 12,2 C 94 % 1018,3 hPa 0,0 mm 3,2 km/h (1 Bft) W-SW 249 0 min 0,000 mm 1,3 UV-I 160 W/m 11,3 C 4,8 km/h (1 Bft)
26.06.2016 16:35 12,2 C 12,2 C 94 % 1018,3 hPa 0,0 mm 2,4 km/h (1 Bft) S 179 0 min 0,000 mm 1,3 UV-I 163 W/m 11,3 C 3,2 km/h (1 Bft)
26.06.2016 16:36 12,2 C 12,2 C 93 % 1018,3 hPa 0,0 mm 3,2 km/h (1 Bft) S 170 0 min 0,000 mm 1,3 UV-I 174 W/m 11,1 C 6,4 km/h (2 Bft)
26.06.2016 16:37 12,2 C 12,2 C 91 % 1018,3 hPa 0,0 mm 4,1 km/h (1 Bft) S-SO 167 0 min 0,000 mm 1,4 UV-I 176 W/m 10,8 C 6,4 km/h (2 Bft)
26.06.2016 16:38 12,2 C 12,2 C 91 % 1018,3 hPa 0,0 mm 2,1 km/h (1 Bft) S 173 0 min 0,000 mm 1,4 UV-I 176 W/m 10,8 C 4,8 km/h (1 Bft)
26.06.2016 16:39 12,3 C 12,3 C 93 % 1018,3 hPa 0,0 mm 2,5 km/h (1 Bft) S 171 0 min 0,000 mm 1,3 UV-I 171 W/m 11,2 C 3,2 km/h (1 Bft)
26.06.2016 16:40 12,3 C 12,3 C 93 % 1018,4 hPa 0,0 mm 2,0 km/h (1 Bft) S 169 0 min 0,000 mm 1,3 UV-I 162 W/m 11,2 C 3,2 km/h (1 Bft)
26.06.2016 16:41 12,3 C 12,3 C 92 % 1018,4 hPa 0,0 mm 1,0 km/h (0 Bft) S 169 0 min 0,000 mm 1,2 UV-I 149 W/m 11,0 C 1,6 km/h (1 Bft)
26.06.2016 16:42 12,3 C 12,3 C 92 % 1018,4 hPa 0,0 mm 1,5 km/h (1 Bft) S 169 0 min 0,000 mm 1,1 UV-I 142 W/m 11,0 C 3,2 km/h (1 Bft)
26.06.2016 16:43 12,4 C 12,4 C 90 % 1018,4 hPa 0,0 mm 2,3 km/h (1 Bft) S-SW 192 0 min 0,000 mm 1,0 UV-I 130 W/m 10,8 C 3,2 km/h (1 Bft)
26.06.2016 16:44 12,4 C 12,4 C 92 % 1018,4 hPa 0,0 mm 3,4 km/h (1 Bft) S 171 0 min 0,000 mm 1,0 UV-I 116 W/m 11,1 C 6,4 km/h (2 Bft)
26.06.2016 16:45 12,4 C 12,4 C 92 % 1018,4 hPa 0,0 mm 2,8 km/h (1 Bft) S-SO 150 0 min 0,000 mm 1,0 UV-I 111 W/m 11,1 C 3,2 km/h (1 Bft)
26.06.2016 16:46 12,4 C 12,4 C 92 % 1018,3 hPa 0,0 mm 3,6 km/h (1 Bft) S-SO 159 0 min 0,000 mm 1,0 UV-I 111 W/m 11,1 C 6,4 km/h (2 Bft)
26.06.2016 16:47 12,3 C 12,4 C 93 % 1018,4 hPa 0,0 mm 2,8 km/h (1 Bft) S-SO 159 0 min 0,000 mm 1,0 UV-I 121 W/m 11,2 C 6,4 km/h (2 Bft)
26.06.2016 16:48 12,3 C 12,3 C 93 % 1018,4 hPa 0,0 mm 2,8 km/h (1 Bft) S-SO 159 0 min 0,000 mm 1,2 UV-I 130 W/m 11,2 C 3,2 km/h (1 Bft)
26.06.2016 16:49 12,2 C 12,3 C 91 % 1018,3 hPa 0,0 mm 4,3 km/h (1 Bft) S-SO 160 0 min 0,000 mm 1,2 UV-I 134 W/m 10,8 C 6,4 km/h (2 Bft)
26.06.2016 16:50 12,3 C 12,3 C 92 % 1018,4 hPa 0,0 mm 2,8 km/h (1 Bft) S 174 0 min 0,000 mm 1,2 UV-I 132 W/m 11,0 C 3,2 km/h (1 Bft)
26.06.2016 16:51 12,2 C 12,3 C 94 % 1018,3 hPa 0,0 mm 2,3 km/h (1 Bft) S 173 0 min 0,000 mm 1,1 UV-I 127 W/m 11,3 C 3,2 km/h (1 Bft)
26.06.2016 16:52 12,2 C 12,3 C 94 % 1018,3 hPa 0,0 mm 2,3 km/h (1 Bft) S 173 0 min 0,000 mm 1,1 UV-I 120 W/m 11,3 C 3,2 km/h (1 Bft)
26.06.2016 16:53 12,2 C 12,3 C 94 % 1018,3 hPa 0,0 mm 2,5 km/h (1 Bft) S-SO 167 0 min 0,000 mm 1,0 UV-I 107 W/m 11,3 C 4,8 km/h (1 Bft)
26.06.2016 16:54 12,2 C 12,3 C 94 % 1018,4 hPa 0,0 mm 1,6 km/h (1 Bft) S-SW 192 0 min 0,000 mm 0,9 UV-I 105 W/m 11,3 C 4,8 km/h (1 Bft)
26.06.2016 16:55 12,3 C 12,3 C 93 % 1018,4 hPa 0,0 mm 3,2 km/h (1 Bft) S-SW 202 0 min 0,000 mm 0,9 UV-I 105 W/m 11,2 C 4,8 km/h (1 Bft)
26.06.2016 16:59 12,4 C 12,4 C 95 % 1018,4 hPa 0,0 mm 1,9 km/h (1 Bft) S 186 0 min 0,000 mm 1,0 UV-I 134 W/m 11,6 C 4,8 km/h (1 Bft)
26.06.2016 17:00 12,4 C 12,4 C 93 % 1018,4 hPa 0,0 mm 0,0 km/h (0 Bft) S 186 0 min 0,076 mm 1,1 UV-I 135 W/m 11,3 C 0,0 km/h (0 Bft)
26.06.2016 17:01 12,4 C 12,4 C 93 % 1018,4 hPa 0,0 mm 2,1 km/h (1 Bft) S-SW 197 0 min 0,000 mm 1,1 UV-I 137 W/m 11,3 C 4,8 km/h (1 Bft)
26.06.2016 17:02 12,4 C 12,4 C 93 % 1018,3 hPa 0,0 mm 2,0 km/h (1 Bft) S-SW 194 0 min 0,000 mm 1,1 UV-I 137 W/m 11,3 C 3,2 km/h (1 Bft)
26.06.2016 17:03 12,4 C 12,4 C 93 % 1018,3 hPa 0,0 mm 1,5 km/h (1 Bft) S 176 0 min 0,000 mm 1,1 UV-I 130 W/m 11,3 C 3,2 km/h (1 Bft)
26.06.2016 17:04 12,4 C 12,4 C 94 % 1018,3 hPa 0,0 mm 3,3 km/h (1 Bft) S-SO 159 0 min 0,000 mm 1,1 UV-I 118 W/m 11,5 C 4,8 km/h (1 Bft)
26.06.2016 17:05 12,4 C 12,4 C 93 % 1018,3 hPa 0,0 mm 3,4 km/h (1 Bft) S 176 0 min 0,000 mm 1,0 UV-I 97 W/m 11,3 C 6,4 km/h (2 Bft)
26.06.2016 17:06 12,4 C 12,4 C 94 % 1018,4 hPa 0,0 mm 1,3 km/h (1 Bft) S 175 0 min 0,000 mm 0,9 UV-I 91 W/m 11,5 C 3,2 km/h (1 Bft)
26.06.2016 17:07 12,4 C 12,4 C 94 % 1018,3 hPa 0,0 mm 1,3 km/h (1 Bft) S 179 0 min 0,000 mm 0,8 UV-I 88 W/m 11,5 C 3,2 km/h (1 Bft)
26.06.2016 17:08 12,5 C 12,5 C 94 % 1018,3 hPa 0,0 mm 1,5 km/h (1 Bft) S-SO 147 0 min 0,000 mm 0,8 UV-I 86 W/m 11,6 C 3,2 km/h (1 Bft)
26.06.2016 17:09 12,5 C 12,5 C 93 % 1018,3 hPa 0,0 mm 3,0 km/h (1 Bft) S-SW 192 0 min 0,000 mm 0,8 UV-I 83 W/m 11,4 C 6,4 km/h (2 Bft)
26.06.2016 17:10 12,5 C 12,5 C 93 % 1018,3 hPa 0,0 mm 3,7 km/h (1 Bft) S 186 0 min 0,000 mm 0,7 UV-I 81 W/m 11,4 C 6,4 km/h (2 Bft)
26.06.2016 17:11 12,5 C 12,5 C 93 % 1018,3 hPa 0,0 mm 3,1 km/h (1 Bft) S-SW 192 0 min 0,000 mm 0,7 UV-I 84 W/m 11,4 C 4,8 km/h (1 Bft)
26.06.2016 17:12 12,4 C 12,5 C 93 % 1018,4 hPa 0,0 mm 2,8 km/h (1 Bft) SW 223 0 min 0,000 mm 0,8 UV-I 86 W/m 11,3 C 4,8 km/h (1 Bft)
26.06.2016 17:13 12,4 C 12,4 C 93 % 1018,3 hPa 0,0 mm 0,8 km/h (0 Bft) SW 216 0 min 0,000 mm 0,8 UV-I 90 W/m 11,3 C 3,2 km/h (1 Bft)
26.06.2016 17:14 12,4 C 12,5 C 92 % 1018,3 hPa 0,0 mm 0,9 km/h (0 Bft) SW 216 0 min 0,000 mm 0,8 UV-I 91 W/m 11,1 C 1,6 km/h (1 Bft)
26.06.2016 17:15 12,4 C 12,4 C 93 % 1018,3 hPa 0,0 mm 0,7 km/h (0 Bft) S-SW 205 0 min 0,000 mm 0,8 UV-I 93 W/m 11,3 C 1,6 km/h (1 Bft)
26.06.2016 17:16 12,4 C 12,4 C 93 % 1018,3 hPa 0,0 mm 1,5 km/h (1 Bft) S-SW 202 0 min 0,000 mm 0,8 UV-I 95 W/m 11,3 C 3,2 km/h (1 Bft)
26.06.2016 17:17 12,4 C 12,4 C 93 % 1018,3 hPa 0,0 mm 1,1 km/h (1 Bft) S 184 0 min 0,000 mm 0,8 UV-I 97 W/m 11,3 C 3,2 km/h (1 Bft)
26.06.2016 17:18 12,5 C 12,5 C 93 % 1018,2 hPa 0,0 mm 2,1 km/h (1 Bft) S-SW 197 0 min 0,000 mm 0,8 UV-I 95 W/m 11,4 C 3,2 km/h (1 Bft)
26.06.2016 17:19 12,4 C 12,5 C 93 % 1018,2 hPa 0,0 mm 2,2 km/h (1 Bft) S-SW 195 0 min 0,000 mm 0,8 UV-I 91 W/m 11,3 C 4,8 km/h (1 Bft)
26.06.2016 17:20 12,4 C 12,4 C 92 % 1018,3 hPa 0,0 mm 4,1 km/h (1 Bft) S 184 0 min 0,000 mm 0,7 UV-I 88 W/m 11,1 C 6,4 km/h (2 Bft)
26.06.2016 17:21 12,4 C 12,4 C 93 % 1018,3 hPa 0,0 mm 4,6 km/h (1 Bft) S-SO 147 0 min 0,000 mm 0,7 UV-I 86 W/m 11,3 C 8,0 km/h (2 Bft)
26.06.2016 17:22 12,4 C 12,4 C 93 % 1018,3 hPa 0,0 mm 4,2 km/h (1 Bft) S-SW 197 0 min 0,000 mm 0,7 UV-I 90 W/m 11,3 C 6,4 km/h (2 Bft)
26.06.2016 17:23 12,4 C 12,4 C 93 % 1018,3 hPa 0,0 mm 3,1 km/h (1 Bft) S-SO 159 0 min 0,000 mm 0,7 UV-I 95 W/m 11,3 C 4,8 km/h (1 Bft)
26.06.2016 17:24 12,4 C 12,4 C 92 % 1018,3 hPa 0,0 mm 3,2 km/h (1 Bft) S 175 0 min 0,000 mm 0,8 UV-I 98 W/m 11,1 C 3,2 km/h (1 Bft)
26.06.2016 17:25 12,4 C 12,4 C 93 % 1018,3 hPa 0,0 mm 3,2 km/h (1 Bft) S 180 0 min 0,000 mm 0,8 UV-I 98 W/m 11,3 C 4,8 km/h (1 Bft)
26.06.2016 17:26 12,4 C 12,4 C 93 % 1018,3 hPa 0,0 mm 4,0 km/h (1 Bft) S-SW 198 0 min 0,000 mm 0,8 UV-I 100 W/m 11,3 C 6,4 km/h (2 Bft)
26.06.2016 17:27 12,4 C 12,4 C 92 % 1018,3 hPa 0,0 mm 2,9 km/h (1 Bft) S-SW 212 0 min 0,000 mm 0,8 UV-I 102 W/m 11,1 C 4,8 km/h (1 Bft)
26.06.2016 17:28 12,4 C 12,4 C 93 % 1018,3 hPa 0,0 mm 2,5 km/h (1 Bft) S 186 0 min 0,000 mm 0,8 UV-I 102 W/m 11,3 C 4,8 km/h (1 Bft)
26.06.2016 17:29 12,4 C 12,4 C 93 % 1018,3 hPa 0,0 mm 1,5 km/h (1 Bft) S 188 0 min 0,000 mm 0,8 UV-I 97 W/m 11,3 C 3,2 km/h (1 Bft)
26.06.2016 17:30 12,4 C 12,4 C 93 % 1018,2 hPa 0,0 mm 1,4 km/h (1 Bft) S 188 0 min 0,000 mm 0,8 UV-I 93 W/m 11,3 C 3,2 km/h (1 Bft)
26.06.2016 17:31 12,4 C 12,4 C 94 % 1018,2 hPa 0,0 mm 0,2 km/h (0 Bft) S 188 0 min 0,000 mm 0,7 UV-I 91 W/m 11,5 C 1,6 km/h (1 Bft)
26.06.2016 17:32 12,4 C 12,4 C 95 % 1018,2 hPa 0,0 mm 0,7 km/h (0 Bft) S 188 0 min 0,000 mm 0,7 UV-I 91 W/m 11,6 C 1,6 km/h (1 Bft)
26.06.2016 17:33 12,4 C 12,4 C 94 % 1018,2 hPa 0,0 mm 0,6 km/h (0 Bft) S 172 0 min 0,000 mm 0,7 UV-I 88 W/m 11,5 C 1,6 km/h (1 Bft)
26.06.2016 17:34 12,4 C 12,4 C 94 % 1018,2 hPa 0,0 mm 0,5 km/h (0 Bft) S 172 0 min 0,000 mm 0,7 UV-I 79 W/m 11,5 C 1,6 km/h (1 Bft)
26.06.2016 17:35 12,4 C 12,4 C 95 % 1018,2 hPa 0,0 mm 1,4 km/h (1 Bft) S 172 0 min 0,000 mm 0,6 UV-I 76 W/m 11,6 C 3,2 km/h (1 Bft)
26.06.2016 17:36 12,4 C 12,4 C 95 % 1018,3 hPa 0,0 mm 1,5 km/h (1 Bft) S 180 0 min 0,000 mm 0,6 UV-I 72 W/m 11,6 C 3,2 km/h (1 Bft)
26.06.2016 17:37 12,4 C 12,4 C 94 % 1018,2 hPa 0,0 mm 1,1 km/h (1 Bft) S-SO 161 0 min 0,000 mm 0,5 UV-I 70 W/m 11,5 C 1,6 km/h (1 Bft)
26.06.2016 17:38 12,4 C 12,4 C 93 % 1018,3 hPa 0,0 mm 1,3 km/h (1 Bft) S-SO 161 0 min 0,000 mm 0,5 UV-I 70 W/m 11,3 C 3,2 km/h (1 Bft)
26.06.2016 17:39 12,4 C 12,4 C 93 % 1018,3 hPa 0,0 mm 1,3 km/h (1 Bft) S-SO 161 0 min 0,000 mm 0,5 UV-I 70 W/m 11,3 C 3,2 km/h (1 Bft)
26.06.2016 17:40 12,4 C 12,4 C 94 % 1018,3 hPa 0,0 mm 1,1 km/h (1 Bft) S-SO 161 0 min 0,000 mm 0,5 UV-I 70 W/m 11,5 C 3,2 km/h (1 Bft)
26.06.2016 17:41 12,3 C 12,4 C 94 % 1018,3 hPa 0,0 mm 0,5 km/h (0 Bft) S-SO 163 0 min 0,000 mm 0,5 UV-I 70 W/m 11,4 C 1,6 km/h (1 Bft)
26.06.2016 17:42 12,4 C 12,4 C 94 % 1018,3 hPa 0,0 mm 1,3 km/h (1 Bft) S-SO 159 0 min 0,000 mm 0,5 UV-I 72 W/m 11,5 C 1,6 km/h (1 Bft)
26.06.2016 17:43 12,4 C 12,4 C 93 % 1018,3 hPa 0,0 mm 0,6 km/h (0 Bft) S-SO 159 0 min 0,000 mm 0,5 UV-I 72 W/m 11,3 C 1,6 km/h (1 Bft)
26.06.2016 17:44 12,4 C 12,4 C 94 % 1018,3 hPa 0,0 mm 0,7 km/h (0 Bft) S-SO 159 0 min 0,000 mm 0,5 UV-I 72 W/m 11,5 C 1,6 km/h (1 Bft)
26.06.2016 17:45 12,4 C 12,4 C 94 % 1018,4 hPa 0,0 mm 0,8 km/h (0 Bft) S-SO 159 0 min 0,000 mm 0,5 UV-I 72 W/m 11,5 C 1,6 km/h (1 Bft)
26.06.2016 17:46 12,4 C 12,4 C 94 % 1018,4 hPa 0,0 mm 0,1 km/h (0 Bft) S-SO 159 0 min 0,000 mm 0,5 UV-I 74 W/m 11,5 C 1,6 km/h (1 Bft)
26.06.2016 17:47 12,4 C 12,4 C 94 % 1018,4 hPa 0,0 mm 0,5 km/h (0 Bft) S-SO 159 0 min 0,000 mm 0,6 UV-I 77 W/m 11,5 C 1,6 km/h (1 Bft)
26.06.2016 17:48 12,4 C 12,4 C 94 % 1018,3 hPa 0,0 mm 0,3 km/h (0 Bft) S-SO 159 0 min 0,000 mm 0,6 UV-I 83 W/m 11,5 C 1,6 km/h (1 Bft)
26.06.2016 17:49 12,4 C 12,4 C 94 % 1018,3 hPa 0,0 mm 0,8 km/h (0 Bft) S-SO 159 0 min 0,000 mm 0,6 UV-I 88 W/m 11,5 C 3,2 km/h (1 Bft)
26.06.2016 17:50 12,4 C 12,4 C 95 % 1018,3 hPa 0,0 mm 2,1 km/h (1 Bft) S-SO 156 0 min 0,000 mm 0,6 UV-I 90 W/m 11,6 C 3,2 km/h (1 Bft)
26.06.2016 17:51 12,3 C 12,4 C 95 % 1018,3 hPa 0,0 mm 1,3 km/h (1 Bft) S-SO 155 0 min 0,000 mm 0,6 UV-I 90 W/m 11,5 C 3,2 km/h (1 Bft)
26.06.2016 17:52 12,3 C 12,3 C 95 % 1018,3 hPa 0,0 mm 0,5 km/h (0 Bft) S-SO 155 0 min 0,000 mm 0,6 UV-I 97 W/m 11,5 C 1,6 km/h (1 Bft)
26.06.2016 17:53 12,3 C 12,3 C 95 % 1018,3 hPa 0,0 mm 0,1 km/h (0 Bft) S-SO 155 0 min 0,000 mm 0,7 UV-I 98 W/m 11,5 C 1,6 km/h (1 Bft)
26.06.2016 17:54 12,3 C 12,3 C 94 % 1018,2 hPa 0,0 mm 0,6 km/h (0 Bft) S-SW 192 0 min 0,000 mm 0,6 UV-I 100 W/m 11,4 C 1,6 km/h (1 Bft)
26.06.2016 17:55 12,3 C 12,3 C 94 % 1018,2 hPa 0,0 mm 0,3 km/h (0 Bft) S-SW 192 0 min 0,000 mm 0,6 UV-I 98 W/m 11,4 C 1,6 km/h (1 Bft)
26.06.2016 17:56 12,3 C 12,3 C 94 % 1018,2 hPa 0,0 mm 0,2 km/h (0 Bft) S-SW 192 0 min 0,000 mm 0,6 UV-I 91 W/m 11,4 C 1,6 km/h (1 Bft)
26.06.2016 17:57 12,3 C 12,3 C 95 % 1018,2 hPa 0,0 mm 0,6 km/h (0 Bft) S-SW 192 0 min 0,000 mm 0,6 UV-I 86 W/m 11,5 C 1,6 km/h (1 Bft)
26.06.2016 17:58 12,4 C 12,4 C 95 % 1018,2 hPa 0,0 mm 0,4 km/h (0 Bft) S-SW 192 0 min 0,000 mm 0,6 UV-I 84 W/m 11,6 C 1,6 km/h (1 Bft)
26.06.2016 17:59 12,4 C 12,4 C 95 % 1018,2 hPa 0,0 mm 0,6 km/h (0 Bft) S-SW 192 0 min 0,000 mm 0,6 UV-I 81 W/m 11,6 C 1,6 km/h (1 Bft)
26.06.2016 18:00 12,4 C 12,4 C 95 % 1018,2 hPa 0,0 mm 1,1 km/h (1 Bft) S 182 0 min 0,000 mm 0,6 UV-I 77 W/m 11,6 C 3,2 km/h (1 Bft)
26.06.2016 18:01 12,4 C 12,4 C 95 % 1018,2 hPa 0,0 mm 0,1 km/h (0 Bft) S 182 0 min 0,051 mm 0,6 UV-I 72 W/m 11,6 C 1,6 km/h (1 Bft)
26.06.2016 18:02 12,4 C 12,4 C 95 % 1018,2 hPa 0,0 mm 0,3 km/h (0 Bft) S 182 0 min 0,000 mm 0,6 UV-I 67 W/m 11,6 C 1,6 km/h (1 Bft)
26.06.2016 18:03 12,4 C 12,4 C 95 % 1018,2 hPa 0,0 mm 0,1 km/h (0 Bft) S 182 0 min 0,000 mm 0,5 UV-I 62 W/m 11,6 C 1,6 km/h (1 Bft)
26.06.2016 18:04 12,4 C 12,4 C 95 % 1018,2 hPa 0,0 mm 0,1 km/h (0 Bft) S 182 0 min 0,000 mm 0,5 UV-I 51 W/m 11,6 C 1,6 km/h (1 Bft)
26.06.2016 18:05 12,4 C 12,4 C 95 % 1018,2 hPa 0,0 mm 0,1 km/h (0 Bft) S 182 0 min 0,000 mm 0,0 UV-I 49 W/m 11,6 C 1,6 km/h (1 Bft)
26.06.2016 18:06 12,4 C 12,4 C 94 % 1018,2 hPa 0,0 mm 0,1 km/h (0 Bft) S 182 0 min 0,000 mm 0,0 UV-I 49 W/m 11,5 C 1,6 km/h (1 Bft)
26.06.2016 18:07 12,4 C 12,4 C 94 % 1018,2 hPa 0,0 mm 0,5 km/h (0 Bft) S 182 0 min 0,000 mm 0,0 UV-I 49 W/m 11,5 C 1,6 km/h (1 Bft)
26.06.2016 18:08 12,4 C 12,4 C 95 % 1018,2 hPa 0,0 mm 0,8 km/h (0 Bft) S 182 0 min 0,000 mm 0,0 UV-I 54 W/m 11,6 C 1,6 km/h (1 Bft)
26.06.2016 18:09 12,4 C 12,4 C 95 % 1018,2 hPa 0,0 mm 0,5 km/h (0 Bft) S 182 0 min 0,000 mm 0,5 UV-I 67 W/m 11,6 C 3,2 km/h (1 Bft)
26.06.2016 18:10 12,4 C 12,4 C 95 % 1018,2 hPa 0,0 mm 1,5 km/h (1 Bft) S 181 0 min 0,000 mm 0,5 UV-I 77 W/m 11,6 C 3,2 km/h (1 Bft)
26.06.2016 18:11 12,4 C 12,4 C 95 % 1018,2 hPa 0,0 mm 0,3 km/h (0 Bft) S 181 0 min 0,000 mm 0,6 UV-I 88 W/m 11,6 C 1,6 km/h (1 Bft)
26.06.2016 18:12 12,4 C 12,4 C 94 % 1018,1 hPa 0,0 mm 0,0 km/h (0 Bft) S 181 0 min 0,000 mm 0,6 UV-I 95 W/m 11,5 C 0,0 km/h (0 Bft)
26.06.2016 18:13 12,4 C 12,4 C 95 % 1018,2 hPa 0,0 mm 0,0 km/h (0 Bft) S 181 0 min 0,000 mm 0,6 UV-I 97 W/m 11,6 C 0,0 km/h (0 Bft)
26.06.2016 18:14 12,4 C 12,4 C 95 % 1018,2 hPa 0,0 mm 0,0 km/h (0 Bft) S 181 0 min 0,000 mm 0,6 UV-I 93 W/m 11,6 C 0,0 km/h (0 Bft)
26.06.2016 18:15 12,4 C 12,4 C 94 % 1018,2 hPa 0,0 mm 1,7 km/h (1 Bft) S 181 0 min 0,000 mm 0,6 UV-I 88 W/m 11,5 C 3,2 km/h (1 Bft)
26.06.2016 18:16 12,4 C 12,4 C 93 % 1018,2 hPa 0,0 mm 0,9 km/h (0 Bft) S 181 0 min 0,000 mm 0,6 UV-I 88 W/m 11,3 C 1,6 km/h (1 Bft)
26.06.2016 18:17 12,4 C 12,4 C 92 % 1018,2 hPa 0,0 mm 2,3 km/h (1 Bft) S 182 0 min 0,000 mm 0,6 UV-I 86 W/m 11,1 C 3,2 km/h (1 Bft)
26.06.2016 18:18 12,4 C 12,4 C 91 % 1018,3 hPa 0,0 mm 2,4 km/h (1 Bft) S 184 0 min 0,000 mm 0,6 UV-I 86 W/m 11,0 C 3,2 km/h (1 Bft)
26.06.2016 18:19 12,5 C 12,5 C 92 % 1018,2 hPa 0,0 mm 2,5 km/h (1 Bft) S-SO 159 0 min 0,000 mm 0,5 UV-I 77 W/m 11,2 C 6,4 km/h (2 Bft)
26.06.2016 18:20 12,5 C 12,5 C 92 % 1018,2 hPa 0,0 mm 3,4 km/h (1 Bft) S-SO 156 0 min 0,000 mm 0,5 UV-I 77 W/m 11,2 C 6,4 km/h (2 Bft)
26.06.2016 18:21 12,5 C 12,5 C 92 % 1018,3 hPa 0,0 mm 2,8 km/h (1 Bft) S-SO 159 0 min 0,000 mm 0,5 UV-I 65 W/m 11,2 C 4,8 km/h (1 Bft)
26.06.2016 18:22 12,5 C 12,6 C 93 % 1018,3 hPa 0,0 mm 1,7 km/h (1 Bft) S-SO 164 0 min 0,000 mm 0,5 UV-I 60 W/m 11,4 C 3,2 km/h (1 Bft)
26.06.2016 18:23 12,6 C 12,6 C 92 % 1018,3 hPa 0,0 mm 1,6 km/h (1 Bft) S-SO 165 0 min 0,000 mm 0,0 UV-I 54 W/m 11,3 C 3,2 km/h (1 Bft)
26.06.2016 18:24 12,5 C 12,6 C 93 % 1018,3 hPa 0,0 mm 1,1 km/h (1 Bft) S-SO 165 0 min 0,000 mm 0,0 UV-I 49 W/m 11,4 C 1,6 km/h (1 Bft)
26.06.2016 18:25 12,5 C 12,6 C 94 % 1018,3 hPa 0,0 mm 0,9 km/h (0 Bft) S-SO 165 0 min 0,000 mm 0,0 UV-I 46 W/m 11,6 C 1,6 km/h (1 Bft)
26.06.2016 18:26 12,6 C 12,6 C 94 % 1018,3 hPa 0,0 mm 0,9 km/h (0 Bft) S-SO 165 0 min 0,000 mm 0,0 UV-I 42 W/m 11,7 C 1,6 km/h (1 Bft)
26.06.2016 18:27 12,5 C 12,6 C 94 % 1018,3 hPa 0,0 mm 1,0 km/h (0 Bft) S-SO 165 0 min 0,000 mm 0,0 UV-I 40 W/m 11,6 C 1,6 km/h (1 Bft)
26.06.2016 18:28 12,4 C 12,5 C 94 % 1018,4 hPa 0,0 mm 0,5 km/h (0 Bft) S-SO 165 0 min 0,000 mm 0,0 UV-I 40 W/m 11,5 C 1,6 km/h (1 Bft)
26.06.2016 18:29 12,4 C 12,4 C 94 % 1018,3 hPa 0,0 mm 0,8 km/h (0 Bft) S-SO 165 0 min 0,000 mm 0,0 UV-I 44 W/m 11,5 C 1,6 km/h (1 Bft)
26.06.2016 18:30 12,4 C 12,4 C 95 % 1018,3 hPa 0,0 mm 1,8 km/h (1 Bft) S-SO 163 0 min 0,000 mm 0,0 UV-I 49 W/m 11,6 C 3,2 km/h (1 Bft)
26.06.2016 18:31 12,3 C 12,4 C 94 % 1018,3 hPa 0,0 mm 1,1 km/h (1 Bft) S-SO 163 0 min 0,000 mm 0,0 UV-I 49 W/m 11,4 C 3,2 km/h (1 Bft)
26.06.2016 18:32 12,3 C 12,3 C 95 % 1018,2 hPa 0,0 mm 2,1 km/h (1 Bft) S-SO 163 0 min 0,000 mm 0,0 UV-I 56 W/m 11,5 C 3,2 km/h (1 Bft)
26.06.2016 18:33 12,3 C 12,3 C 94 % 1018,2 hPa 0,0 mm 1,5 km/h (1 Bft) S-SO 163 0 min 0,000 mm 0,0 UV-I 62 W/m 11,4 C 3,2 km/h (1 Bft)
26.06.2016 18:34 12,3 C 12,3 C 94 % 1018,0 hPa 0,0 mm 1,1 km/h (1 Bft) S-SO 163 0 min 0,000 mm 0,5 UV-I 62 W/m 11,4 C 1,6 km/h (1 Bft)
26.06.2016 18:35 12,3 C 12,3 C 95 % 1018,0 hPa 0,0 mm 1,1 km/h (1 Bft) S-SO 163 0 min 0,000 mm 0,5 UV-I 62 W/m 11,5 C 1,6 km/h (1 Bft)
26.06.2016 18:36 12,3 C 12,3 C 94 % 1018,1 hPa 0,0 mm 2,1 km/h (1 Bft) S-SO 160 0 min 0,000 mm 0,0 UV-I 62 W/m 11,4 C 3,2 km/h (1 Bft)
26.06.2016 18:37 12,3 C 12,3 C 94 % 1018,0 hPa 0,0 mm 1,5 km/h (1 Bft) S-SO 160 0 min 0,000 mm 0,0 UV-I 60 W/m 11,4 C 3,2 km/h (1 Bft)
26.06.2016 18:38 12,3 C 12,3 C 93 % 1018,0 hPa 0,0 mm 1,5 km/h (1 Bft) S-SO 160 0 min 0,000 mm 0,0 UV-I 56 W/m 11,2 C 3,2 km/h (1 Bft)
26.06.2016 18:39 12,3 C 12,3 C 93 % 1018,1 hPa 0,0 mm 2,5 km/h (1 Bft) S-SO 160 0 min 0,000 mm 0,0 UV-I 49 W/m 11,2 C 6,4 km/h (2 Bft)
26.06.2016 18:40 12,3 C 12,3 C 93 % 1018,1 hPa 0,0 mm 3,1 km/h (1 Bft) SO 142 0 min 0,000 mm 0,0 UV-I 47 W/m 11,2 C 3,2 km/h (1 Bft)
26.06.2016 18:41 12,3 C 12,3 C 94 % 1018,1 hPa 0,0 mm 2,5 km/h (1 Bft) SO 142 0 min 0,000 mm 0,0 UV-I 46 W/m 11,4 C 3,2 km/h (1 Bft)
26.06.2016 18:42 12,3 C 12,3 C 94 % 1018,1 hPa 0,0 mm 1,9 km/h (1 Bft) SO 142 0 min 0,000 mm 0,0 UV-I 42 W/m 11,4 C 3,2 km/h (1 Bft)
26.06.2016 18:43 12,2 C 12,3 C 94 % 1018,1 hPa 0,0 mm 1,9 km/h (1 Bft) SO 142 0 min 0,000 mm 0,0 UV-I 40 W/m 11,3 C 3,2 km/h (1 Bft)
26.06.2016 18:44 12,2 C 12,2 C 94 % 1018,1 hPa 0,0 mm 2,1 km/h (1 Bft) SO 142 0 min 0,000 mm 0,0 UV-I 39 W/m 11,3 C 3,2 km/h (1 Bft)
26.06.2016 18:45 12,2 C 12,2 C 93 % 1018,0 hPa 0,0 mm 1,8 km/h (1 Bft) SO 143 0 min 0,000 mm 0,0 UV-I 39 W/m 11,1 C 3,2 km/h (1 Bft)
26.06.2016 18:46 12,2 C 12,2 C 93 % 1018,0 hPa 0,0 mm 2,5 km/h (1 Bft) SO 143 0 min 0,000 mm 0,0 UV-I 39 W/m 11,1 C 3,2 km/h (1 Bft)
26.06.2016 18:47 12,2 C 12,2 C 93 % 1018,1 hPa 0,0 mm 1,9 km/h (1 Bft) SO 143 0 min 0,000 mm 0,0 UV-I 39 W/m 11,1 C 3,2 km/h (1 Bft)
26.06.2016 18:48 12,2 C 12,2 C 92 % 1018,1 hPa 0,0 mm 2,0 km/h (1 Bft) S-SO 166 0 min 0,000 mm 0,0 UV-I 37 W/m 10,9 C 4,8 km/h (1 Bft)
26.06.2016 18:49 12,3 C 12,3 C 92 % 1018,1 hPa 0,0 mm 2,8 km/h (1 Bft) S-SO 166 0 min 0,000 mm 0,0 UV-I 37 W/m 11,0 C 4,8 km/h (1 Bft)
26.06.2016 18:50 12,3 C 12,3 C 92 % 1018,2 hPa 0,0 mm 1,4 km/h (1 Bft) S-SO 166 0 min 0,000 mm 0,0 UV-I 33 W/m 11,0 C 4,8 km/h (1 Bft)
26.06.2016 18:51 12,4 C 12,4 C 93 % 1018,2 hPa 0,0 mm 2,7 km/h (1 Bft) S-SO 166 0 min 0,000 mm 0,0 UV-I 33 W/m 11,3 C 4,8 km/h (1 Bft)
26.06.2016 18:52 12,4 C 12,4 C 92 % 1018,2 hPa 0,0 mm 1,9 km/h (1 Bft) S-SO 166 0 min 0,000 mm 0,0 UV-I 35 W/m 11,1 C 4,8 km/h (1 Bft)
26.06.2016 18:53 12,3 C 12,4 C 94 % 1018,2 hPa 0,0 mm 2,2 km/h (1 Bft) S-SO 166 0 min 0,000 mm 0,0 UV-I 35 W/m 11,4 C 4,8 km/h (1 Bft)
26.06.2016 18:54 12,3 C 12,3 C 94 % 1018,2 hPa 0,0 mm 2,2 km/h (1 Bft) S-SO 166 0 min 0,000 mm 0,0 UV-I 37 W/m 11,4 C 4,8 km/h (1 Bft)
26.06.2016 18:55 12,2 C 12,3 C 93 % 1018,2 hPa 0,0 mm 1,9 km/h (1 Bft) S-SO 166 0 min 0,000 mm 0,0 UV-I 37 W/m 11,1 C 4,8 km/h (1 Bft)
26.06.2016 18:56 12,2 C 12,3 C 94 % 1018,1 hPa 0,0 mm 1,5 km/h (1 Bft) S-SO 166 0 min 0,000 mm 0,0 UV-I 35 W/m 11,3 C 1,6 km/h (1 Bft)
26.06.2016 18:57 12,2 C 12,2 C 94 % 1018,1 hPa 0,0 mm 1,5 km/h (1 Bft) S-SO 166 0 min 0,000 mm 0,0 UV-I 35 W/m 11,3 C 4,8 km/h (1 Bft)
26.06.2016 18:58 12,2 C 12,2 C 94 % 1018,1 hPa 0,0 mm 1,9 km/h (1 Bft) S-SO 166 0 min 0,000 mm 0,0 UV-I 35 W/m 11,3 C 4,8 km/h (1 Bft)
26.06.2016 18:59 12,2 C 12,2 C 94 % 1018,2 hPa 0,0 mm 1,8 km/h (1 Bft) S-SO 166 0 min 0,000 mm 0,0 UV-I 37 W/m 11,3 C 4,8 km/h (1 Bft)
26.06.2016 19:00 12,2 C 12,2 C 92 % 1018,2 hPa 0,0 mm 3,3 km/h (1 Bft) S-SO 166 0 min 0,025 mm 0,0 UV-I 37 W/m 10,9 C 4,8 km/h (1 Bft)
26.06.2016 19:01 12,2 C 12,2 C 94 % 1018,1 hPa 0,0 mm 4,0 km/h (1 Bft) S-SO 166 0 min 0,000 mm 0,0 UV-I 39 W/m 11,3 C 4,8 km/h (1 Bft)
26.06.2016 19:02 12,2 C 12,2 C 93 % 1018,1 hPa 0,0 mm 1,5 km/h (1 Bft) S-SO 166 0 min 0,000 mm 0,0 UV-I 39 W/m 11,1 C 4,8 km/h (1 Bft)
26.06.2016 19:03 12,2 C 12,2 C 93 % 1018,1 hPa 0,0 mm 1,9 km/h (1 Bft) S-SO 166 0 min 0,000 mm 0,0 UV-I 40 W/m 11,1 C 4,8 km/h (1 Bft)
26.06.2016 19:04 12,1 C 12,2 C 93 % 1018,1 hPa 0,0 mm 2,0 km/h (1 Bft) S-SO 166 0 min 0,000 mm 0,0 UV-I 42 W/m 11,0 C 4,8 km/h (1 Bft)
26.06.2016 19:05 12,1 C 12,2 C 93 % 1018,1 hPa 0,0 mm 2,3 km/h (1 Bft) S-SO 166 0 min 0,000 mm 0,0 UV-I 44 W/m 11,0 C 4,8 km/h (1 Bft)
26.06.2016 19:06 12,1 C 12,2 C 93 % 1018,1 hPa 0,0 mm 2,2 km/h (1 Bft) S-SO 166 0 min 0,000 mm 0,0 UV-I 44 W/m 11,0 C 4,8 km/h (1 Bft)
26.06.2016 19:07 12,1 C 12,1 C 93 % 1018,2 hPa 0,0 mm 1,3 km/h (1 Bft) SO 133 0 min 0,000 mm 0,0 UV-I 44 W/m 11,0 C 4,8 km/h (1 Bft)
26.06.2016 19:08 12,1 C 12,1 C 93 % 1018,1 hPa 0,0 mm 1,5 km/h (1 Bft) SO 133 0 min 0,000 mm 0,0 UV-I 42 W/m 11,0 C 3,2 km/h (1 Bft)
26.06.2016 19:09 12,1 C 12,1 C 93 % 1018,2 hPa 0,0 mm 2,5 km/h (1 Bft) SO 133 0 min 0,000 mm 0,0 UV-I 40 W/m 11,0 C 3,2 km/h (1 Bft)
26.06.2016 19:10 12,1 C 12,1 C 94 % 1018,2 hPa 0,0 mm 2,1 km/h (1 Bft) SO 133 0 min 0,000 mm 0,0 UV-I 37 W/m 11,2 C 3,2 km/h (1 Bft)
26.06.2016 19:11 12,1 C 12,1 C 94 % 1018,2 hPa 0,0 mm 1,5 km/h (1 Bft) SO 131 0 min 0,000 mm 0,0 UV-I 35 W/m 11,2 C 3,2 km/h (1 Bft)
26.06.2016 19:12 12,1 C 12,1 C 94 % 1018,2 hPa 0,0 mm 1,0 km/h (0 Bft) SO 131 0 min 0,000 mm 0,0 UV-I 33 W/m 11,2 C 1,6 km/h (1 Bft)
26.06.2016 19:13 12,2 C 12,2 C 95 % 1018,2 hPa 0,0 mm 1,9 km/h (1 Bft) O-NO 67 0 min 0,000 mm 0,0 UV-I 32 W/m 11,4 C 3,2 km/h (1 Bft)
26.06.2016 19:14 12,2 C 12,2 C 95 % 1018,3 hPa 0,0 mm 2,4 km/h (1 Bft) O 89 0 min 0,000 mm 0,0 UV-I 32 W/m 11,4 C 3,2 km/h (1 Bft)
26.06.2016 19:15 12,2 C 12,2 C 95 % 1018,2 hPa 0,0 mm 1,1 km/h (1 Bft) O 88 0 min 0,000 mm 0,0 UV-I 32 W/m 11,4 C 1,6 km/h (1 Bft)
26.06.2016 19:16 12,2 C 12,2 C 95 % 1018,2 hPa 0,0 mm 1,8 km/h (1 Bft) O 88 0 min 0,000 mm 0,0 UV-I 32 W/m 11,4 C 3,2 km/h (1 Bft)
26.06.2016 19:17 12,2 C 12,2 C 95 % 1018,2 hPa 0,0 mm 3,2 km/h (1 Bft) O-NO 74 0 min 0,000 mm 0,0 UV-I 33 W/m 11,4 C 4,8 km/h (1 Bft)
26.06.2016 19:18 12,2 C 12,2 C 96 % 1018,2 hPa 0,0 mm 2,6 km/h (1 Bft) O-NO 77 0 min 0,000 mm 0,0 UV-I 32 W/m 11,6 C 3,2 km/h (1 Bft)
26.06.2016 19:19 12,2 C 12,2 C 95 % 1018,2 hPa 0,0 mm 2,9 km/h (1 Bft) O-SO 121 0 min 0,000 mm 0,0 UV-I 30 W/m 11,4 C 4,8 km/h (1 Bft)
26.06.2016 19:20 12,2 C 12,2 C 95 % 1018,3 hPa 0,0 mm 2,8 km/h (1 Bft) O-NO 71 0 min 0,000 mm 0,0 UV-I 26 W/m 11,4 C 4,8 km/h (1 Bft)
26.06.2016 19:21 12,2 C 12,2 C 95 % 1018,2 hPa 0,0 mm 2,1 km/h (1 Bft) O-NO 71 0 min 0,000 mm 0,0 UV-I 26 W/m 11,4 C 3,2 km/h (1 Bft)
26.06.2016 19:22 12,2 C 12,3 C 95 % 1018,2 hPa 0,0 mm 0,9 km/h (0 Bft) O-NO 72 0 min 0,000 mm 0,0 UV-I 26 W/m 11,4 C 1,6 km/h (1 Bft)
26.06.2016 19:23 12,2 C 12,2 C 95 % 1018,3 hPa 0,0 mm 1,5 km/h (1 Bft) O-SO 103 0 min 0,000 mm 0,0 UV-I 25 W/m 11,4 C 3,2 km/h (1 Bft)
26.06.2016 19:24 12,2 C 12,2 C 95 % 1018,2 hPa 0,0 mm 1,9 km/h (1 Bft) O-SO 103 0 min 0,000 mm 0,0 UV-I 25 W/m 11,4 C 3,2 km/h (1 Bft)
26.06.2016 19:25 12,2 C 12,2 C 95 % 1018,2 hPa 0,0 mm 1,8 km/h (1 Bft) O-SO 103 0 min 0,000 mm 0,0 UV-I 25 W/m 11,4 C 3,2 km/h (1 Bft)
26.06.2016 19:26 12,2 C 12,2 C 95 % 1018,2 hPa 0,0 mm 0,6 km/h (0 Bft) O-SO 103 0 min 0,000 mm 0,0 UV-I 23 W/m 11,4 C 1,6 km/h (1 Bft)
26.06.2016 19:27 12,2 C 12,2 C 95 % 1018,3 hPa 0,0 mm 1,1 km/h (1 Bft) O-SO 103 0 min 0,000 mm 0,0 UV-I 23 W/m 11,4 C 1,6 km/h (1 Bft)
26.06.2016 19:28 12,1 C 12,2 C 95 % 1018,2 hPa 0,0 mm 0,2 km/h (0 Bft) O-SO 103 0 min 0,000 mm 0,0 UV-I 21 W/m 11,3 C 1,6 km/h (1 Bft)
26.06.2016 19:29 12,1 C 12,1 C 95 % 1018,3 hPa 0,0 mm 1,1 km/h (1 Bft) O-SO 103 0 min 0,000 mm 0,0 UV-I 19 W/m 11,3 C 1,6 km/h (1 Bft)
26.06.2016 19:30 12,1 C 12,1 C 94 % 1018,3 hPa 0,0 mm 0,4 km/h (0 Bft) O-SO 103 0 min 0,000 mm 0,0 UV-I 18 W/m 11,2 C 1,6 km/h (1 Bft)
26.06.2016 19:31 12,1 C 12,1 C 95 % 1018,3 hPa 0,0 mm 0,9 km/h (0 Bft) O-SO 103 0 min 0,000 mm 0,0 UV-I 16 W/m 11,3 C 1,6 km/h (1 Bft)
26.06.2016 19:32 12,0 C 12,1 C 94 % 1018,4 hPa 0,0 mm 1,8 km/h (1 Bft) O-SO 104 0 min 0,000 mm 0,0 UV-I 16 W/m 11,1 C 3,2 km/h (1 Bft)
26.06.2016 19:33 11,9 C 12,0 C 94 % 1018,3 hPa 0,0 mm 1,2 km/h (1 Bft) O-SO 103 0 min 0,000 mm 0,0 UV-I 16 W/m 11,0 C 3,2 km/h (1 Bft)
26.06.2016 19:34 11,9 C 11,9 C 94 % 1018,4 hPa 0,0 mm 0,0 km/h (0 Bft) O-SO 103 0 min 0,000 mm 0,0 UV-I 16 W/m 11,0 C 0,0 km/h (0 Bft)
26.06.2016 19:35 11,9 C 11,9 C 94 % 1018,3 hPa 0,0 mm 0,1 km/h (0 Bft) O-SO 104 0 min 0,000 mm 0,0 UV-I 14 W/m 11,0 C 1,6 km/h (1 Bft)
26.06.2016 19:36 11,9 C 11,9 C 94 % 1018,4 hPa 0,0 mm 0,3 km/h (0 Bft) O-SO 104 0 min 0,000 mm 0,0 UV-I 14 W/m 11,0 C 1,6 km/h (1 Bft)
26.06.2016 19:37 11,9 C 11,9 C 94 % 1018,3 hPa 0,0 mm 0,2 km/h (0 Bft) O-SO 104 0 min 0,000 mm 0,0 UV-I 14 W/m 11,0 C 1,6 km/h (1 Bft)
26.06.2016 19:38 11,8 C 11,9 C 94 % 1018,3 hPa 0,0 mm 0,3 km/h (0 Bft) O-SO 103 0 min 0,000 mm 0,0 UV-I 14 W/m 10,9 C 1,6 km/h (1 Bft)
26.06.2016 19:39 11,9 C 11,9 C 94 % 1018,3 hPa 0,0 mm 0,2 km/h (0 Bft) O-SO 104 0 min 0,000 mm 0,0 UV-I 14 W/m 11,0 C 1,6 km/h (1 Bft)
26.06.2016 19:40 11,8 C 11,9 C 95 % 1018,4 hPa 0,0 mm 1,7 km/h (1 Bft) O-SO 104 0 min 0,000 mm 0,0 UV-I 14 W/m 11,0 C 3,2 km/h (1 Bft)
26.06.2016 19:41 11,8 C 11,8 C 94 % 1018,4 hPa 0,0 mm 1,3 km/h (1 Bft) O-SO 103 0 min 0,000 mm 0,0 UV-I 14 W/m 10,9 C 1,6 km/h (1 Bft)
26.06.2016 19:42 11,8 C 11,8 C 94 % 1018,4 hPa 0,0 mm 1,2 km/h (1 Bft) O-SO 104 0 min 0,000 mm 0,0 UV-I 14 W/m 10,9 C 1,6 km/h (1 Bft)
26.06.2016 19:43 11,8 C 11,8 C 94 % 1018,4 hPa 0,0 mm 1,1 km/h (1 Bft) O-SO 104 0 min 0,000 mm 0,0 UV-I 16 W/m 10,9 C 1,6 km/h (1 Bft)
26.06.2016 19:44 11,7 C 11,8 C 94 % 1018,4 hPa 0,0 mm 1,8 km/h (1 Bft) O-SO 104 0 min 0,000 mm 0,0 UV-I 18 W/m 10,8 C 3,2 km/h (1 Bft)
26.06.2016 19:45 11,7 C 11,8 C 94 % 1018,4 hPa 0,0 mm 1,0 km/h (0 Bft) O-SO 104 0 min 0,000 mm 0,0 UV-I 19 W/m 10,8 C 1,6 km/h (1 Bft)
26.06.2016 19:46 11,8 C 11,8 C 94 % 1018,4 hPa 0,0 mm 0,9 km/h (0 Bft) O-SO 104 0 min 0,000 mm 0,0 UV-I 19 W/m 10,9 C 1,6 km/h (1 Bft)
26.06.2016 19:47 11,8 C 11,8 C 94 % 1018,4 hPa 0,0 mm 1,1 km/h (1 Bft) O-SO 104 0 min 0,000 mm 0,0 UV-I 19 W/m 10,9 C 1,6 km/h (1 Bft)
26.06.2016 19:48 11,7 C 11,8 C 94 % 1018,4 hPa 0,0 mm 0,9 km/h (0 Bft) O-SO 104 0 min 0,000 mm 0,0 UV-I 19 W/m 10,8 C 1,6 km/h (1 Bft)
26.06.2016 19:49 11,7 C 11,8 C 95 % 1018,4 hPa 0,0 mm 0,0 km/h (0 Bft) O-SO 104 0 min 0,000 mm 0,0 UV-I 19 W/m 10,9 C 0,0 km/h (0 Bft)
26.06.2016 19:50 11,8 C 11,8 C 94 % 1018,4 hPa 0,0 mm 0,5 km/h (0 Bft) O-SO 104 0 min 0,000 mm 0,0 UV-I 21 W/m 10,9 C 1,6 km/h (1 Bft)
26.06.2016 19:51 11,7 C 11,8 C 95 % 1018,4 hPa 0,0 mm 1,1 km/h (1 Bft) O-SO 104 0 min 0,000 mm 0,0 UV-I 21 W/m 10,9 C 1,6 km/h (1 Bft)
26.06.2016 19:52 11,7 C 11,7 C 94 % 1018,4 hPa 0,0 mm 0,8 km/h (0 Bft) O-SO 104 0 min 0,000 mm 0,0 UV-I 21 W/m 10,8 C 1,6 km/h (1 Bft)
26.06.2016 19:53 11,7 C 11,7 C 94 % 1018,4 hPa 0,0 mm 1,1 km/h (1 Bft) O-SO 104 0 min 0,000 mm 0,0 UV-I 21 W/m 10,8 C 1,6 km/h (1 Bft)
26.06.2016 19:54 11,6 C 11,7 C 94 % 1018,5 hPa 0,0 mm 0,5 km/h (0 Bft) O-SO 104 0 min 0,000 mm 0,0 UV-I 21 W/m 10,7 C 1,6 km/h (1 Bft)
26.06.2016 19:55 11,7 C 11,7 C 95 % 1018,5 hPa 0,0 mm 0,3 km/h (0 Bft) O-SO 104 0 min 0,000 mm 0,0 UV-I 21 W/m 10,9 C 1,6 km/h (1 Bft)
26.06.2016 19:56 11,7 C 11,7 C 95 % 1018,5 hPa 0,0 mm 0,0 km/h (0 Bft) O-SO 112 0 min 0,000 mm 0,0 UV-I 19 W/m 10,9 C 1,6 km/h (1 Bft)
26.06.2016 20:00 11,6 C 11,7 C 96 % 1018,6 hPa 0,0 mm 0,5 km/h (0 Bft) O-SO 103 0 min 0,026 mm 0,0 UV-I 11 W/m 11,0 C 1,6 km/h (1 Bft)
26.06.2016 20:01 11,6 C 11,6 C 95 % 1018,6 hPa 0,0 mm 1,5 km/h (1 Bft) O-SO 104 0 min 0,000 mm 0,0 UV-I 9 W/m 10,8 C 3,2 km/h (1 Bft)
26.06.2016 20:02 11,6 C 11,6 C 95 % 1018,6 hPa 0,0 mm 0,3 km/h (0 Bft) O-SO 103 0 min 0,000 mm 0,0 UV-I 7 W/m 10,8 C 1,6 km/h (1 Bft)
26.06.2016 20:03 11,6 C 11,6 C 95 % 1018,6 hPa 0,0 mm 0,4 km/h (0 Bft) O-SO 104 0 min 0,000 mm 0,0 UV-I 7 W/m 10,8 C 1,6 km/h (1 Bft)
26.06.2016 20:04 11,6 C 11,6 C 96 % 1018,6 hPa 0,0 mm 0,1 km/h (0 Bft) O-SO 103 0 min 0,000 mm 0,0 UV-I 5 W/m 11,0 C 1,6 km/h (1 Bft)
26.06.2016 20:05 11,6 C 11,6 C 96 % 1018,6 hPa 0,0 mm 0,5 km/h (0 Bft) O-SO 104 0 min 0,000 mm 0,0 UV-I 5 W/m 11,0 C 1,6 km/h (1 Bft)
26.06.2016 20:06 11,6 C 11,6 C 96 % 1018,6 hPa 0,0 mm 0,5 km/h (0 Bft) O-SO 104 0 min 0,000 mm 0,0 UV-I 5 W/m 11,0 C 1,6 km/h (1 Bft)
26.06.2016 20:07 11,6 C 11,6 C 96 % 1018,5 hPa 0,0 mm 1,7 km/h (1 Bft) O-NO 61 0 min 0,000 mm 0,0 UV-I 5 W/m 11,0 C 4,8 km/h (1 Bft)
26.06.2016 20:08 11,6 C 11,6 C 96 % 1018,5 hPa 0,0 mm 3,3 km/h (1 Bft) O-NO 59 0 min 0,000 mm 0,0 UV-I 5 W/m 11,0 C 4,8 km/h (1 Bft)
26.06.2016 20:09 11,6 C 11,6 C 96 % 1018,5 hPa 0,0 mm 3,4 km/h (1 Bft) O-NO 61 0 min 0,000 mm 0,0 UV-I 0 W/m 11,0 C 4,8 km/h (1 Bft)
26.06.2016 20:10 11,6 C 11,6 C 95 % 1018,5 hPa 0,0 mm 4,2 km/h (1 Bft) O-NO 63 0 min 0,000 mm 0,0 UV-I 0 W/m 10,8 C 4,8 km/h (1 Bft)
26.06.2016 20:11 11,7 C 11,7 C 95 % 1018,5 hPa 0,0 mm 2,7 km/h (1 Bft) O-NO 66 0 min 0,000 mm 0,0 UV-I 0 W/m 10,9 C 4,8 km/h (1 Bft)
26.06.2016 20:12 11,7 C 11,7 C 95 % 1018,6 hPa 0,0 mm 2,7 km/h (1 Bft) O 86 0 min 0,000 mm 0,0 UV-I 0 W/m 10,9 C 3,2 km/h (1 Bft)
26.06.2016 20:13 11,7 C 11,7 C 95 % 1018,5 hPa 0,0 mm 3,0 km/h (1 Bft) O 79 0 min 0,000 mm 0,0 UV-I 0 W/m 10,9 C 4,8 km/h (1 Bft)
26.06.2016 20:14 11,7 C 11,7 C 95 % 1018,6 hPa 0,0 mm 2,8 km/h (1 Bft) O-SO 104 0 min 0,000 mm 0,0 UV-I 0 W/m 10,9 C 4,8 km/h (1 Bft)
26.06.2016 20:15 11,7 C 11,7 C 94 % 1018,6 hPa 0,0 mm 3,5 km/h (1 Bft) O 92 0 min 0,000 mm 0,0 UV-I 0 W/m 10,8 C 4,8 km/h (1 Bft)
26.06.2016 20:16 11,7 C 11,7 C 95 % 1018,6 hPa 0,0 mm 0,8 km/h (0 Bft) O 92 0 min 0,000 mm 0,0 UV-I 0 W/m 10,9 C 3,2 km/h (1 Bft)
26.06.2016 20:17 11,7 C 11,7 C 95 % 1018,7 hPa 0,0 mm 0,7 km/h (0 Bft) O 92 0 min 0,000 mm 0,0 UV-I 0 W/m 10,9 C 1,6 km/h (1 Bft)
26.06.2016 20:18 11,7 C 11,7 C 95 % 1018,7 hPa 0,0 mm 1,2 km/h (1 Bft) O 80 0 min 0,000 mm 0,0 UV-I 0 W/m 10,9 C 3,2 km/h (1 Bft)
26.06.2016 20:19 11,7 C 11,7 C 95 % 1018,6 hPa 0,0 mm 1,7 km/h (1 Bft) O 80 0 min 0,000 mm 0,0 UV-I 0 W/m 10,9 C 3,2 km/h (1 Bft)
26.06.2016 20:20 11,7 C 11,7 C 95 % 1018,6 hPa 0,0 mm 1,9 km/h (1 Bft) O 80 0 min 0,000 mm 0,0 UV-I 0 W/m 10,9 C 3,2 km/h (1 Bft)
26.06.2016 20:21 11,7 C 11,7 C 95 % 1018,6 hPa 0,0 mm 2,9 km/h (1 Bft) O-NO 75 0 min 0,000 mm 0,0 UV-I 0 W/m 10,9 C 4,8 km/h (1 Bft)
26.06.2016 20:22 11,6 C 11,7 C 95 % 1018,7 hPa 0,0 mm 2,8 km/h (1 Bft) O-NO 65 0 min 0,000 mm 0,0 UV-I 0 W/m 10,8 C 4,8 km/h (1 Bft)
26.06.2016 20:23 11,6 C 11,6 C 95 % 1018,7 hPa 0,0 mm 4,0 km/h (1 Bft) O-NO 77 0 min 0,000 mm 0,0 UV-I 0 W/m 10,8 C 4,8 km/h (1 Bft)
26.06.2016 20:24 11,6 C 11,6 C 95 % 1018,7 hPa 0,0 mm 4,5 km/h (1 Bft) O-NO 60 0 min 0,000 mm 0,0 UV-I 0 W/m 10,8 C 6,4 km/h (2 Bft)
26.06.2016 20:25 11,6 C 11,6 C 95 % 1018,7 hPa 0,0 mm 4,4 km/h (1 Bft) O-NO 67 0 min 0,000 mm 0,0 UV-I 0 W/m 10,8 C 6,4 km/h (2 Bft)
26.06.2016 20:26 11,6 C 11,6 C 94 % 1018,7 hPa 0,0 mm 3,6 km/h (1 Bft) O-NO 67 0 min 0,000 mm 0,0 UV-I 0 W/m 10,7 C 4,8 km/h (1 Bft)
26.06.2016 20:27 11,6 C 11,6 C 94 % 1018,7 hPa 0,0 mm 3,4 km/h (1 Bft) O 81 0 min 0,000 mm 0,0 UV-I 0 W/m 10,7 C 4,8 km/h (1 Bft)
26.06.2016 20:28 11,6 C 11,6 C 94 % 1018,6 hPa 0,0 mm 3,0 km/h (1 Bft) O-SO 102 0 min 0,000 mm 0,0 UV-I 0 W/m 10,7 C 3,2 km/h (1 Bft)
26.06.2016 20:29 11,6 C 11,6 C 95 % 1018,6 hPa 0,0 mm 2,8 km/h (1 Bft) O-NO 71 0 min 0,000 mm 0,0 UV-I 0 W/m 10,8 C 3,2 km/h (1 Bft)
26.06.2016 20:30 11,6 C 11,6 C 95 % 1018,6 hPa 0,0 mm 3,2 km/h (1 Bft) O-NO 66 0 min 0,000 mm 0,0 UV-I 0 W/m 10,8 C 6,4 km/h (2 Bft)
26.06.2016 20:31 11,6 C 11,6 C 95 % 1018,6 hPa 0,0 mm 4,1 km/h (1 Bft) O-NO 65 0 min 0,000 mm 0,0 UV-I 0 W/m 10,8 C 4,8 km/h (1 Bft)
26.06.2016 20:32 11,5 C 11,6 C 95 % 1018,5 hPa 0,0 mm 3,0 km/h (1 Bft) NO 56 0 min 0,000 mm 0,0 UV-I 0 W/m 10,7 C 4,8 km/h (1 Bft)
26.06.2016 20:33 11,6 C 11,6 C 95 % 1018,5 hPa 0,0 mm 4,9 km/h (1 Bft) NO 50 0 min 0,000 mm 0,0 UV-I 0 W/m 10,8 C 6,4 km/h (2 Bft)
26.06.2016 20:34 11,5 C 11,6 C 95 % 1018,4 hPa 0,0 mm 3,8 km/h (1 Bft) O 86 0 min 0,000 mm 0,0 UV-I 0 W/m 10,7 C 6,4 km/h (2 Bft)
26.06.2016 20:35 11,5 C 11,5 C 95 % 1018,4 hPa 0,0 mm 3,2 km/h (1 Bft) O-NO 65 0 min 0,000 mm 0,0 UV-I 0 W/m 10,7 C 4,8 km/h (1 Bft)
26.06.2016 20:36 11,5 C 11,5 C 95 % 1018,4 hPa 0,0 mm 3,6 km/h (1 Bft) NO 40 0 min 0,000 mm 0,0 UV-I 0 W/m 10,7 C 4,8 km/h (1 Bft)
26.06.2016 20:37 11,5 C 11,5 C 95 % 1018,4 hPa 0,0 mm 2,3 km/h (1 Bft) NO 39 0 min 0,000 mm 0,0 UV-I 0 W/m 10,7 C 3,2 km/h (1 Bft)
26.06.2016 20:38 11,6 C 11,6 C 95 % 1018,4 hPa 0,0 mm 3,8 km/h (1 Bft) N-NO 32 0 min 0,000 mm 0,0 UV-I 0 W/m 10,8 C 4,8 km/h (1 Bft)
26.06.2016 20:39 11,6 C 11,6 C 95 % 1018,5 hPa 0,0 mm 2,9 km/h (1 Bft) NO 39 0 min 0,000 mm 0,0 UV-I 0 W/m 10,8 C 4,8 km/h (1 Bft)
26.06.2016 20:40 11,6 C 11,6 C 94 % 1018,5 hPa 0,0 mm 3,0 km/h (1 Bft) O-NO 71 0 min 0,000 mm 0,0 UV-I 0 W/m 10,7 C 3,2 km/h (1 Bft)
26.06.2016 20:41 11,6 C 11,6 C 94 % 1018,5 hPa 0,0 mm 2,2 km/h (1 Bft) O 98 0 min 0,000 mm 0,0 UV-I 0 W/m 10,7 C 3,2 km/h (1 Bft)
26.06.2016 20:42 11,6 C 11,6 C 94 % 1018,6 hPa 0,0 mm 1,7 km/h (1 Bft) O-SO 107 0 min 0,000 mm 0,0 UV-I 0 W/m 10,7 C 3,2 km/h (1 Bft)
26.06.2016 20:43 11,6 C 11,6 C 94 % 1018,6 hPa 0,0 mm 0,7 km/h (0 Bft) O-SO 107 0 min 0,000 mm 0,0 UV-I 0 W/m 10,7 C 1,6 km/h (1 Bft)
26.06.2016 20:44 11,6 C 11,6 C 94 % 1018,6 hPa 0,0 mm 1,6 km/h (1 Bft) O-SO 107 0 min 0,000 mm 0,0 UV-I 0 W/m 10,7 C 3,2 km/h (1 Bft)
26.06.2016 20:45 11,6 C 11,6 C 94 % 1018,6 hPa 0,0 mm 0,9 km/h (0 Bft) O-SO 107 0 min 0,000 mm 0,0 UV-I 0 W/m 10,7 C 1,6 km/h (1 Bft)
26.06.2016 20:46 11,6 C 11,6 C 94 % 1018,6 hPa 0,0 mm 0,7 km/h (0 Bft) O-SO 107 0 min 0,000 mm 0,0 UV-I 0 W/m 10,7 C 1,6 km/h (1 Bft)
26.06.2016 20:47 11,6 C 11,6 C 94 % 1018,5 hPa 0,0 mm 2,6 km/h (1 Bft) O-SO 109 0 min 0,000 mm 0,0 UV-I 0 W/m 10,7 C 4,8 km/h (1 Bft)
26.06.2016 20:48 11,6 C 11,6 C 94 % 1018,5 hPa 0,0 mm 2,7 km/h (1 Bft) O-NO 76 0 min 0,000 mm 0,0 UV-I 0 W/m 10,7 C 3,2 km/h (1 Bft)
26.06.2016 20:49 11,5 C 11,6 C 94 % 1018,5 hPa 0,0 mm 2,1 km/h (1 Bft) O-NO 76 0 min 0,000 mm 0,0 UV-I 0 W/m 10,6 C 3,2 km/h (1 Bft)
26.06.2016 20:50 11,5 C 11,6 C 94 % 1018,5 hPa 0,0 mm 2,1 km/h (1 Bft) O-NO 76 0 min 0,000 mm 0,0 UV-I 0 W/m 10,6 C 3,2 km/h (1 Bft)
26.06.2016 20:51 11,5 C 11,5 C 95 % 1018,5 hPa 0,0 mm 1,5 km/h (1 Bft) O-NO 76 0 min 0,000 mm 0,0 UV-I 0 W/m 10,7 C 3,2 km/h (1 Bft)
26.06.2016 20:52 11,5 C 11,5 C 95 % 1018,5 hPa 0,0 mm 0,5 km/h (0 Bft) O-NO 76 0 min 0,000 mm 0,0 UV-I 0 W/m 10,7 C 1,6 km/h (1 Bft)
26.06.2016 20:53 11,5 C 11,5 C 95 % 1018,5 hPa 0,0 mm 1,1 km/h (1 Bft) O-NO 76 0 min 0,000 mm 0,0 UV-I 0 W/m 10,7 C 3,2 km/h (1 Bft)
26.06.2016 20:54 11,5 C 11,5 C 95 % 1018,5 hPa 0,0 mm 1,5 km/h (1 Bft) O-NO 76 0 min 0,000 mm 0,0 UV-I 0 W/m 10,7 C 3,2 km/h (1 Bft)
26.06.2016 20:55 11,5 C 11,5 C 95 % 1018,5 hPa 0,0 mm 1,7 km/h (1 Bft) O-NO 76 0 min 0,000 mm 0,0 UV-I 0 W/m 10,7 C 3,2 km/h (1 Bft)
26.06.2016 20:56 11,5 C 11,6 C 95 % 1018,5 hPa 0,0 mm 2,4 km/h (1 Bft) O-NO 76 0 min 0,000 mm 0,0 UV-I 0 W/m 10,7 C 3,2 km/h (1 Bft)
26.06.2016 20:57 11,5 C 11,5 C 95 % 1018,6 hPa 0,0 mm 1,5 km/h (1 Bft) O-NO 76 0 min 0,000 mm 0,0 UV-I 0 W/m 10,7 C 1,6 km/h (1 Bft)
26.06.2016 20:58 11,5 C 11,5 C 95 % 1018,6 hPa 0,0 mm 0,6 km/h (0 Bft) O-NO 76 0 min 0,000 mm 0,0 UV-I 0 W/m 10,7 C 1,6 km/h (1 Bft)
26.06.2016 20:59 11,4 C 11,5 C 95 % 1018,6 hPa 0,0 mm 0,1 km/h (0 Bft) O-NO 76 0 min 0,000 mm 0,0 UV-I 0 W/m 10,6 C 1,6 km/h (1 Bft)
26.06.2016 21:00 11,4 C 11,5 C 95 % 1018,7 hPa 0,0 mm 0,1 km/h (0 Bft) O-NO 76 0 min 0,000 mm 0,0 UV-I 0 W/m 10,6 C 1,6 km/h (1 Bft)
26.06.2016 21:01 11,4 C 11,5 C 95 % 1018,7 hPa 0,0 mm 0,1 km/h (0 Bft) O-NO 76 0 min 0,000 mm 0,0 UV-I 0 W/m 10,6 C 1,6 km/h (1 Bft)
26.06.2016 21:02 11,4 C 11,4 C 95 % 1018,7 hPa 0,0 mm 0,0 km/h (0 Bft) O-NO 76 0 min 0,000 mm 0,0 UV-I 0 W/m 10,6 C 0,0 km/h (0 Bft)
26.06.2016 21:03 11,4 C 11,4 C 95 % 1018,7 hPa 0,0 mm 0,2 km/h (0 Bft) O-NO 76 0 min 0,000 mm 0,0 UV-I 0 W/m 10,6 C 1,6 km/h (1 Bft)
26.06.2016 21:04 11,5 C 11,5 C 95 % 1018,7 hPa 0,0 mm 0,0 km/h (0 Bft) O-NO 76 0 min 0,000 mm 0,0 UV-I 0 W/m 10,7 C 0,0 km/h (0 Bft)
26.06.2016 21:05 11,4 C 11,5 C 96 % 1018,7 hPa 0,0 mm 0,0 km/h (0 Bft) O-NO 76 0 min 0,000 mm 0,0 UV-I 0 W/m 10,8 C 0,0 km/h (0 Bft)
26.06.2016 21:06 11,4 C 11,4 C 96 % 1018,7 hPa 0,0 mm 0,1 km/h (0 Bft) O-NO 76 0 min 0,000 mm 0,0 UV-I 0 W/m 10,8 C 1,6 km/h (1 Bft)
26.06.2016 21:07 11,4 C 11,4 C 96 % 1018,7 hPa 0,0 mm 0,0 km/h (0 Bft) O-NO 76 0 min 0,000 mm 0,0 UV-I 0 W/m 10,8 C 0,0 km/h (0 Bft)
26.06.2016 21:08 11,4 C 11,4 C 96 % 1018,7 hPa 0,0 mm 0,0 km/h (0 Bft) O-NO 76 0 min 0,000 mm 0,0 UV-I 0 W/m 10,8 C 0,0 km/h (0 Bft)
26.06.2016 21:09 11,4 C 11,4 C 96 % 1018,7 hPa 0,0 mm 0,0 km/h (0 Bft) O-NO 76 0 min 0,000 mm 0,0 UV-I 0 W/m 10,8 C 0,0 km/h (0 Bft)
26.06.2016 21:10 11,4 C 11,4 C 96 % 1018,8 hPa 0,0 mm 0,3 km/h (0 Bft) O-NO 76 0 min 0,000 mm 0,0 UV-I 0 W/m 10,8 C 1,6 km/h (1 Bft)
26.06.2016 21:11 11,4 C 11,4 C 95 % 1018,8 hPa 0,0 mm 0,7 km/h (0 Bft) O-NO 76 0 min 0,000 mm 0,0 UV-I 0 W/m 10,6 C 1,6 km/h (1 Bft)
26.06.2016 21:12 11,4 C 11,5 C 95 % 1018,8 hPa 0,0 mm 0,2 km/h (0 Bft) O-NO 76 0 min 0,000 mm 0,0 UV-I 0 W/m 10,6 C 1,6 km/h (1 Bft)
26.06.2016 21:13 11,4 C 11,5 C 95 % 1018,8 hPa 0,0 mm 0,0 km/h (0 Bft) O-NO 76 0 min 0,000 mm 0,0 UV-I 0 W/m 10,6 C 0,0 km/h (0 Bft)
26.06.2016 21:14 11,5 C 11,5 C 95 % 1018,8 hPa 0,0 mm 0,3 km/h (0 Bft) O-NO 76 0 min 0,000 mm 0,0 UV-I 0 W/m 10,7 C 1,6 km/h (1 Bft)
26.06.2016 21:15 11,5 C 11,5 C 96 % 1018,8 hPa 0,0 mm 2,4 km/h (1 Bft) O-NO 76 0 min 0,000 mm 0,0 UV-I 0 W/m 10,9 C 3,2 km/h (1 Bft)
26.06.2016 21:16 11,5 C 11,5 C 96 % 1018,8 hPa 0,0 mm 1,9 km/h (1 Bft) O-NO 76 0 min 0,000 mm 0,0 UV-I 0 W/m 10,9 C 3,2 km/h (1 Bft)
26.06.2016 21:17 11,4 C 11,5 C 96 % 1018,8 hPa 0,0 mm 1,2 km/h (1 Bft) O-NO 76 0 min 0,000 mm 0,0 UV-I 0 W/m 10,8 C 1,6 km/h (1 Bft)
26.06.2016 21:18 11,4 C 11,4 C 96 % 1018,7 hPa 0,0 mm 1,2 km/h (1 Bft) O-NO 76 0 min 0,000 mm 0,0 UV-I 0 W/m 10,8 C 1,6 km/h (1 Bft)
26.06.2016 21:19 11,4 C 11,4 C 96 % 1018,7 hPa 0,0 mm 1,6 km/h (1 Bft) O-NO 76 0 min 0,000 mm 0,0 UV-I 0 W/m 10,8 C 3,2 km/h (1 Bft)
26.06.2016 21:20 11,4 C 11,4 C 96 % 1018,7 hPa 0,0 mm 2,1 km/h (1 Bft) O-NO 76 0 min 0,000 mm 0,0 UV-I 0 W/m 10,8 C 3,2 km/h (1 Bft)
26.06.2016 21:21 11,4 C 11,4 C 96 % 1018,8 hPa 0,0 mm 1,3 km/h (1 Bft) O-NO 76 0 min 0,000 mm 0,0 UV-I 0 W/m 10,8 C 1,6 km/h (1 Bft)
26.06.2016 21:22 11,3 C 11,4 C 96 % 1018,7 hPa 0,0 mm 1,4 km/h (1 Bft) O-NO 76 0 min 0,000 mm 0,0 UV-I 0 W/m 10,7 C 1,6 km/h (1 Bft)
26.06.2016 21:23 11,3 C 11,4 C 96 % 1018,7 hPa 0,0 mm 1,3 km/h (1 Bft) O-NO 76 0 min 0,000 mm 0,0 UV-I 0 W/m 10,7 C 1,6 km/h (1 Bft)
26.06.2016 21:24 11,4 C 11,4 C 96 % 1018,7 hPa 0,0 mm 2,0 km/h (1 Bft) O-NO 76 0 min 0,000 mm 0,0 UV-I 0 W/m 10,8 C 3,2 km/h (1 Bft)
26.06.2016 21:25 11,4 C 11,4 C 96 % 1018,8 hPa 0,0 mm 1,7 km/h (1 Bft) O-NO 76 0 min 0,000 mm 0,0 UV-I 0 W/m 10,8 C 3,2 km/h (1 Bft)
26.06.2016 21:26 11,3 C 11,4 C 96 % 1018,8 hPa 0,0 mm 1,1 km/h (1 Bft) O-NO 76 0 min 0,000 mm 0,0 UV-I 0 W/m 10,7 C 1,6 km/h (1 Bft)
26.06.2016 21:27 11,3 C 11,4 C 96 % 1018,8 hPa 0,0 mm 0,3 km/h (0 Bft) O-NO 76 0 min 0,000 mm 0,0 UV-I 0 W/m 10,7 C 1,6 km/h (1 Bft)
26.06.2016 21:28 11,3 C 11,4 C 96 % 1018,9 hPa 0,0 mm 0,2 km/h (0 Bft) O-NO 76 0 min 0,000 mm 0,0 UV-I 0 W/m 10,7 C 1,6 km/h (1 Bft)
26.06.2016 21:29 11,3 C 11,3 C 96 % 1018,9 hPa 0,0 mm 0,0 km/h (0 Bft) O-NO 76 0 min 0,000 mm 0,0 UV-I 0 W/m 10,7 C 0,0 km/h (0 Bft)
26.06.2016 21:30 11,3 C 11,3 C 96 % 1018,9 hPa 0,0 mm 0,0 km/h (0 Bft) O-NO 76 0 min 0,000 mm 0,0 UV-I 0 W/m 10,7 C 0,0 km/h (0 Bft)
26.06.2016 21:31 11,3 C 11,3 C 96 % 1018,9 hPa 0,0 mm 0,2 km/h (0 Bft) O-NO 76 0 min 0,000 mm 0,0 UV-I 0 W/m 10,7 C 1,6 km/h (1 Bft)
26.06.2016 21:32 11,3 C 11,3 C 96 % 1018,9 hPa 0,0 mm 0,0 km/h (0 Bft) O-NO 76 0 min 0,000 mm 0,0 UV-I 0 W/m 10,7 C 0,0 km/h (0 Bft)
26.06.2016 21:33 11,3 C 11,3 C 96 % 1018,9 hPa 0,0 mm 0,0 km/h (0 Bft) O-NO 76 0 min 0,000 mm 0,0 UV-I 0 W/m 10,7 C 0,0 km/h (0 Bft)
26.06.2016 21:34 11,4 C 11,4 C 96 % 1018,9 hPa 0,0 mm 0,0 km/h (0 Bft) O-NO 76 0 min 0,000 mm 0,0 UV-I 0 W/m 10,8 C 0,0 km/h (0 Bft)
26.06.2016 21:35 11,4 C 11,4 C 96 % 1018,9 hPa 0,0 mm 0,0 km/h (0 Bft) O-NO 76 0 min 0,000 mm 0,0 UV-I 0 W/m 10,8 C 0,0 km/h (0 Bft)
26.06.2016 21:36 11,4 C 11,4 C 96 % 1018,9 hPa 0,0 mm 1,0 km/h (0 Bft) O-NO 76 0 min 0,000 mm 0,0 UV-I 0 W/m 10,8 C 3,2 km/h (1 Bft)
26.06.2016 21:37 11,4 C 11,4 C 96 % 1019,0 hPa 0,0 mm 1,2 km/h (1 Bft) O-NO 76 0 min 0,000 mm 0,0 UV-I 0 W/m 10,8 C 3,2 km/h (1 Bft)
26.06.2016 21:38 11,3 C 11,4 C 96 % 1018,9 hPa 0,0 mm 0,1 km/h (0 Bft) O-NO 76 0 min 0,000 mm 0,0 UV-I 0 W/m 10,7 C 1,6 km/h (1 Bft)
26.06.2016 21:39 11,3 C 11,4 C 96 % 1018,9 hPa 0,2 mm 0,6 km/h (0 Bft) O-NO 76 0 min 0,000 mm 0,0 UV-I 0 W/m 10,7 C 1,6 km/h (1 Bft)
26.06.2016 21:40 11,3 C 11,4 C 96 % 1019,0 hPa 0,0 mm 0,0 km/h (0 Bft) O-NO 76 0 min 0,000 mm 0,0 UV-I 0 W/m 10,7 C 0,0 km/h (0 Bft)
26.06.2016 21:41 11,3 C 11,3 C 96 % 1019,0 hPa 0,0 mm 1,9 km/h (1 Bft) O-NO 57 0 min 0,000 mm 0,0 UV-I 0 W/m 10,7 C 3,2 km/h (1 Bft)
26.06.2016 21:42 11,3 C 11,3 C 97 % 1019,0 hPa 0,0 mm 0,6 km/h (0 Bft) O-NO 57 0 min 0,000 mm 0,0 UV-I 0 W/m 10,8 C 1,6 km/h (1 Bft)
26.06.2016 21:43 11,3 C 11,3 C 97 % 1019,0 hPa 0,0 mm 0,4 km/h (0 Bft) O-NO 57 0 min 0,000 mm 0,0 UV-I 0 W/m 10,8 C 1,6 km/h (1 Bft)
26.06.2016 21:44 11,3 C 11,3 C 96 % 1019,0 hPa 0,0 mm 0,1 km/h (0 Bft) O-NO 57 0 min 0,000 mm 0,0 UV-I 0 W/m 10,7 C 1,6 km/h (1 Bft)
26.06.2016 21:45 11,3 C 11,3 C 96 % 1019,0 hPa 0,0 mm 2,2 km/h (1 Bft) N-NW 348 0 min 0,000 mm 0,0 UV-I 0 W/m 10,7 C 3,2 km/h (1 Bft)
26.06.2016 21:46 11,4 C 11,4 C 97 % 1019,0 hPa 0,0 mm 2,2 km/h (1 Bft) N-NW 329 0 min 0,000 mm 0,0 UV-I 0 W/m 10,9 C 3,2 km/h (1 Bft)
26.06.2016 21:47 11,4 C 11,4 C 97 % 1019,0 hPa 0,0 mm 2,0 km/h (1 Bft) N-NW 329 0 min 0,000 mm 0,0 UV-I 0 W/m 10,9 C 3,2 km/h (1 Bft)
26.06.2016 21:48 11,4 C 11,4 C 97 % 1019,0 hPa 0,2 mm 0,1 km/h (0 Bft) N-NW 329 0 min 0,000 mm 0,0 UV-I 0 W/m 10,9 C 1,6 km/h (1 Bft)
26.06.2016 21:49 11,4 C 11,4 C 97 % 1019,0 hPa 0,0 mm 0,0 km/h (0 Bft) N-NW 329 0 min 0,000 mm 0,0 UV-I 0 W/m 10,9 C 0,0 km/h (0 Bft)
26.06.2016 21:50 11,4 C 11,4 C 97 % 1019,0 hPa 0,0 mm 0,8 km/h (0 Bft) N-NW 329 0 min 0,000 mm 0,0 UV-I 0 W/m 10,9 C 1,6 km/h (1 Bft)
26.06.2016 21:51 11,4 C 11,4 C 96 % 1019,0 hPa 0,0 mm 0,3 km/h (0 Bft) N-NW 329 0 min 0,000 mm 0,0 UV-I 0 W/m 10,8 C 1,6 km/h (1 Bft)
26.06.2016 21:52 11,3 C 11,4 C 96 % 1019,0 hPa 0,0 mm 2,2 km/h (1 Bft) N-NW 334 0 min 0,000 mm 0,0 UV-I 0 W/m 10,7 C 3,2 km/h (1 Bft)
26.06.2016 21:53 11,4 C 11,4 C 96 % 1019,0 hPa 0,0 mm 2,1 km/h (1 Bft) W-NW 291 0 min 0,000 mm 0,0 UV-I 0 W/m 10,8 C 3,2 km/h (1 Bft)
26.06.2016 21:54 11,4 C 11,4 C 96 % 1019,0 hPa 0,0 mm 0,5 km/h (0 Bft) SW 232 0 min 0,000 mm 0,0 UV-I 0 W/m 10,8 C 1,6 km/h (1 Bft)
26.06.2016 21:55 11,4 C 11,4 C 96 % 1019,0 hPa 0,0 mm 0,1 km/h (0 Bft) SW 232 0 min 0,000 mm 0,0 UV-I 0 W/m 10,8 C 1,6 km/h (1 Bft)
26.06.2016 21:56 11,4 C 11,4 C 96 % 1019,0 hPa 0,0 mm 0,1 km/h (0 Bft) SW 232 0 min 0,000 mm 0,0 UV-I 0 W/m 10,8 C 1,6 km/h (1 Bft)
26.06.2016 21:57 11,4 C 11,4 C 96 % 1019,0 hPa 0,0 mm 0,2 km/h (0 Bft) SW 232 0 min 0,000 mm 0,0 UV-I 0 W/m 10,8 C 1,6 km/h (1 Bft)
26.06.2016 21:58 11,3 C 11,4 C 96 % 1019,1 hPa 0,0 mm 0,9 km/h (0 Bft) SW 232 0 min 0,000 mm 0,0 UV-I 0 W/m 10,7 C 1,6 km/h (1 Bft)
26.06.2016 21:59 11,3 C 11,4 C 96 % 1019,1 hPa 0,0 mm 0,0 km/h (0 Bft) SW 232 0 min 0,000 mm 0,0 UV-I 0 W/m 10,7 C 0,0 km/h (0 Bft)
26.06.2016 22:00 11,3 C 11,3 C 96 % 1019,1 hPa 0,0 mm 0,0 km/h (0 Bft) SW 232 0 min 0,000 mm 0,0 UV-I 0 W/m 10,7 C 0,0 km/h (0 Bft)
26.06.2016 22:01 11,3 C 11,3 C 96 % 1019,1 hPa 0,0 mm 0,6 km/h (0 Bft) SW 232 0 min 0,000 mm 0,0 UV-I 0 W/m 10,7 C 1,6 km/h (1 Bft)
26.06.2016 22:02 11,3 C 11,3 C 96 % 1019,1 hPa 0,0 mm 0,8 km/h (0 Bft) SW 232 0 min 0,000 mm 0,0 UV-I 0 W/m 10,7 C 1,6 km/h (1 Bft)
26.06.2016 22:03 11,3 C 11,3 C 96 % 1019,2 hPa 0,0 mm 0,2 km/h (0 Bft) SW 232 0 min 0,000 mm 0,0 UV-I 0 W/m 10,7 C 1,6 km/h (1 Bft)
26.06.2016 22:04 11,3 C 11,3 C 96 % 1019,2 hPa 0,0 mm 1,0 km/h (0 Bft) SW 232 0 min 0,000 mm 0,0 UV-I 0 W/m 10,7 C 1,6 km/h (1 Bft)
26.06.2016 22:05 11,3 C 11,3 C 96 % 1019,3 hPa 0,0 mm 0,1 km/h (0 Bft) SW 232 0 min 0,000 mm 0,0 UV-I 0 W/m 10,7 C 1,6 km/h (1 Bft)
26.06.2016 22:06 11,3 C 11,3 C 96 % 1019,3 hPa 0,2 mm 0,0 km/h (0 Bft) SW 232 0 min 0,000 mm 0,0 UV-I 0 W/m 10,7 C 0,0 km/h (0 Bft)
26.06.2016 22:07 11,3 C 11,3 C 96 % 1019,2 hPa 0,0 mm 0,3 km/h (0 Bft) SW 232 0 min 0,000 mm 0,0 UV-I 0 W/m 10,7 C 1,6 km/h (1 Bft)
26.06.2016 22:08 11,3 C 11,3 C 96 % 1019,3 hPa 0,0 mm 2,4 km/h (1 Bft) W-SW 252 0 min 0,000 mm 0,0 UV-I 0 W/m 10,7 C 4,8 km/h (1 Bft)
26.06.2016 22:09 11,3 C 11,3 C 96 % 1019,3 hPa 0,0 mm 0,8 km/h (0 Bft) W-SW 252 0 min 0,000 mm 0,0 UV-I 0 W/m 10,7 C 1,6 km/h (1 Bft)
26.06.2016 22:10 11,3 C 11,3 C 96 % 1019,3 hPa 0,0 mm 0,6 km/h (0 Bft) W-SW 252 0 min 0,000 mm 0,0 UV-I 0 W/m 10,7 C 1,6 km/h (1 Bft)
26.06.2016 22:11 11,3 C 11,3 C 96 % 1019,3 hPa 0,0 mm 0,1 km/h (0 Bft) W-SW 252 0 min 0,000 mm 0,0 UV-I 0 W/m 10,7 C 1,6 km/h (1 Bft)
26.06.2016 22:12 11,3 C 11,3 C 96 % 1019,3 hPa 0,2 mm 0,9 km/h (0 Bft) W-SW 252 0 min 0,000 mm 0,0 UV-I 0 W/m 10,7 C 3,2 km/h (1 Bft)
26.06.2016 22:13 11,3 C 11,3 C 96 % 1019,3 hPa 0,0 mm 0,3 km/h (0 Bft) W-SW 252 0 min 0,000 mm 0,0 UV-I 0 W/m 10,7 C 1,6 km/h (1 Bft)
26.06.2016 22:14 11,3 C 11,3 C 96 % 1019,4 hPa 0,0 mm 0,9 km/h (0 Bft) W-SW 252 0 min 0,000 mm 0,0 UV-I 0 W/m 10,7 C 1,6 km/h (1 Bft)
26.06.2016 22:15 11,2 C 11,3 C 96 % 1019,4 hPa 0,0 mm 1,1 km/h (1 Bft) W-SW 250 0 min 0,000 mm 0,0 UV-I 0 W/m 10,6 C 3,2 km/h (1 Bft)
26.06.2016 22:16 11,2 C 11,3 C 96 % 1019,4 hPa 0,0 mm 0,1 km/h (0 Bft) W-SW 250 0 min 0,000 mm 0,0 UV-I 0 W/m 10,6 C 1,6 km/h (1 Bft)
26.06.2016 22:17 11,2 C 11,2 C 96 % 1019,4 hPa 0,2 mm 0,0 km/h (0 Bft) W-SW 250 0 min 0,000 mm 0,0 UV-I 0 W/m 10,6 C 0,0 km/h (0 Bft)
26.06.2016 22:18 11,2 C 11,2 C 96 % 1019,4 hPa 0,0 mm 0,1 km/h (0 Bft) W-SW 250 0 min 0,000 mm 0,0 UV-I 0 W/m 10,6 C 1,6 km/h (1 Bft)
26.06.2016 22:19 11,2 C 11,2 C 96 % 1019,4 hPa 0,0 mm 0,1 km/h (0 Bft) W-SW 250 0 min 0,000 mm 0,0 UV-I 0 W/m 10,6 C 1,6 km/h (1 Bft)
26.06.2016 22:20 11,2 C 11,2 C 96 % 1019,4 hPa 0,0 mm 0,1 km/h (0 Bft) W-SW 250 0 min 0,000 mm 0,0 UV-I 0 W/m 10,6 C 1,6 km/h (1 Bft)
26.06.2016 22:21 11,2 C 11,2 C 96 % 1019,5 hPa 0,0 mm 1,2 km/h (1 Bft) W 261 0 min 0,000 mm 0,0 UV-I 0 W/m 10,6 C 3,2 km/h (1 Bft)
26.06.2016 22:22 11,2 C 11,2 C 96 % 1019,5 hPa 0,2 mm 1,1 km/h (1 Bft) W 261 0 min 0,000 mm 0,0 UV-I 0 W/m 10,6 C 3,2 km/h (1 Bft)
26.06.2016 22:23 11,2 C 11,2 C 96 % 1019,5 hPa 0,0 mm 2,3 km/h (1 Bft) W-SW 247 0 min 0,000 mm 0,0 UV-I 0 W/m 10,6 C 3,2 km/h (1 Bft)
26.06.2016 22:24 11,2 C 11,2 C 95 % 1019,5 hPa 0,0 mm 2,8 km/h (1 Bft) W-SW 257 0 min 0,000 mm 0,0 UV-I 0 W/m 10,4 C 4,8 km/h (1 Bft)
26.06.2016 22:25 11,2 C 11,2 C 96 % 1019,6 hPa 0,0 mm 2,5 km/h (1 Bft) W-SW 246 0 min 0,000 mm 0,0 UV-I 0 W/m 10,6 C 4,8 km/h (1 Bft)
26.06.2016 22:26 11,2 C 11,2 C 95 % 1019,5 hPa 0,0 mm 1,6 km/h (1 Bft) W-SW 254 0 min 0,000 mm 0,0 UV-I 0 W/m 10,4 C 3,2 km/h (1 Bft)
26.06.2016 22:27 11,2 C 11,3 C 96 % 1019,6 hPa 0,2 mm 2,2 km/h (1 Bft) W 260 0 min 0,000 mm 0,0 UV-I 0 W/m 10,6 C 3,2 km/h (1 Bft)
26.06.2016 22:28 11,2 C 11,2 C 96 % 1019,6 hPa 0,0 mm 2,7 km/h (1 Bft) W 261 0 min 0,000 mm 0,0 UV-I 0 W/m 10,6 C 4,8 km/h (1 Bft)
26.06.2016 22:29 11,2 C 11,3 C 95 % 1019,6 hPa 0,0 mm 1,1 km/h (1 Bft) W-SW 249 0 min 0,000 mm 0,0 UV-I 0 W/m 10,4 C 3,2 km/h (1 Bft)
26.06.2016 22:30 11,2 C 11,3 C 95 % 1019,7 hPa 0,0 mm 2,1 km/h (1 Bft) W-SW 250 0 min 0,000 mm 0,0 UV-I 0 W/m 10,4 C 3,2 km/h (1 Bft)
26.06.2016 22:31 11,2 C 11,2 C 95 % 1019,7 hPa 0,0 mm 1,1 km/h (1 Bft) W-SW 250 0 min 0,000 mm 0,0 UV-I 0 W/m 10,4 C 3,2 km/h (1 Bft)
26.06.2016 22:32 11,2 C 11,3 C 95 % 1019,7 hPa 0,2 mm 1,9 km/h (1 Bft) W 261 0 min 0,000 mm 0,0 UV-I 0 W/m 10,4 C 3,2 km/h (1 Bft)
26.06.2016 22:33 11,2 C 11,2 C 95 % 1019,7 hPa 0,0 mm 2,2 km/h (1 Bft) W 260 0 min 0,000 mm 0,0 UV-I 0 W/m 10,4 C 3,2 km/h (1 Bft)
26.06.2016 22:34 11,2 C 11,3 C 95 % 1019,8 hPa 0,0 mm 1,6 km/h (1 Bft) W 260 0 min 0,000 mm 0,0 UV-I 0 W/m 10,4 C 3,2 km/h (1 Bft)
26.06.2016 22:35 11,2 C 11,2 C 95 % 1019,8 hPa 0,0 mm 2,9 km/h (1 Bft) W-SW 249 0 min 0,000 mm 0,0 UV-I 0 W/m 10,4 C 4,8 km/h (1 Bft)
26.06.2016 22:36 11,2 C 11,2 C 95 % 1019,8 hPa 0,0 mm 1,3 km/h (1 Bft) W-SW 249 0 min 0,000 mm 0,0 UV-I 0 W/m 10,4 C 1,6 km/h (1 Bft)
26.06.2016 22:37 11,2 C 11,2 C 95 % 1019,8 hPa 0,2 mm 0,6 km/h (0 Bft) W-SW 249 0 min 0,000 mm 0,0 UV-I 0 W/m 10,4 C 1,6 km/h (1 Bft)
26.06.2016 22:38 11,2 C 11,2 C 95 % 1019,8 hPa 0,0 mm 0,4 km/h (0 Bft) W-SW 249 0 min 0,000 mm 0,0 UV-I 0 W/m 10,4 C 1,6 km/h (1 Bft)
26.06.2016 22:39 11,2 C 11,2 C 95 % 1019,8 hPa 0,0 mm 0,8 km/h (0 Bft) W-SW 249 0 min 0,000 mm 0,0 UV-I 0 W/m 10,4 C 1,6 km/h (1 Bft)
26.06.2016 22:40 11,2 C 11,2 C 95 % 1019,9 hPa 0,0 mm 1,3 km/h (1 Bft) W-SW 249 0 min 0,000 mm 0,0 UV-I 0 W/m 10,4 C 1,6 km/h (1 Bft)
26.06.2016 22:41 11,2 C 11,2 C 95 % 1019,8 hPa 0,0 mm 2,8 km/h (1 Bft) W-SW 249 0 min 0,000 mm 0,0 UV-I 0 W/m 10,4 C 3,2 km/h (1 Bft)
26.06.2016 22:42 11,2 C 11,2 C 95 % 1019,8 hPa 0,2 mm 1,7 km/h (1 Bft) W-SW 249 0 min 0,000 mm 0,0 UV-I 0 W/m 10,4 C 3,2 km/h (1 Bft)
26.06.2016 22:43 11,2 C 11,2 C 95 % 1019,8 hPa 0,0 mm 1,9 km/h (1 Bft) W-SW 249 0 min 0,000 mm 0,0 UV-I 0 W/m 10,4 C 3,2 km/h (1 Bft)
26.06.2016 22:44 11,2 C 11,2 C 95 % 1019,8 hPa 0,0 mm 0,3 km/h (0 Bft) W-SW 249 0 min 0,000 mm 0,0 UV-I 0 W/m 10,4 C 1,6 km/h (1 Bft)
26.06.2016 22:45 11,2 C 11,2 C 95 % 1019,8 hPa 0,0 mm 0,0 km/h (0 Bft) W-SW 249 0 min 0,000 mm 0,0 UV-I 0 W/m 10,4 C 0,0 km/h (0 Bft)
26.06.2016 22:46 11,1 C 11,2 C 95 % 1019,8 hPa 0,0 mm 0,3 km/h (0 Bft) W-SW 249 0 min 0,000 mm 0,0 UV-I 0 W/m 10,3 C 1,6 km/h (1 Bft)
26.06.2016 22:47 11,1 C 11,2 C 96 % 1019,8 hPa 0,2 mm 0,0 km/h (0 Bft) W-SW 249 0 min 0,000 mm 0,0 UV-I 0 W/m 10,5 C 0,0 km/h (0 Bft)
26.06.2016 22:48 11,1 C 11,1 C 96 % 1019,8 hPa 0,0 mm 0,0 km/h (0 Bft) W-SW 249 0 min 0,000 mm 0,0 UV-I 0 W/m 10,5 C 0,0 km/h (0 Bft)
26.06.2016 22:49 11,0 C 11,1 C 96 % 1019,9 hPa 0,0 mm 0,1 km/h (0 Bft) W-SW 249 0 min 0,000 mm 0,0 UV-I 0 W/m 10,4 C 1,6 km/h (1 Bft)
26.06.2016 22:50 11,0 C 11,1 C 96 % 1019,8 hPa 0,0 mm 0,7 km/h (0 Bft) W-SW 247 0 min 0,000 mm 0,0 UV-I 0 W/m 10,4 C 1,6 km/h (1 Bft)
26.06.2016 22:51 11,0 C 11,1 C 96 % 1019,8 hPa 0,2 mm 1,4 km/h (1 Bft) S 175 0 min 0,000 mm 0,0 UV-I 0 W/m 10,4 C 1,6 km/h (1 Bft)
26.06.2016 22:52 11,0 C 11,1 C 96 % 1019,9 hPa 0,0 mm 0,4 km/h (0 Bft) S 175 0 min 0,000 mm 0,0 UV-I 0 W/m 10,4 C 1,6 km/h (1 Bft)
26.06.2016 22:53 11,0 C 11,0 C 96 % 1019,9 hPa 0,0 mm 0,5 km/h (0 Bft) S 175 0 min 0,000 mm 0,0 UV-I 0 W/m 10,4 C 1,6 km/h (1 Bft)
26.06.2016 22:54 10,9 C 11,0 C 96 % 1019,9 hPa 0,0 mm 0,1 km/h (0 Bft) S 175 0 min 0,000 mm 0,0 UV-I 0 W/m 10,3 C 1,6 km/h (1 Bft)
26.06.2016 22:55 10,9 C 10,9 C 96 % 1020,0 hPa 0,0 mm 0,3 km/h (0 Bft) S 175 0 min 0,000 mm 0,0 UV-I 0 W/m 10,3 C 1,6 km/h (1 Bft)
26.06.2016 22:56 10,9 C 10,9 C 96 % 1020,0 hPa 0,0 mm 0,2 km/h (0 Bft) S 175 0 min 0,000 mm 0,0 UV-I 0 W/m 10,3 C 1,6 km/h (1 Bft)
26.06.2016 22:57 10,9 C 11,0 C 96 % 1020,0 hPa 0,2 mm 0,0 km/h (0 Bft) N 0 0 min 0,000 mm 0,0 UV-I 0 W/m 10,3 C 0,0 km/h (0 Bft)
26.06.2016 23:01 10,9 C 11,0 C 97 % 1020,1 hPa 0,2 mm 0,0 km/h (0 Bft) O 84 0 min 0,000 mm 0,0 UV-I 0 W/m 10,4 C 0,0 km/h (0 Bft)
26.06.2016 23:02 10,9 C 10,9 C 97 % 1020,1 hPa 0,0 mm 0,0 km/h (0 Bft) O 84 0 min 0,000 mm 0,0 UV-I 0 W/m 10,4 C 0,0 km/h (0 Bft)
26.06.2016 23:03 11,0 C 11,0 C 96 % 1020,0 hPa 0,0 mm 0,0 km/h (0 Bft) O 84 0 min 0,000 mm 0,0 UV-I 0 W/m 10,4 C 0,0 km/h (0 Bft)
26.06.2016 23:04 10,9 C 11,0 C 96 % 1020,0 hPa 0,0 mm 0,3 km/h (0 Bft) O 84 0 min 0,000 mm 0,0 UV-I 0 W/m 10,3 C 1,6 km/h (1 Bft)
26.06.2016 23:05 11,0 C 11,0 C 96 % 1020,1 hPa 0,0 mm 0,0 km/h (0 Bft) O 84 0 min 0,000 mm 0,0 UV-I 0 W/m 10,4 C 0,0 km/h (0 Bft)
26.06.2016 23:06 11,0 C 11,0 C 96 % 1020,1 hPa 0,2 mm 0,3 km/h (0 Bft) O 84 0 min 0,000 mm 0,0 UV-I 0 W/m 10,4 C 1,6 km/h (1 Bft)
26.06.2016 23:07 10,9 C 11,0 C 96 % 1020,1 hPa 0,0 mm 0,1 km/h (0 Bft) O 84 0 min 0,000 mm 0,0 UV-I 0 W/m 10,3 C 1,6 km/h (1 Bft)
26.06.2016 23:08 10,9 C 11,0 C 97 % 1020,0 hPa 0,0 mm 0,3 km/h (0 Bft) O 84 0 min 0,000 mm 0,0 UV-I 0 W/m 10,4 C 1,6 km/h (1 Bft)
26.06.2016 23:09 11,0 C 11,0 C 96 % 1020,1 hPa 0,0 mm 0,0 km/h (0 Bft) O 84 0 min 0,000 mm 0,0 UV-I 0 W/m 10,4 C 0,0 km/h (0 Bft)
26.06.2016 23:10 10,9 C 11,0 C 97 % 1020,1 hPa 0,0 mm 0,0 km/h (0 Bft) O 84 0 min 0,000 mm 0,0 UV-I 0 W/m 10,4 C 0,0 km/h (0 Bft)
26.06.2016 23:11 10,9 C 11,0 C 97 % 1020,1 hPa 0,0 mm 0,0 km/h (0 Bft) O 84 0 min 0,000 mm 0,0 UV-I 0 W/m 10,4 C 0,0 km/h (0 Bft)
26.06.2016 23:12 11,0 C 11,0 C 97 % 1020,1 hPa 0,0 mm 0,0 km/h (0 Bft) O 84 0 min 0,000 mm 0,0 UV-I 0 W/m 10,5 C 0,0 km/h (0 Bft)
26.06.2016 23:13 10,9 C 11,0 C 97 % 1020,0 hPa 0,0 mm 0,0 km/h (0 Bft) O 84 0 min 0,000 mm 0,0 UV-I 0 W/m 10,4 C 0,0 km/h (0 Bft)
26.06.2016 23:14 10,9 C 10,9 C 97 % 1020,0 hPa 0,2 mm 0,0 km/h (0 Bft) O 84 0 min 0,000 mm 0,0 UV-I 0 W/m 10,4 C 0,0 km/h (0 Bft)
26.06.2016 23:15 10,9 C 10,9 C 97 % 1020,0 hPa 0,0 mm 0,0 km/h (0 Bft) O 84 0 min 0,000 mm 0,0 UV-I 0 W/m 10,4 C 0,0 km/h (0 Bft)
26.06.2016 23:16 10,9 C 11,0 C 97 % 1020,0 hPa 0,0 mm 0,0 km/h (0 Bft) O 84 0 min 0,000 mm 0,0 UV-I 0 W/m 10,4 C 0,0 km/h (0 Bft)
26.06.2016 23:17 10,9 C 10,9 C 97 % 1020,0 hPa 0,0 mm 0,0 km/h (0 Bft) O 84 0 min 0,000 mm 0,0 UV-I 0 W/m 10,4 C 0,0 km/h (0 Bft)
26.06.2016 23:18 10,9 C 11,0 C 97 % 1020,0 hPa 0,0 mm 0,0 km/h (0 Bft) O 84 0 min 0,000 mm 0,0 UV-I 0 W/m 10,4 C 0,0 km/h (0 Bft)
26.06.2016 23:19 10,9 C 10,9 C 97 % 1020,0 hPa 0,0 mm 0,7 km/h (0 Bft) O 84 0 min 0,000 mm 0,0 UV-I 0 W/m 10,4 C 1,6 km/h (1 Bft)
26.06.2016 23:20 10,9 C 10,9 C 97 % 1020,0 hPa 0,2 mm 0,7 km/h (0 Bft) O 84 0 min 0,000 mm 0,0 UV-I 0 W/m 10,4 C 1,6 km/h (1 Bft)
26.06.2016 23:21 10,9 C 10,9 C 97 % 1020,0 hPa 0,0 mm 1,1 km/h (1 Bft) O 84 0 min 0,000 mm 0,0 UV-I 0 W/m 10,4 C 1,6 km/h (1 Bft)
26.06.2016 23:22 10,9 C 10,9 C 97 % 1020,0 hPa 0,0 mm 0,3 km/h (0 Bft) O 84 0 min 0,000 mm 0,0 UV-I 0 W/m 10,4 C 1,6 km/h (1 Bft)
26.06.2016 23:23 10,9 C 10,9 C 97 % 1020,0 hPa 0,0 mm 0,0 km/h (0 Bft) O 84 0 min 0,000 mm 0,0 UV-I 0 W/m 10,4 C 0,0 km/h (0 Bft)
26.06.2016 23:24 10,9 C 11,0 C 97 % 1020,0 hPa 0,0 mm 0,5 km/h (0 Bft) O 84 0 min 0,000 mm 0,0 UV-I 0 W/m 10,4 C 1,6 km/h (1 Bft)
26.06.2016 23:25 10,9 C 10,9 C 97 % 1020,0 hPa 0,2 mm 0,3 km/h (0 Bft) O 84 0 min 0,000 mm 0,0 UV-I 0 W/m 10,4 C 1,6 km/h (1 Bft)
26.06.2016 23:26 10,9 C 10,9 C 97 % 1019,9 hPa 0,0 mm 0,1 km/h (0 Bft) O 84 0 min 0,000 mm 0,0 UV-I 0 W/m 10,4 C 1,6 km/h (1 Bft)
26.06.2016 23:27 10,9 C 10,9 C 97 % 1019,9 hPa 0,0 mm 0,0 km/h (0 Bft) O 84 0 min 0,000 mm 0,0 UV-I 0 W/m 10,4 C 0,0 km/h (0 Bft)
26.06.2016 23:28 10,9 C 10,9 C 96 % 1020,0 hPa 0,0 mm 0,2 km/h (0 Bft) O 84 0 min 0,000 mm 0,0 UV-I 0 W/m 10,3 C 1,6 km/h (1 Bft)
26.06.2016 23:29 10,9 C 10,9 C 96 % 1020,0 hPa 0,0 mm 0,0 km/h (0 Bft) O 84 0 min 0,000 mm 0,0 UV-I 0 W/m 10,3 C 0,0 km/h (0 Bft)
26.06.2016 23:30 10,9 C 10,9 C 96 % 1020,0 hPa 0,0 mm 0,3 km/h (0 Bft) O 84 0 min 0,000 mm 0,0 UV-I 0 W/m 10,3 C 1,6 km/h (1 Bft)
26.06.2016 23:31 10,9 C 10,9 C 96 % 1020,0 hPa 0,2 mm 0,0 km/h (0 Bft) O 84 0 min 0,000 mm 0,0 UV-I 0 W/m 10,3 C 0,0 km/h (0 Bft)
26.06.2016 23:32 10,9 C 10,9 C 96 % 1020,0 hPa 0,0 mm 0,0 km/h (0 Bft) O 84 0 min 0,000 mm 0,0 UV-I 0 W/m 10,3 C 0,0 km/h (0 Bft)
26.06.2016 23:33 10,9 C 10,9 C 96 % 1020,1 hPa 0,0 mm 0,0 km/h (0 Bft) O 84 0 min 0,000 mm 0,0 UV-I 0 W/m 10,3 C 0,0 km/h (0 Bft)
26.06.2016 23:34 10,9 C 10,9 C 97 % 1020,1 hPa 0,0 mm 0,0 km/h (0 Bft) O 84 0 min 0,000 mm 0,0 UV-I 0 W/m 10,4 C 0,0 km/h (0 Bft)
26.06.2016 23:35 10,9 C 10,9 C 97 % 1020,0 hPa 0,0 mm 0,0 km/h (0 Bft) O 84 0 min 0,000 mm 0,0 UV-I 0 W/m 10,4 C 0,0 km/h (0 Bft)
26.06.2016 23:36 10,9 C 10,9 C 97 % 1020,0 hPa 0,0 mm 0,1 km/h (0 Bft) O 84 0 min 0,000 mm 0,0 UV-I 0 W/m 10,4 C 1,6 km/h (1 Bft)
26.06.2016 23:37 10,9 C 10,9 C 97 % 1020,0 hPa 0,2 mm 0,1 km/h (0 Bft) O 84 0 min 0,000 mm 0,0 UV-I 0 W/m 10,4 C 1,6 km/h (1 Bft)
26.06.2016 23:38 10,9 C 10,9 C 97 % 1020,1 hPa 0,0 mm 0,1 km/h (0 Bft) O 84 0 min 0,000 mm 0,0 UV-I 0 W/m 10,4 C 1,6 km/h (1 Bft)
26.06.2016 23:39 10,9 C 10,9 C 97 % 1020,0 hPa 0,0 mm 0,5 km/h (0 Bft) O 84 0 min 0,000 mm 0,0 UV-I 0 W/m 10,4 C 1,6 km/h (1 Bft)
26.06.2016 23:40 10,9 C 10,9 C 97 % 1020,1 hPa 0,0 mm 1,3 km/h (1 Bft) NW 304 0 min 0,000 mm 0,0 UV-I 0 W/m 10,4 C 3,2 km/h (1 Bft)
26.06.2016 23:41 10,9 C 10,9 C 97 % 1020,0 hPa 0,0 mm 0,5 km/h (0 Bft) NW 304 0 min 0,000 mm 0,0 UV-I 0 W/m 10,4 C 1,6 km/h (1 Bft)
26.06.2016 23:42 10,9 C 10,9 C 97 % 1020,1 hPa 0,2 mm 0,2 km/h (0 Bft) NW 304 0 min 0,000 mm 0,0 UV-I 0 W/m 10,4 C 1,6 km/h (1 Bft)
26.06.2016 23:43 10,9 C 10,9 C 97 % 1020,1 hPa 0,0 mm 0,5 km/h (0 Bft) NW 304 0 min 0,000 mm 0,0 UV-I 0 W/m 10,4 C 1,6 km/h (1 Bft)
26.06.2016 23:44 10,9 C 10,9 C 97 % 1020,1 hPa 0,0 mm 0,2 km/h (0 Bft) NW 304 0 min 0,000 mm 0,0 UV-I 0 W/m 10,4 C 1,6 km/h (1 Bft)
26.06.2016 23:45 10,9 C 10,9 C 97 % 1020,1 hPa 0,0 mm 1,3 km/h (1 Bft) W-SW 256 0 min 0,000 mm 0,0 UV-I 0 W/m 10,4 C 1,6 km/h (1 Bft)
26.06.2016 23:46 10,9 C 10,9 C 97 % 1020,0 hPa 0,0 mm 0,9 km/h (0 Bft) W 273 0 min 0,000 mm 0,0 UV-I 0 W/m 10,4 C 3,2 km/h (1 Bft)
26.06.2016 23:47 10,9 C 10,9 C 97 % 1020,0 hPa 0,0 mm 0,8 km/h (0 Bft) W-NW 284 0 min 0,000 mm 0,0 UV-I 0 W/m 10,4 C 3,2 km/h (1 Bft)
26.06.2016 23:48 10,9 C 10,9 C 97 % 1020,0 hPa 0,2 mm 0,5 km/h (0 Bft) W-NW 284 0 min 0,000 mm 0,0 UV-I 0 W/m 10,4 C 1,6 km/h (1 Bft)
26.06.2016 23:49 10,9 C 10,9 C 97 % 1020,1 hPa 0,0 mm 0,7 km/h (0 Bft) W-NW 284 0 min 0,000 mm 0,0 UV-I 0 W/m 10,4 C 1,6 km/h (1 Bft)
26.06.2016 23:50 10,9 C 10,9 C 97 % 1020,0 hPa 0,0 mm 0,4 km/h (0 Bft) W-NW 284 0 min 0,000 mm 0,0 UV-I 0 W/m 10,4 C 1,6 km/h (1 Bft)
26.06.2016 23:51 10,9 C 10,9 C 97 % 1020,1 hPa 0,0 mm 1,4 km/h (1 Bft) W 281 0 min 0,000 mm 0,0 UV-I 0 W/m 10,4 C 3,2 km/h (1 Bft)
26.06.2016 23:52 10,9 C 10,9 C 97 % 1020,1 hPa 0,2 mm 0,9 km/h (0 Bft) W-SW 244 0 min 0,000 mm 0,0 UV-I 0 W/m 10,4 C 1,6 km/h (1 Bft)
26.06.2016 23:53 10,9 C 10,9 C 97 % 1020,1 hPa 0,0 mm 3,1 km/h (1 Bft) W-SW 257 0 min 0,000 mm 0,0 UV-I 0 W/m 10,4 C 3,2 km/h (1 Bft)
26.06.2016 23:54 11,0 C 11,0 C 97 % 1020,1 hPa 0,0 mm 3,0 km/h (1 Bft) W-NW 286 0 min 0,000 mm 0,0 UV-I 0 W/m 10,5 C 3,2 km/h (1 Bft)
26.06.2016 23:55 11,0 C 11,0 C 97 % 1020,1 hPa 0,0 mm 1,9 km/h (1 Bft) W-NW 286 0 min 0,000 mm 0,0 UV-I 0 W/m 10,5 C 3,2 km/h (1 Bft)
26.06.2016 23:56 11,0 C 11,0 C 97 % 1020,1 hPa 0,2 mm 1,5 km/h (1 Bft) W 278 0 min 0,000 mm 0,0 UV-I 0 W/m 10,5 C 3,2 km/h (1 Bft)
26.06.2016 23:57 11,0 C 11,0 C 97 % 1020,1 hPa 0,0 mm 3,0 km/h (1 Bft) W-SW 255 0 min 0,000 mm 0,0 UV-I 0 W/m 10,5 C 4,8 km/h (1 Bft)
26.06.2016 23:58 11,0 C 11,1 C 97 % 1020,1 hPa 0,0 mm 3,0 km/h (1 Bft) W 268 0 min 0,000 mm 0,0 UV-I 0 W/m 10,5 C 3,2 km/h (1 Bft)
26.06.2016 23:59 11,1 C 11,1 C 96 % 1020,1 hPa 0,0 mm 2,5 km/h (1 Bft) W 273 0 min 0,000 mm 0,0 UV-I 0 W/m 10,5 C 3,2 km/h (1 Bft)
_ Min-Zeit 23:53 23:53 16:43 03:49 - 23:35 - - - - - - 23:33 23:35
Minimum _ 10,9 C 10,9 C 90 % 1015,4 hPa - 0,0 km/h (0 Bft) - - - - - - 10,3 C 0,0 km/h (0 Bft)
_ Max-Zeit 00:33 00:35 23:58 23:59 23:56 13:20 - - 23:59 13:00 12:57 16:18 00:33 13:26
Maximum _ 15,2 C 15,2 C 97 % 1020,1 hPa 0,2 mm 7,8 km/h
N-NW (2 Bft)
- - 0 min 0,077 mm 2,1 UV-I 200 W/m 14,1 C 12,9 km/h
W (3 Bft)
Durchschnitt _ 12,8 C 12,8 C 95 % 1017,3 hPa #15,6 mm 1,8 km/h (1 Bft) W - #0 min. #0,559 mm 0,9 UV-I 44 W/m 12,0 C 3,2 km/h (1 Bft)